ECMWFNIL_sfc_thetae_000.txt.gz
Theta_e
309 308 308 306 305 307 307 305 306 306 307 306 306 307 307 308 310 307 308 306 307 306 307 307 307 307 308 307 306 308 309 309 309 310 310 309 309 310 311 312 313 315
309 309 310 308 308 308 308 307 306 306 306 306 306 306 306 308 308 308 307 307 308 306 307 306 307 306 305 306 306 307 306 306 306 310 308 307 308 308 308 309 310 312
309 309 308 307 308 308 307 307 307 306 306 306 306 307 308 309 308 306 307 307 306 306 305 304 304 305 305 305 304 304 304 304 305 306 307 306 307 307 307 307 308 310
309 310 309 308 307 308 307 307 306 306 306 307 306 308 309 309 308 307 307 313 305 304 304 304 305 304 304 303 303 302 302 303 304 304 304 304 305 306 305 307 307 307
309 309 308 308 307 308 307 306 306 306 307 307 306 307 309 307 306 306 306 304 304 304 303 303 302 302 303 302 302 301 303 302 302 303 302 302 303 304 305 305 304 304
309 309 308 308 307 306 306 306 306 306 305 305 306 307 304 305 305 304 304 303 302 303 302 301 301 301 301 301 300 301 300 301 301 302 301 301 302 303 304 303 302 302
308 308 307 307 306 306 306 305 306 307 306 306 305 304 304 303 303 303 302 302 301 303 301 300 300 300 300 300 300 300 300 300 300 301 301 300 302 301 302 302 302 302
308 307 307 306 306 305 306 305 305 305 305 305 304 303 303 303 302 301 301 301 300 300 300 300 299 300 299 299 300 299 298 301 301 300 300 300 300 299 300 302 302 301
308 307 306 305 305 305 305 305 305 304 305 304 303 302 302 302 301 300 301 300 300 299 299 299 299 298 298 299 298 298 298 298 300 299 299 300 299 299 300 300 300 301
307 307 305 305 305 305 305 305 305 304 305 303 303 302 302 302 300 300 300 299 299 299 298 297 297 298 298 298 298 298 298 298 298 299 299 300 300 299 300 300 300 300
307 306 305 305 305 304 304 304 304 304 304 303 302 301 301 300 302 300 298 298 298 297 297 296 297 297 297 297 297 298 298 298 298 298 299 299 300 301 303 302 302 301
307 306 305 305 305 304 304 304 304 304 303 302 302 301 299 299 299 299 300 297 297 296 296 297 296 296 297 297 297 297 298 298 298 298 300 301 301 302 302 302 302 302
307 306 305 305 305 305 304 304 304 303 303 302 302 300 300 298 297 297 299 296 296 296 296 296 296 296 296 296 296 296 296 297 298 299 300 301 302 302 302 302 302 302
307 306 305 305 305 304 304 304 303 301 301 300 301 298 298 297 296 296 297 296 296 296 297 298 296 296 296 296 296 296 296 296 297 298 298 300 301 301 302 302 302 302
306 306 305 305 305 304 304 303 302 301 300 299 299 298 299 297 296 296 295 294 294 294 295 296 296 296 296 297 296 295 295 295 295 296 296 296 297 298 299 299 300 300
307 307 306 305 304 304 303 302 301 300 299 298 297 296 296 296 295 295 295 294 294 294 294 295 295 296 300 298 297 296 294 294 295 295 295 295 295 295 296 297 298 299
307 307 306 305 304 303 301 301 300 300 298 296 296 295 295 297 295 294 293 293 293 293 293 293 294 296 296 294 293 294 295 294 294 294 294 294 294 294 294 295 295 296
308 307 306 305 304 302 301 301 299 298 297 295 295 295 295 294 293 293 292 293 293 293 292 293 293 296 294 293 293 293 294 296 294 294 294 293 293 293 294 294 294 294
306 306 305 304 303 302 301 300 298 297 295 295 295 294 294 292 291 291 292 292 292 292 292 293 293 294 293 293 293 293 293 294 293 293 293 293 293 293 293 293 294 294
307 305 305 303 303 302 301 299 298 297 295 295 294 293 291 291 290 291 291 290 291 292 291 291 292 294 293 293 293 292 292 292 293 293 293 293 293 293 293 293 293 293
306 306 304 303 303 301 300 299 298 294 295 294 292 292 292 290 290 289 291 293 290 290 289 291 292 293 292 292 292 292 292 292 292 292 292 292 293 293 293 293 293 294
306 305 304 302 302 300 299 298 296 297 294 293 292 290 289 289 288 289 289 288 288 288 288 289 290 291 291 291 291 291 291 293 292 291 291 291 292 292 292 293 293 293
303 304 303 302 301 300 298 297 295 293 293 293 292 290 289 289 288 288 289 287 289 289 287 288 289 291 291 291 291 291 291 291 291 291 291 291 291 291 291 292 293 293
304 303 302 301 299 299 297 295 294 294 294 293 292 290 289 288 288 287 286 288 288 287 288 289 289 291 291 291 291 291 291 290 290 290 290 290 290 291 291 292 293 296
304 303 301 299 298 297 296 295 294 294 293 291 291 289 289 288 291 286 286 284 286 287 294 291 288 290 291 290 291 291 291 290 290 289 289 289 289 289 290 291 291 293
303 301 300 299 297 296 296 295 294 293 291 290 289 289 289 287 288 286 285 284 285 287 288 288 288 288 291 290 291 291 291 291 290 288 288 288 289 289 289 290 291 291

ECMWFNIL_sfc_thetae_003.txt.gz
Theta_e
308 309 307 306 305 306 305 305 305 305 305 304 305 306 305 305 306 304 305 304 304 303 304 304 304 303 305 304 304 306 306 305 306 306 305 306 305 305 306 306 306 307
307 309 309 307 306 307 305 305 306 305 305 304 305 305 304 305 305 304 304 305 304 303 303 303 303 303 302 303 303 303 302 302 302 307 304 303 303 303 304 304 304 305
307 306 307 306 305 305 305 304 306 305 305 305 304 304 305 305 304 303 303 303 303 303 302 302 302 303 303 302 301 301 301 301 300 302 303 302 302 302 302 303 303 303
307 307 307 306 306 305 306 305 304 305 303 304 304 305 307 308 304 303 303 308 302 301 301 301 301 301 300 300 300 300 300 300 301 301 301 301 302 302 301 302 302 302
307 307 307 306 306 306 306 305 304 304 304 304 303 305 308 306 304 303 303 301 301 300 300 300 300 300 301 299 299 299 301 300 300 300 300 300 300 302 302 302 300 300
308 308 307 307 306 306 305 305 305 305 304 303 304 307 305 305 304 304 303 301 300 300 299 299 299 299 298 298 298 299 298 300 300 299 300 299 300 300 302 301 299 299
308 307 306 306 305 306 305 305 305 306 305 305 305 304 304 303 303 302 301 301 300 301 299 299 299 298 297 297 297 297 298 298 298 299 299 299 301 300 300 300 300 299
308 307 307 306 305 305 305 304 304 305 304 305 304 303 303 302 302 300 299 299 299 299 298 298 298 297 297 297 298 297 296 299 299 297 298 298 298 299 299 300 300 299
308 307 306 305 305 304 304 304 304 303 305 304 303 302 301 302 301 300 299 298 298 296 296 296 297 297 297 297 297 297 296 296 298 297 297 298 298 298 298 299 298 299
306 306 306 305 304 304 303 303 303 303 304 303 302 301 301 299 300 299 299 298 298 296 296 296 296 297 297 296 297 296 296 296 296 296 297 297 298 298 298 298 299 299
304 304 305 304 304 303 303 303 302 303 302 302 301 300 299 300 299 298 297 297 297 296 296 295 295 295 295 295 295 295 295 295 296 296 296 297 297 298 300 300 300 300
306 303 303 303 304 303 303 303 303 302 302 301 301 299 297 297 298 297 298 296 296 295 295 294 294 294 294 294 294 294 295 295 295 295 296 297 297 298 299 300 300 301
307 306 305 304 304 304 304 303 303 302 302 301 300 299 298 297 296 297 296 296 295 295 295 294 294 294 293 293 293 293 294 294 294 295 296 296 297 298 298 298 299 300
307 306 306 306 305 305 305 304 303 302 301 300 300 298 297 297 296 296 295 295 295 294 294 295 293 293 292 292 293 293 294 294 294 295 295 295 295 295 296 296 296 297
306 307 307 306 305 304 304 303 303 302 301 300 299 298 298 296 296 296 295 294 293 294 294 295 293 293 294 294 293 293 292 293 293 293 293 293 293 294 294 295 295 296
307 306 305 305 305 304 304 303 302 301 300 299 298 298 297 296 295 294 294 293 293 291 291 293 293 294 298 297 297 295 294 294 294 293 293 293 293 293 293 294 294 294
307 306 305 305 305 304 303 303 302 301 299 298 297 297 296 296 294 293 292 293 293 291 291 292 293 294 295 293 293 294 294 293 293 293 293 293 292 292 292 293 293 294
305 305 305 305 305 304 303 303 302 300 298 297 296 295 295 294 293 293 293 292 291 290 289 291 292 296 292 292 293 292 294 294 292 292 292 292 292 292 292 292 293 293
306 305 305 304 305 304 303 302 301 300 298 296 296 296 294 293 293 292 292 291 291 290 290 291 291 294 292 293 292 292 292 292 291 291 291 291 291 292 292 292 292 293
307 306 305 305 304 303 302 301 300 299 298 297 296 294 293 293 292 292 291 290 290 290 289 289 289 293 292 292 292 291 291 291 290 290 290 290 291 291 291 291 292 292
307 307 305 305 304 303 302 300 299 297 296 296 295 294 293 292 292 291 291 291 290 287 287 287 289 292 291 291 291 291 291 291 290 290 290 290 290 290 291 291 291 292
304 303 302 301 301 301 300 299 297 296 295 294 293 292 292 291 290 290 290 288 288 287 286 286 286 290 290 290 290 290 290 290 289 288 288 289 289 289 290 290 291 291
305 304 302 302 302 301 300 297 295 294 293 293 292 292 291 290 290 290 290 289 288 287 285 284 285 289 290 290 290 290 290 289 288 288 288 288 288 289 289 290 290 290
304 304 302 300 300 299 297 295 294 294 293 294 292 290 290 290 289 289 288 289 288 287 286 284 285 288 290 290 290 290 290 288 288 287 287 287 287 288 288 289 290 293
304 304 303 303 302 300 297 295 295 295 294 293 292 291 290 289 290 288 287 287 288 287 293 289 285 287 291 290 290 290 290 288 288 287 286 286 286 287 287 288 288 290
303 302 302 302 300 297 297 296 295 294 293 292 290 290 289 288 289 288 287 288 287 288 288 287 285 284 287 289 290 290 290 290 288 286 286 286 286 287 287 288 288 288

ECMWFNIL_sfc_thetae_006.txt.gz
Theta_e
307 307 306 305 304 305 305 305 304 305 306 306 308 307 308 307 308 307 306 305 306 306 305 305 305 306 306 305 305 305 306 305 307 305 304 306 305 305 305 305 305 306
307 308 308 306 305 306 305 306 305 306 306 306 307 307 306 307 307 306 305 307 307 305 304 305 305 304 304 304 304 304 303 303 304 308 304 303 304 304 304 304 305 305
307 307 306 305 304 304 304 305 306 305 306 306 305 306 306 307 307 304 305 305 305 304 304 304 304 304 303 303 303 303 302 302 303 303 306 303 304 304 304 304 304 304
306 307 308 306 305 304 304 304 304 304 304 304 305 306 307 307 306 305 306 310 304 304 303 303 303 303 302 302 302 302 302 302 302 303 302 303 304 304 303 305 304 303
307 306 307 307 306 305 305 304 304 304 304 305 304 305 307 307 304 305 306 303 304 303 303 302 301 302 302 301 301 301 303 301 301 301 301 302 302 303 304 304 302 301
307 307 307 307 306 305 304 304 304 305 304 303 304 306 306 306 305 305 305 303 303 303 302 301 301 300 300 300 300 300 301 300 300 301 301 301 301 302 302 302 301 301
307 306 306 306 305 305 305 304 304 305 304 305 305 305 305 304 305 305 304 304 302 303 301 301 300 299 300 300 300 299 299 300 300 300 300 300 302 301 301 301 301 300
308 307 306 305 305 304 305 304 304 304 304 304 305 304 305 305 304 304 303 302 302 300 299 299 299 299 299 300 300 299 299 300 300 299 299 299 299 299 300 300 300 299
307 307 307 305 304 304 304 304 304 304 305 304 304 303 304 304 303 303 301 301 300 299 299 299 299 298 299 299 298 298 298 298 299 298 298 298 298 298 298 299 299 300
308 308 306 306 305 305 304 304 304 304 305 304 304 303 303 302 302 301 300 300 300 299 298 298 298 299 298 298 299 298 298 298 297 297 297 298 298 298 298 298 299 299
308 307 307 306 305 305 304 304 304 304 304 303 302 302 302 301 301 301 300 299 299 298 298 297 298 298 298 297 297 298 298 297 297 297 297 297 297 298 299 299 299 299
308 306 306 306 306 305 304 304 304 304 304 303 303 302 301 301 300 300 301 299 298 297 297 297 297 297 296 297 296 297 297 297 297 297 298 297 297 298 298 299 299 298
308 307 307 307 306 305 305 304 304 304 303 303 303 302 301 300 300 300 300 298 297 297 297 297 296 296 296 295 295 295 295 296 296 296 296 296 297 297 297 297 297 297
308 307 307 306 306 305 304 304 304 303 303 303 302 301 301 300 299 299 298 298 297 297 297 297 296 295 294 294 295 295 296 296 295 296 296 295 295 296 296 296 296 297
307 306 306 305 305 305 304 304 303 303 303 302 302 302 301 300 299 298 297 296 296 296 296 296 296 295 295 295 296 295 294 295 294 294 294 294 294 294 295 295 296 296
307 307 306 305 305 304 304 304 304 303 302 302 301 300 299 298 297 297 297 296 295 295 296 296 295 295 299 295 296 297 295 294 294 294 294 294 294 294 294 294 295 295
306 306 305 305 304 304 304 304 303 303 302 301 300 299 297 298 297 296 295 295 295 295 294 294 294 296 295 293 293 293 294 294 293 293 293 293 293 292 292 293 294 294
305 305 304 304 304 304 303 303 302 301 300 299 298 297 297 296 295 295 294 295 294 293 293 294 294 296 293 292 292 292 293 295 293 292 292 292 292 292 292 292 292 293
305 304 304 303 304 304 303 303 302 301 300 299 298 297 296 295 295 294 294 293 293 293 293 294 293 294 292 292 292 291 291 292 292 291 291 291 291 291 291 291 291 292
305 304 303 303 304 304 303 301 301 300 299 298 297 296 296 295 294 294 293 292 292 292 292 292 291 293 292 292 291 291 290 291 291 290 290 290 291 291 291 291 291 291
304 304 303 303 303 302 301 300 299 297 297 297 296 295 295 294 293 292 292 293 292 291 291 290 291 292 291 291 290 290 290 290 290 290 290 290 290 290 290 290 290 291
304 303 302 302 302 301 300 299 298 297 297 297 296 295 294 294 293 293 293 291 291 290 290 288 289 291 290 290 290 290 290 291 290 289 289 289 289 290 290 290 290 290
304 303 302 302 302 301 300 299 298 297 296 296 294 293 293 293 292 293 293 291 290 289 288 287 287 290 290 290 290 289 290 289 289 289 288 288 288 289 289 290 290 290
303 303 302 302 302 301 300 298 297 296 296 296 295 293 293 292 292 291 290 291 290 288 288 287 287 288 290 290 290 289 290 289 289 288 287 287 288 288 289 289 289 291
304 304 303 302 301 299 298 297 297 296 296 296 295 294 293 292 292 290 289 289 289 289 292 288 286 288 290 289 290 289 291 290 288 287 286 287 287 287 288 288 288 290
304 304 303 303 300 298 298 298 297 296 295 295 294 294 292 291 291 290 289 289 289 289 290 290 287 287 290 289 290 290 290 291 289 287 286 286 287 287 287 288 288 289

ECMWFNIL_sfc_thetae_009.txt.gz
Theta_e
320 321 320 319 319 320 320 318 319 321 321 321 321 321 321 321 320 320 319 319 319 318 317 317 316 315 314 314 313 311 311 312 311 311 311 311 310 310 309 309 310 309
320 320 320 320 319 318 319 320 320 321 321 322 322 322 323 322 321 320 319 319 318 318 317 317 316 314 313 312 312 311 310 311 310 311 311 310 310 310 310 310 309 309
319 319 319 319 319 318 318 319 320 320 321 322 323 323 322 322 320 320 319 319 317 317 317 316 315 314 313 313 312 311 310 310 310 310 310 309 309 309 310 309 309 308
318 318 319 319 319 319 319 317 318 318 319 319 320 321 321 321 320 319 319 319 318 317 316 315 314 313 312 312 312 311 311 310 309 310 309 309 309 308 308 309 308 308
317 317 318 318 318 318 318 317 317 317 317 318 320 320 320 320 319 318 318 318 318 316 315 315 314 314 313 312 312 311 310 309 309 309 307 307 308 307 307 307 307 307
318 318 317 318 318 317 316 316 317 317 317 318 319 319 320 320 318 318 318 317 317 316 315 314 313 313 312 312 312 310 309 308 308 307 306 306 306 307 305 307 306 306
318 317 317 318 318 317 316 317 317 317 317 318 318 318 320 319 319 318 317 317 316 315 314 313 312 312 312 311 310 309 308 308 307 306 304 305 305 305 305 305 305 304
319 319 318 318 318 318 317 316 317 316 317 317 317 318 319 318 318 319 318 317 316 315 314 312 311 311 310 310 309 308 308 308 306 305 304 304 304 303 304 304 304 303
320 319 318 318 317 317 317 316 316 317 317 316 316 317 318 318 318 318 317 316 316 314 312 311 311 310 310 309 308 307 306 306 306 305 304 303 303 302 302 303 303 303
319 320 319 318 317 317 317 317 317 316 316 316 316 317 316 318 318 317 316 316 314 312 311 311 310 309 309 308 307 307 306 305 305 305 304 303 302 302 302 302 302 302
319 319 319 318 317 317 317 317 317 316 316 315 316 316 316 316 316 316 316 314 313 311 310 310 309 308 308 308 307 307 306 305 304 304 304 303 303 303 302 303 302 302
319 319 319 319 318 318 318 317 316 315 315 315 315 315 315 315 315 314 314 313 312 311 310 309 309 308 308 306 306 306 306 305 304 304 303 303 303 302 302 302 302 301
319 319 320 319 318 318 318 316 315 315 314 314 314 315 314 314 314 314 314 313 312 311 309 309 308 307 307 306 305 304 304 304 303 303 302 303 302 301 301 301 301 301
319 320 321 320 318 318 317 316 315 315 314 314 312 310 310 311 312 313 313 312 311 310 309 309 308 306 305 305 304 304 304 303 301 301 301 300 301 300 300 300 300 300
318 319 319 319 318 317 315 315 314 314 314 312 311 311 311 311 311 311 309 310 309 309 308 308 306 305 305 304 304 302 301 301 300 299 299 299 299 298 299 299 299 299
316 318 318 318 317 316 315 314 313 314 313 311 310 311 311 310 308 307 307 307 307 307 307 306 305 305 301 298 299 300 300 299 300 299 298 298 298 297 298 298 298 299
315 316 317 316 316 315 315 314 313 313 312 311 311 310 309 308 307 307 307 306 306 305 305 305 304 302 294 293 293 295 299 299 298 298 298 298 297 297 296 297 297 297
313 315 315 315 315 314 314 314 313 312 311 310 309 308 309 308 306 306 306 306 305 304 304 303 303 297 292 292 292 292 296 299 299 298 298 297 297 296 296 296 296 297
312 314 315 315 315 314 314 313 312 310 309 308 307 308 307 306 305 304 304 304 304 303 302 302 300 294 292 292 292 291 292 296 297 298 297 297 297 296 296 296 296 296
310 312 314 314 315 314 313 312 310 308 309 309 308 306 306 305 304 304 303 303 302 302 301 300 298 294 291 292 292 290 290 293 297 297 297 296 296 296 296 296 295 295
309 311 313 313 314 313 312 310 308 308 307 306 305 305 305 304 303 303 302 302 302 301 300 298 298 292 291 291 291 290 289 292 298 297 297 297 297 296 296 296 295 295
308 310 311 312 312 311 309 308 307 306 305 304 304 303 303 302 302 301 300 300 300 299 298 297 297 290 290 290 290 290 290 296 297 297 296 296 296 296 296 295 295 295
307 309 310 311 311 309 307 306 305 305 305 303 302 301 300 300 299 300 300 300 299 298 298 297 296 292 290 290 290 289 292 297 297 296 296 295 296 296 295 295 295 295
307 308 309 310 310 308 307 306 306 305 304 303 301 299 299 299 299 299 298 299 298 297 298 297 296 294 290 290 290 289 293 296 296 295 295 295 295 296 296 295 295 293
306 307 309 309 309 309 308 306 305 304 302 301 300 301 300 300 300 298 297 297 297 297 296 297 296 294 290 289 290 289 293 296 296 295 294 295 295 294 295 295 295 294
306 307 308 309 309 309 307 305 303 301 300 300 300 300 298 297 298 297 296 297 296 296 295 296 295 295 294 289 290 290 291 295 295 294 294 294 294 293 293 294 294 295

ECMWFNIL_sfc_thetae_012.txt.gz
Theta_e
328 328 327 324 321 322 324 321 322 322 321 322 321 322 322 321 321 322 323 322 321 320 319 319 318 318 317 318 318 317 318 318 318 317 317 317 316 317 316 315 315 315
329 329 327 326 324 323 324 324 323 322 321 323 322 324 324 323 322 323 322 322 321 320 319 319 319 318 317 316 317 316 316 317 316 316 317 317 316 317 316 315 315 315
329 329 328 327 325 326 326 326 324 323 322 323 324 324 324 325 323 323 323 323 322 321 320 319 319 318 317 317 317 317 316 316 316 316 316 315 316 316 315 316 314 314
328 329 329 329 328 328 328 326 324 323 323 323 324 324 326 325 325 324 323 322 322 321 321 319 318 318 317 316 317 315 316 315 315 316 315 315 314 314 314 314 313 313
328 328 329 329 329 329 329 326 324 323 322 323 326 324 325 325 324 323 323 322 322 321 320 319 318 318 317 317 316 315 315 314 315 315 313 313 313 313 313 313 312 312
328 327 327 327 329 329 327 326 324 323 323 323 324 324 324 324 323 322 323 322 321 320 320 319 318 318 317 317 317 316 315 314 314 313 312 312 311 312 310 312 311 311
326 327 327 327 328 329 328 327 326 325 324 324 324 323 323 323 322 322 321 322 321 320 319 319 318 318 318 317 316 315 314 314 312 312 311 311 311 311 310 310 308 309
325 326 327 327 327 328 328 326 326 325 326 324 324 323 322 322 321 322 322 322 320 320 319 318 318 317 317 316 315 314 314 314 313 311 310 310 310 309 310 309 310 309
324 324 325 327 327 326 327 326 326 326 325 325 323 323 322 322 321 322 322 321 321 320 319 318 317 316 316 315 314 314 312 313 312 312 311 310 310 308 307 308 309 309
325 324 324 325 326 326 326 327 325 325 325 324 323 323 322 322 321 321 321 321 320 320 319 318 317 316 315 315 314 313 312 311 311 311 311 310 308 308 307 307 308 308
324 324 324 325 325 326 326 326 326 325 325 323 323 322 322 322 321 322 321 320 320 319 319 318 317 316 315 314 314 314 312 311 310 310 310 309 309 308 307 308 307 307
324 324 324 325 326 327 326 326 325 325 324 324 323 322 323 322 321 321 320 319 319 320 319 318 317 316 314 314 313 313 312 311 311 310 309 308 308 307 306 307 307 306
323 324 325 325 325 326 326 326 325 325 324 323 323 322 322 322 322 321 321 320 319 320 318 318 316 315 314 314 313 312 311 310 310 310 309 308 306 305 305 306 305 305
319 322 324 324 325 325 326 326 326 325 324 324 323 322 322 322 321 319 320 319 319 319 318 318 316 314 314 313 312 312 311 310 309 308 307 306 306 305 305 304 304 304
314 316 320 321 322 323 324 324 325 325 324 323 323 322 323 322 321 319 319 319 319 319 317 316 315 314 314 312 311 311 311 309 308 305 305 304 304 304 304 303 303 304
313 315 316 319 321 322 322 323 323 324 324 323 322 322 322 321 320 320 319 319 318 317 316 315 314 314 307 301 304 310 309 306 306 305 304 303 303 303 303 303 303 303
312 314 316 317 319 321 322 322 323 323 323 322 322 321 321 319 319 319 319 318 317 315 314 314 313 307 294 294 294 297 305 306 305 304 303 302 302 302 302 302 302 301
309 310 312 315 317 318 320 321 322 321 321 322 321 321 320 319 318 318 317 317 317 315 314 313 310 296 292 292 294 294 297 304 304 303 302 302 302 301 301 301 301 301
308 308 310 312 315 318 319 320 319 319 319 320 320 321 321 319 318 316 316 316 315 313 312 310 304 292 292 292 292 292 292 298 303 302 301 302 302 301 301 301 301 301
307 308 309 310 313 317 318 318 318 318 319 319 320 320 319 318 318 317 316 315 314 313 311 308 302 293 291 291 292 291 290 294 302 302 302 301 300 301 301 301 301 300
308 308 308 309 311 313 316 317 317 318 317 317 318 318 318 317 316 315 314 313 312 311 309 305 300 291 291 291 291 290 289 293 303 302 301 302 302 302 301 301 301 301
309 308 309 310 310 312 314 315 316 316 316 317 317 317 316 316 315 314 312 311 310 308 305 302 298 290 290 290 290 290 289 298 301 301 301 301 301 301 301 301 301 300
309 308 308 309 310 310 312 314 315 315 315 316 315 315 314 313 313 312 311 309 307 305 304 300 296 292 290 290 290 289 292 299 301 301 301 301 301 301 301 301 301 300
309 308 308 309 310 311 311 314 315 316 315 316 314 313 312 312 312 309 308 306 304 302 301 299 296 293 290 290 290 289 293 300 301 300 300 300 300 301 301 301 301 299
308 309 308 309 309 311 312 313 314 314 314 315 314 313 311 309 307 306 304 303 303 302 300 300 297 294 290 290 290 289 295 300 299 299 299 299 299 298 300 300 300 299
309 309 309 309 310 311 313 314 314 313 314 314 313 311 308 306 304 303 302 302 302 301 301 301 299 296 294 289 290 290 291 297 298 296 297 297 298 298 298 299 299 299

ECMWFNIL_sfc_thetae_015.txt.gz
Theta_e
324 324 323 322 321 322 323 322 323 323 322 322 322 323 320 322 322 323 323 323 322 321 320 320 320 320 320 320 320 318 319 320 320 319 319 318 317 319 318 317 317 316
327 326 324 323 321 322 323 323 324 323 322 323 324 323 324 323 322 324 323 322 321 321 321 319 320 319 319 318 319 318 317 318 316 317 319 319 319 318 318 318 316 317
328 328 327 325 322 323 325 325 325 325 322 323 325 325 324 324 322 324 324 323 321 321 321 321 321 319 319 319 319 319 319 318 318 319 318 317 318 317 317 316 316 316
328 328 328 327 326 324 325 325 324 324 324 323 323 325 325 325 323 323 324 322 322 321 321 321 321 320 318 318 319 318 318 318 317 318 317 317 317 316 316 316 315 314
329 329 329 328 327 327 327 326 325 323 323 323 324 325 325 325 323 323 323 322 323 322 321 320 320 319 319 318 318 317 317 316 317 318 316 316 316 316 316 316 314 315
328 327 327 326 327 327 326 326 325 324 322 323 324 324 325 326 322 322 322 322 321 321 321 320 319 319 319 318 318 318 316 316 316 316 315 315 315 315 314 315 314 314
326 326 327 326 326 327 328 327 327 324 321 324 324 325 325 325 322 322 321 321 321 320 320 320 319 319 318 319 317 318 317 317 315 314 313 314 314 312 312 313 311 311
325 328 328 328 327 327 328 327 326 325 323 323 324 325 324 324 323 322 322 322 320 320 320 319 319 319 318 319 317 317 317 317 315 313 313 313 313 312 313 311 312 311
325 325 325 326 327 325 326 326 325 327 327 325 322 324 324 324 324 323 322 322 321 321 320 319 319 318 319 318 317 317 315 315 315 314 313 313 312 311 310 312 311 312
325 326 326 325 325 324 324 327 327 326 325 325 324 323 323 324 322 322 322 322 321 321 320 319 319 319 318 317 316 316 316 314 314 314 314 314 312 311 310 310 311 310
325 325 325 327 326 326 327 327 325 324 325 323 323 323 323 323 323 322 322 321 322 321 320 320 320 319 318 317 317 317 316 315 314 313 313 313 312 311 311 309 310 310
324 324 324 325 325 325 326 327 327 327 325 326 323 322 322 322 321 321 321 321 321 321 321 321 320 320 319 317 316 317 316 316 314 313 313 312 312 311 310 311 309 309
319 322 324 324 325 326 327 327 326 327 325 325 324 323 323 320 321 322 322 321 321 321 321 321 321 320 319 318 317 316 316 314 314 313 312 312 312 310 309 309 308 308
312 313 315 317 321 324 326 326 326 326 325 324 323 324 324 322 322 322 323 322 321 322 321 321 321 320 319 318 317 317 315 314 313 313 312 312 311 309 308 308 307 306
313 313 315 314 315 317 318 321 324 326 324 322 321 322 323 322 323 323 323 323 323 322 321 321 320 320 319 318 317 316 315 314 313 312 312 311 309 308 308 307 306 306
312 313 314 315 316 317 318 320 319 320 323 324 324 323 323 323 323 323 324 323 322 322 321 321 320 321 315 307 309 315 315 314 314 312 310 309 308 307 306 306 306 306
310 311 312 313 314 316 318 319 319 320 321 321 323 324 324 324 323 322 322 324 321 320 319 321 323 318 300 300 301 303 313 314 311 309 308 308 307 306 306 306 306 305
308 309 309 310 311 312 314 316 318 319 319 320 321 322 323 324 323 322 321 321 321 319 319 319 320 299 295 296 296 298 304 311 310 308 307 306 306 305 305 305 304 305
307 307 308 308 309 310 312 315 316 317 319 319 319 320 322 322 322 321 321 321 320 317 317 318 314 294 294 294 294 294 296 303 308 308 306 305 306 305 304 304 304 303
308 307 308 308 309 310 310 311 313 314 317 319 319 319 320 321 322 321 321 320 319 318 317 317 305 295 293 293 293 292 292 296 307 306 305 305 304 304 304 303 303 303
308 308 308 309 309 309 310 309 310 312 315 317 317 317 317 318 320 320 320 320 319 318 317 310 303 292 292 292 292 292 290 293 305 305 303 303 303 303 303 303 303 303
309 309 309 308 308 308 309 309 310 312 313 316 316 316 317 317 318 319 319 319 318 318 315 303 300 291 291 291 291 291 290 301 303 303 302 302 303 303 303 303 303 302
309 309 308 309 308 308 307 308 309 310 312 315 315 315 315 316 316 317 318 318 317 315 314 301 297 292 290 290 290 290 293 301 303 301 302 302 303 303 303 303 304 303
309 308 308 308 308 307 307 308 310 311 311 314 314 313 314 314 315 316 317 317 316 315 306 301 298 293 290 290 290 290 295 301 301 302 301 302 302 303 304 303 304 304
308 309 308 308 308 308 308 308 309 310 311 313 314 314 314 314 314 314 315 314 313 310 300 299 296 293 290 290 290 290 295 302 301 301 301 301 302 302 302 302 302 303
309 309 309 309 309 310 311 310 310 310 312 313 313 313 312 312 312 312 311 307 305 301 300 298 295 294 293 289 290 290 290 299 301 297 298 299 300 300 300 301 301 301

ECMWFNIL_sfc_thetae_018.txt.gz
Theta_e
327 326 326 326 326 326 325 326 325 324 326 325 323 322 322 324 323 326 326 325 325 323 323 323 322 322 323 321 321 318 319 320 319 319 317 317 316 316 316 315 315 315
326 327 325 325 326 325 326 330 326 325 327 326 326 324 323 324 323 326 324 324 323 323 323 322 322 321 321 320 321 319 318 319 317 319 320 319 317 317 317 315 314 315
326 327 325 325 324 327 325 328 330 327 327 328 328 326 324 324 322 325 324 324 321 322 323 322 322 321 321 321 321 320 319 319 318 319 317 315 317 316 316 315 316 315
327 328 326 326 325 328 326 325 330 328 329 328 329 327 325 324 322 324 324 323 322 321 322 323 322 321 321 320 321 320 319 319 318 318 317 317 316 314 315 315 314 313
328 329 330 329 328 329 327 325 326 327 328 327 329 327 325 324 322 323 323 322 322 321 320 320 321 321 321 319 319 319 318 318 318 318 317 316 316 316 316 316 314 314
330 328 330 332 333 328 330 327 326 327 327 326 326 326 327 324 322 322 322 321 321 321 320 319 319 319 319 318 319 318 317 318 316 318 315 314 313 315 314 316 313 314
331 331 332 332 332 331 330 330 330 330 330 328 325 325 326 325 322 321 321 321 320 320 319 319 318 318 318 317 316 317 315 317 315 314 314 314 314 313 313 313 312 311
332 332 330 330 331 331 328 328 329 330 330 331 329 328 324 325 323 322 322 321 319 319 319 319 318 317 317 317 316 316 315 319 314 313 313 313 312 311 312 314 312 311
329 329 329 329 329 326 328 328 330 330 330 327 327 327 327 324 324 323 322 321 320 320 319 319 318 317 317 317 316 316 314 316 315 313 312 313 311 312 310 310 311 312
323 322 324 327 326 325 325 328 327 328 330 329 329 328 325 327 327 323 322 321 320 319 319 318 318 318 317 317 316 315 315 314 313 313 313 313 311 310 309 310 310 311
321 321 323 325 325 324 326 328 326 325 328 326 327 328 327 324 322 322 321 320 321 320 319 319 319 318 317 317 317 317 316 315 313 312 313 312 312 312 314 310 311 309
324 324 324 324 324 322 322 324 327 326 324 327 325 323 321 321 319 318 319 319 319 320 320 319 319 318 317 317 316 316 316 315 314 313 313 312 311 312 310 310 310 310
326 326 325 324 324 323 323 324 325 326 323 324 324 322 322 321 319 321 321 320 320 319 319 320 320 319 318 317 317 316 315 315 314 313 313 312 312 310 310 310 309 309
317 314 314 315 319 323 325 325 325 324 321 322 323 324 322 321 322 322 320 319 320 320 320 320 320 320 319 318 318 317 315 314 314 313 311 312 312 311 311 309 309 309
317 317 318 317 315 315 318 319 325 324 323 321 321 320 320 320 321 321 320 320 320 321 321 321 319 318 320 318 317 316 316 314 313 312 312 311 310 310 309 309 308 308
314 317 315 315 315 315 316 317 316 320 324 322 321 320 320 319 319 320 319 319 319 320 320 320 319 319 315 310 311 316 315 314 314 313 311 311 309 308 308 307 308 307
315 313 314 314 315 316 317 319 319 321 322 324 322 321 321 320 319 319 319 318 318 316 315 316 317 318 307 301 301 306 314 314 312 312 311 310 308 307 305 305 306 305
313 314 314 315 316 314 316 317 320 322 322 323 322 322 323 323 322 321 321 320 320 317 316 315 318 309 301 298 299 301 307 314 313 311 310 309 307 307 306 305 305 305
311 310 310 314 314 314 316 315 315 316 317 320 320 321 322 320 320 321 321 321 320 317 316 318 313 296 297 297 297 299 301 307 309 309 308 308 307 307 306 305 305 306
314 313 312 314 315 315 315 313 312 312 316 319 319 320 319 319 320 320 321 321 320 319 318 316 306 296 295 296 296 296 298 303 308 308 306 306 307 306 308 308 306 305
309 312 313 312 313 312 313 312 312 314 313 312 314 318 317 316 317 317 319 319 319 319 316 308 306 294 294 294 294 294 296 299 308 309 306 307 307 307 305 306 305 305
312 314 314 314 313 312 310 310 311 312 312 313 314 316 317 317 317 318 317 318 319 318 309 306 301 292 293 293 292 293 296 302 305 304 304 304 304 306 305 304 305 303
313 313 313 313 312 311 310 311 311 312 312 312 311 313 314 315 315 316 316 317 317 315 306 303 297 293 291 291 292 294 297 301 304 302 302 303 303 305 304 304 304 303
310 309 310 312 311 309 309 311 311 310 310 312 310 311 312 313 315 314 315 315 315 313 303 300 297 293 291 291 293 294 297 302 302 302 303 302 302 304 304 302 303 307
311 311 311 311 310 309 311 310 310 309 309 310 309 310 311 313 313 312 313 311 306 303 301 299 295 292 291 290 291 292 298 303 302 300 300 300 301 302 302 303 303 303
311 310 310 309 308 310 311 311 311 310 310 309 309 309 309 311 312 311 307 302 303 301 300 297 294 293 293 290 290 289 290 297 300 300 299 299 299 298 299 301 300 299

ECMWFNIL_sfc_thetae_021.txt.gz
Theta_e
316 317 317 316 316 317 317 316 317 316 315 314 314 314 314 314 315 314 314 313 312 312 313 312 313 313 316 314 314 314 313 312 312 311 311 312 310 309 310 308 308 309
316 318 318 317 317 317 317 317 317 316 316 315 315 314 316 314 314 315 314 314 314 312 312 312 312 312 312 312 312 311 311 309 310 315 312 311 310 310 308 308 308 308
316 317 317 316 316 315 317 317 317 316 318 316 316 316 316 315 315 315 315 313 312 312 312 312 311 312 312 311 312 312 310 310 309 309 310 310 309 308 308 307 306 307
316 316 316 317 317 316 316 319 316 316 318 318 316 317 317 316 316 316 315 319 313 312 311 312 311 312 311 311 312 311 311 310 310 310 310 309 309 308 308 308 308 306
318 316 317 316 318 317 316 318 317 315 317 318 318 317 317 315 315 316 315 314 314 311 312 312 312 311 310 310 311 310 311 310 310 309 308 308 309 309 310 309 306 305
321 321 319 317 318 317 316 315 318 317 316 317 318 317 316 314 315 316 315 314 314 313 312 312 312 312 310 309 309 308 310 310 309 310 309 307 306 308 311 308 306 306
321 320 320 321 318 318 318 317 316 317 317 316 319 317 316 315 315 316 316 315 315 314 313 312 311 311 310 309 309 309 308 309 308 309 308 307 307 307 308 308 307 307
320 319 319 320 320 320 319 318 318 319 319 318 316 316 318 316 315 316 316 316 314 315 314 314 313 312 310 310 308 309 307 311 309 308 308 308 306 304 306 309 304 304
319 320 321 319 318 319 319 320 320 319 319 318 317 316 316 317 316 316 316 316 315 315 314 314 314 312 311 311 310 310 307 309 309 306 306 306 305 305 306 306 306 306
318 319 321 320 319 318 318 318 318 318 318 316 314 314 317 317 317 317 316 315 315 315 314 314 314 313 312 312 312 311 310 310 308 307 306 306 306 306 306 305 304 305
316 316 318 319 319 320 319 318 319 320 319 318 317 316 319 317 316 315 315 315 316 315 315 314 314 313 313 312 312 312 311 310 309 308 307 307 306 306 309 305 305 305
314 315 317 317 318 317 318 319 320 320 320 320 320 319 316 317 316 316 316 316 315 314 314 314 314 314 314 313 313 313 312 311 309 308 308 308 307 307 305 305 305 303
315 316 316 316 315 315 314 315 318 319 319 318 318 317 318 317 317 316 316 316 316 316 314 316 315 315 315 316 315 313 312 311 309 308 308 308 307 307 305 306 305 304
307 307 306 310 313 315 315 314 317 318 318 318 317 316 316 316 317 317 317 317 316 315 315 314 314 315 315 316 317 315 312 311 310 310 309 308 307 306 306 306 305 305
307 307 308 306 306 308 313 316 317 318 318 317 316 316 317 317 316 316 316 317 316 315 315 314 316 316 317 317 316 316 314 311 311 311 309 308 306 305 305 305 304 304
306 306 306 305 305 306 307 307 315 319 318 316 316 316 317 317 316 317 317 316 316 316 315 315 315 316 314 309 310 315 314 313 312 311 310 308 307 304 303 303 304 304
305 307 306 307 306 306 306 308 309 313 317 317 316 315 316 315 315 315 315 316 315 314 313 314 315 316 307 303 302 304 312 312 311 309 309 308 306 304 302 302 303 305
303 305 306 306 308 308 307 308 309 309 310 313 315 315 315 315 314 315 315 315 315 314 314 314 314 309 303 301 300 299 302 311 310 309 308 307 306 304 303 302 303 304
302 301 301 302 305 304 304 303 303 303 305 307 309 314 316 315 315 315 315 315 314 313 313 313 312 307 301 300 299 298 298 306 310 309 307 306 305 304 303 302 302 303
301 301 301 301 302 301 301 300 301 300 303 303 303 305 307 310 313 314 314 313 314 313 313 311 310 305 300 299 299 297 296 302 307 307 306 305 305 304 304 302 302 302
302 301 301 302 301 300 300 301 301 302 302 302 302 303 305 305 306 306 308 309 309 311 310 307 307 296 294 295 295 295 296 300 304 304 303 303 304 303 301 300 300 303
301 300 301 301 300 300 300 300 299 300 300 300 301 300 303 303 304 306 306 306 308 306 304 301 295 292 292 293 294 295 298 303 302 301 301 302 301 300 299 299 300 300
300 300 300 300 300 300 300 300 300 300 299 300 299 298 299 301 304 303 303 305 304 303 301 296 292 292 292 293 294 295 297 300 300 298 298 298 298 299 299 300 301 301
299 299 300 300 300 300 299 299 300 299 299 299 300 299 299 300 302 303 303 303 303 302 300 295 290 291 292 293 294 295 297 299 298 298 296 296 298 300 300 300 303 307
300 300 300 300 300 300 301 301 300 300 299 300 299 299 299 300 302 301 297 297 299 299 300 294 290 291 292 292 293 295 298 298 298 297 296 296 297 298 300 300 295 294
300 300 299 299 299 298 299 300 299 301 301 300 299 299 300 298 297 297 296 294 295 297 296 292 290 289 291 291 292 293 295 299 298 296 294 293 293 294 294 294 293 291

ECMWFNIL_sfc_thetae_024.txt.gz
Theta_e
316 316 315 314 313 314 313 313 311 310 310 310 310 310 309 310 310 310 310 309 309 309 309 310 311 311 313 311 311 311 310 309 308 308 308 308 306 306 307 305 305 304
317 317 316 315 315 314 313 314 312 311 310 310 311 311 311 311 310 310 309 310 309 308 308 309 309 310 309 310 308 308 307 308 308 312 309 307 305 305 305 304 303 303
317 317 316 315 315 315 314 314 313 312 311 311 311 312 312 312 311 309 310 309 309 308 308 307 308 309 309 307 308 309 308 306 306 307 309 305 305 305 303 303 303 302
317 317 316 316 316 316 315 315 313 313 311 312 312 313 313 314 312 310 310 315 309 308 307 307 308 307 308 308 308 308 306 306 306 307 307 306 307 305 305 305 304 303
316 317 317 316 316 316 316 315 314 314 313 313 312 313 313 313 312 311 311 309 309 308 308 308 307 307 308 308 308 307 306 306 305 305 305 304 306 306 306 305 303 304
317 317 318 318 316 315 316 316 314 315 314 313 313 314 312 313 313 312 311 310 309 310 309 308 308 308 307 307 307 308 308 307 305 306 305 304 305 305 307 304 303 302
317 317 317 317 317 315 316 316 314 315 315 315 314 313 312 313 313 312 312 311 310 311 311 310 309 308 306 306 307 306 306 306 306 307 305 303 304 304 305 304 305 304
317 317 317 316 316 315 315 315 314 314 315 315 314 314 314 314 315 314 313 312 311 310 310 311 310 310 308 307 308 306 305 308 306 307 305 304 303 303 303 305 302 303
316 316 317 317 317 316 316 317 316 316 317 315 314 314 314 314 315 315 314 313 313 312 310 310 311 310 310 308 308 308 306 307 307 306 305 305 303 302 303 303 302 303
315 313 315 316 316 316 317 317 317 316 317 316 316 315 315 314 313 314 314 313 313 313 312 311 311 310 310 309 308 308 307 307 307 305 305 306 305 303 304 303 302 302
314 313 313 313 315 317 317 316 316 316 316 316 316 317 316 316 315 315 314 314 313 312 313 312 312 311 311 310 309 308 308 307 307 306 305 305 305 304 307 304 303 303
313 312 313 315 315 314 315 315 316 316 315 314 313 316 316 315 315 315 315 314 313 312 312 313 313 312 311 311 310 309 309 308 308 306 306 306 305 304 306 304 304 304
312 312 314 314 314 314 313 312 313 314 314 314 315 316 315 314 313 313 313 313 313 312 312 311 312 312 312 311 310 309 309 308 308 306 306 306 305 305 305 304 304 304
311 311 312 313 314 313 312 312 313 312 313 312 313 313 313 313 314 315 314 314 314 314 314 313 312 312 313 313 312 311 309 308 308 307 306 306 305 305 304 304 304 304
305 305 306 309 312 312 311 310 311 311 312 311 310 311 312 312 312 313 313 312 312 313 313 312 313 313 314 313 313 312 310 309 309 308 307 306 305 305 303 303 303 303
304 305 304 304 304 305 305 306 309 311 310 310 311 310 309 309 310 310 310 311 312 312 312 312 313 313 313 308 309 313 312 311 310 309 308 307 306 304 303 303 303 302
303 303 303 302 301 301 302 303 305 309 309 310 310 309 309 309 310 310 310 311 311 311 311 312 313 314 306 302 301 304 312 311 310 310 309 308 307 305 303 303 302 303
302 303 303 303 303 302 303 303 304 305 306 307 308 309 310 309 309 311 310 309 310 310 310 311 312 309 303 301 299 298 303 312 311 310 309 308 307 306 305 304 303 303
299 300 301 300 300 302 302 302 302 303 303 303 305 308 308 308 310 307 309 309 308 309 310 311 311 306 302 300 299 298 297 303 310 308 307 307 306 305 304 303 303 303
297 297 297 298 299 299 298 298 297 298 299 299 300 300 303 304 305 306 306 306 308 309 310 309 309 306 301 299 299 298 296 297 308 308 307 306 306 304 304 303 303 302
297 297 298 298 297 297 296 296 296 296 296 296 296 298 299 300 300 302 304 305 305 307 307 307 303 295 296 297 296 296 295 294 304 305 304 303 303 302 302 302 302 303
297 297 297 297 296 295 296 296 295 297 298 297 295 294 295 296 297 298 299 300 301 303 304 301 291 292 293 294 295 294 295 300 300 300 300 300 300 300 301 301 302 301
297 296 297 296 296 296 297 296 297 297 296 296 295 293 294 295 294 296 297 300 299 301 300 292 290 291 292 292 293 294 297 298 298 298 298 298 298 299 300 299 299 299
296 296 296 296 295 296 295 295 295 295 295 295 298 296 295 294 294 297 294 296 298 299 299 295 290 292 293 293 294 295 297 297 296 296 296 297 298 299 298 297 300 305
296 296 296 296 296 294 295 295 295 296 296 295 295 295 295 293 295 294 293 292 294 296 301 294 289 292 293 293 294 294 297 296 296 296 296 297 297 295 294 293 293 295
295 296 296 295 295 294 294 296 295 296 297 298 295 295 294 291 291 290 289 289 291 290 292 290 290 290 292 292 294 294 295 297 296 295 294 293 293 293 292 291 291 291

ECMWFNIL_sfc_thetae_027.txt.gz
Theta_e
315 315 315 314 313 312 309 308 306 306 305 306 305 304 305 306 308 306 306 306 306 307 307 308 309 309 310 308 308 308 307 306 306 304 305 306 303 304 304 302 302 303
315 315 316 315 313 313 310 308 308 308 306 306 306 306 305 306 307 307 306 306 307 306 306 307 308 307 307 307 305 306 305 306 307 308 305 303 302 302 302 301 301 301
315 315 314 314 314 313 311 310 308 307 308 307 307 307 307 308 306 306 306 305 305 305 306 307 306 306 306 305 306 307 306 305 305 303 305 303 302 303 300 301 301 301
316 315 315 315 315 314 313 312 309 308 307 307 308 308 308 310 307 306 306 312 305 304 304 305 306 305 305 304 305 304 304 304 304 304 305 303 304 303 301 302 302 301
316 315 315 316 315 315 314 313 312 310 308 309 308 308 310 309 306 306 306 306 305 304 304 305 304 305 305 306 305 304 304 304 303 303 303 303 302 304 303 303 301 301
315 316 316 316 315 315 314 314 314 312 311 308 310 311 310 309 308 307 307 305 305 305 305 304 304 304 304 304 304 304 305 305 303 303 303 303 302 302 304 302 301 301
314 315 315 316 315 316 315 315 314 313 312 311 310 311 310 310 310 309 308 307 306 307 305 305 305 305 304 304 304 303 303 303 302 302 303 302 302 302 303 301 302 301
313 313 313 314 315 315 316 315 313 313 313 310 311 312 311 311 311 310 309 308 307 306 306 306 306 306 304 305 306 304 303 305 304 302 302 302 301 301 302 302 301 301
313 312 313 314 316 316 315 314 313 313 314 313 312 312 312 311 312 311 310 309 309 309 309 308 307 306 305 305 305 305 305 303 304 302 302 301 301 300 301 300 300 301
311 313 314 313 314 315 314 315 315 315 315 315 314 312 311 311 311 312 312 310 311 311 310 309 308 307 307 305 306 306 306 306 304 303 303 302 302 301 301 301 301 300
313 313 313 312 312 313 313 315 315 315 315 316 315 314 314 314 313 313 312 312 311 310 309 309 309 308 308 307 306 305 305 306 305 304 303 304 304 302 305 301 301 301
311 311 312 312 312 312 312 314 314 314 313 313 314 315 315 314 313 313 314 313 311 310 309 310 310 309 308 308 307 306 305 304 305 305 304 304 304 303 303 302 302 301
310 311 311 312 313 313 312 314 314 313 312 312 313 313 313 313 313 314 314 314 313 312 312 311 310 310 310 309 308 307 307 306 305 304 304 304 305 304 304 303 302 302
307 310 311 310 312 312 311 312 312 311 312 312 312 312 312 312 313 313 314 312 313 313 313 312 312 311 311 310 309 308 308 307 307 306 305 304 304 305 305 304 303 303
307 307 311 311 312 311 311 311 312 313 311 310 311 312 313 313 314 314 313 311 310 310 310 310 309 311 313 312 312 311 309 308 308 308 307 305 305 305 305 305 304 304
309 308 310 310 309 310 311 312 312 312 311 310 311 312 310 310 311 312 312 312 310 309 308 308 309 310 311 307 308 311 310 310 309 308 308 307 307 306 305 304 305 304
304 306 306 309 309 309 308 308 309 310 309 309 309 309 310 309 310 311 311 310 309 308 308 309 310 311 305 302 300 303 310 309 308 308 308 308 307 307 306 305 304 304
302 303 302 303 302 304 302 302 303 304 307 309 309 309 309 308 308 309 308 307 308 308 308 309 309 307 303 302 299 298 302 308 308 309 308 308 308 307 307 306 304 303
298 300 301 300 300 301 301 301 302 302 301 301 302 303 303 305 306 305 306 306 307 307 307 307 307 305 301 300 299 298 297 301 308 308 308 308 307 307 306 305 303 303
295 296 296 296 296 296 296 296 297 297 296 296 297 297 298 300 299 301 301 301 302 303 304 303 303 301 296 296 296 296 295 296 303 305 306 306 306 306 306 304 302 302
295 295 295 295 294 295 294 294 294 294 295 295 294 295 295 296 296 297 298 299 299 301 300 301 302 293 293 294 295 295 294 294 299 301 301 301 302 302 301 301 301 302
295 294 295 294 294 293 294 293 293 293 294 295 292 292 292 291 292 293 294 296 296 296 299 299 295 293 293 294 294 295 294 296 296 298 298 297 296 297 298 299 301 301
295 295 295 294 293 293 293 293 294 293 292 293 291 290 292 292 293 294 293 292 296 295 297 295 291 292 292 293 293 293 295 295 295 296 295 295 294 294 295 296 298 298
296 295 296 295 293 294 294 292 293 294 293 294 294 292 293 293 293 291 291 292 294 295 294 295 292 291 292 292 292 294 296 295 294 294 293 294 293 292 293 294 299 304
295 294 294 295 295 294 293 292 293 294 294 291 292 293 292 291 292 291 289 289 289 290 298 291 287 290 293 291 293 293 296 295 295 294 293 291 291 290 290 290 291 295
296 298 295 295 295 293 293 294 294 294 293 291 290 291 291 288 289 288 288 286 286 286 288 287 288 288 290 292 293 294 294 295 295 294 292 290 290 291 290 290 290 291

ECMWFNIL_sfc_thetae_030.txt.gz
Theta_e
315 314 313 313 312 312 309 308 306 305 304 304 305 304 305 306 309 307 307 307 308 307 308 308 309 310 310 308 309 308 308 307 307 306 306 306 305 306 306 305 306 306
314 315 315 314 313 312 309 309 307 307 306 305 304 305 305 307 306 307 305 306 307 306 307 307 308 307 307 307 307 307 307 307 307 308 305 305 304 305 304 305 305 305
313 314 314 313 313 311 309 309 308 307 308 306 306 306 307 309 306 306 305 307 305 306 306 307 307 307 306 306 307 308 306 305 305 305 306 304 304 304 303 304 304 305
314 314 314 314 314 312 311 311 310 309 308 308 308 309 309 311 307 307 306 312 305 305 305 306 306 306 306 306 306 306 305 305 305 306 305 305 306 304 303 305 304 304
314 314 315 315 315 314 313 313 312 310 308 309 308 309 311 310 307 307 306 306 306 305 306 307 306 306 307 306 306 306 307 305 305 305 305 304 305 305 305 305 304 303
314 314 314 315 315 314 313 313 311 311 310 309 310 311 309 308 307 307 307 306 306 306 306 306 306 306 306 305 304 305 306 305 304 304 305 306 305 305 304 304 304 303
314 314 314 315 314 314 313 313 313 313 311 310 310 310 309 309 308 307 307 307 306 308 307 306 306 306 306 305 306 305 304 304 304 304 304 304 306 304 304 304 304 303
313 313 314 313 313 313 313 313 313 312 311 310 309 309 309 309 309 309 309 308 307 307 307 306 307 307 306 306 306 305 306 306 304 304 304 303 304 304 304 305 304 303
313 312 312 312 313 313 313 313 313 312 313 311 310 310 310 310 311 310 310 310 309 309 309 309 308 308 306 306 306 306 306 306 306 304 305 304 304 304 303 303 304 304
312 312 312 313 313 312 312 312 312 312 313 314 312 311 310 311 312 312 312 312 312 311 311 310 309 309 308 307 307 307 306 306 306 305 305 305 305 304 303 304 304 303
311 311 312 312 312 312 312 313 313 314 314 315 314 313 312 312 313 313 313 313 313 312 311 310 310 310 309 308 307 307 307 307 306 306 306 306 305 304 305 304 304 305
310 310 311 312 312 312 312 313 314 314 314 315 315 314 313 313 313 313 314 314 314 313 312 312 312 311 309 310 309 308 307 307 307 307 306 306 306 305 305 305 305 304
309 310 310 311 312 312 313 313 313 313 313 313 314 314 313 312 312 313 313 313 314 314 314 314 313 311 310 310 310 310 309 308 307 307 307 306 306 306 305 305 305 305
309 309 310 311 311 311 311 311 311 312 313 313 314 313 313 313 313 313 312 313 313 313 314 314 313 312 312 311 311 311 310 309 308 307 307 307 307 306 306 306 306 305
308 308 309 309 309 310 309 310 311 311 312 313 313 313 314 314 313 313 313 312 311 311 312 312 312 312 313 312 311 311 310 309 309 308 307 307 306 306 307 307 307 306
307 307 308 307 308 308 309 308 309 311 310 309 309 310 310 310 311 311 311 311 311 311 311 311 311 312 311 306 307 312 310 310 309 309 308 308 308 307 307 307 307 307
306 307 306 307 306 307 307 308 309 310 310 310 309 309 309 310 309 309 309 310 310 310 310 310 311 311 305 301 300 301 309 310 309 309 308 308 308 308 307 307 306 306
303 305 305 306 305 306 305 306 306 307 308 308 308 308 309 308 307 308 308 309 309 309 309 310 311 307 301 299 298 297 301 309 309 309 309 308 308 308 308 308 308 307
301 302 302 302 303 303 302 301 303 304 304 305 307 309 308 307 309 307 307 307 307 308 309 310 309 303 296 296 295 295 295 301 309 309 309 309 308 309 309 308 307 307
299 301 300 300 299 299 300 300 300 300 299 299 300 302 303 304 306 307 307 306 307 307 307 306 305 301 294 294 293 293 293 296 306 307 307 308 308 308 308 307 307 306
296 297 297 297 297 297 297 297 297 294 296 296 297 298 298 299 299 300 301 302 302 302 303 303 303 295 291 292 292 292 292 293 303 303 304 304 304 304 305 305 305 305
296 295 296 295 294 294 295 295 295 296 296 295 294 293 293 294 294 295 295 295 295 296 297 297 297 292 291 292 293 292 292 298 300 301 300 298 297 298 300 301 302 303
297 298 297 296 294 295 294 295 295 294 294 294 294 293 295 296 295 294 292 292 294 295 297 295 294 293 291 291 293 291 295 297 298 297 296 295 295 295 296 298 301 300
295 296 297 297 295 296 296 296 295 295 295 296 296 296 297 296 295 292 290 292 294 295 297 296 294 292 292 292 292 293 296 297 297 296 294 294 293 293 293 295 299 303
296 296 296 296 295 296 296 295 296 297 295 295 295 297 298 296 294 292 290 289 290 292 297 291 290 292 292 292 292 293 296 297 297 296 294 292 292 292 292 292 293 296
297 298 296 296 296 295 295 295 295 295 295 294 293 294 294 292 292 290 290 288 288 288 289 290 291 290 292 292 293 293 294 297 297 296 293 291 292 292 292 292 292 293

ECMWFNIL_sfc_thetae_033.txt.gz
Theta_e
326 327 326 325 324 324 322 322 322 322 322 322 321 321 320 322 322 322 322 323 323 323 322 322 322 322 321 321 321 321 320 321 320 320 320 320 319 320 319 319 320 318
325 325 324 325 323 322 323 324 323 322 322 322 322 321 322 323 322 323 322 322 322 322 322 322 321 320 320 320 321 321 319 320 318 318 320 319 318 318 319 319 318 319
324 324 324 324 323 323 322 322 321 322 323 322 323 323 322 324 323 323 323 323 322 322 323 323 322 321 320 320 320 320 319 318 318 318 319 317 319 318 318 318 317 319
324 324 325 325 324 323 324 322 321 319 320 320 322 322 323 323 324 323 324 322 323 322 323 323 322 321 320 320 320 319 319 318 317 319 318 318 318 317 318 318 317 316
324 323 324 325 325 325 324 323 320 318 318 322 323 322 322 323 322 322 322 321 323 322 322 322 321 321 321 320 320 318 319 317 317 319 316 316 317 318 317 317 316 315
324 323 323 323 324 324 323 323 320 318 319 321 323 323 323 324 322 321 321 320 321 321 321 321 320 320 320 321 321 319 318 317 317 318 315 315 315 316 314 316 315 314
323 323 323 323 323 324 324 324 322 319 321 322 321 322 322 322 321 320 319 320 319 319 319 320 320 320 320 321 320 320 319 318 316 316 314 315 315 315 315 315 313 313
324 324 324 323 324 324 325 325 322 321 321 320 321 321 322 321 321 321 321 319 319 318 319 318 318 318 318 319 318 319 320 319 318 315 315 315 316 313 315 314 315 312
324 323 323 324 324 324 324 324 323 321 320 321 321 321 321 322 321 322 321 320 319 320 319 319 318 318 319 318 318 317 317 318 319 317 316 315 315 314 313 314 314 314
323 324 324 324 323 324 324 324 324 323 322 321 321 322 321 322 323 322 321 321 321 320 320 320 320 320 319 319 318 318 317 316 317 317 316 317 315 314 314 315 315 314
323 323 323 324 325 324 325 324 324 325 323 321 322 322 323 322 322 321 322 321 322 321 320 320 320 320 319 320 321 320 317 316 316 316 316 316 316 317 316 316 315 315
322 322 322 323 324 324 325 325 325 324 323 323 323 322 322 322 321 322 322 321 320 320 321 321 321 321 320 320 320 319 319 318 317 316 317 317 317 317 316 317 316 315
322 322 323 324 324 324 325 324 324 325 324 323 323 323 323 322 320 319 320 320 321 322 321 320 320 320 321 321 320 319 318 317 317 317 316 315 315 317 318 318 316 316
322 323 324 324 324 324 323 323 324 324 324 324 323 322 322 322 321 320 321 321 321 322 322 321 320 321 322 322 321 321 320 319 319 319 318 317 316 316 317 318 317 317
322 322 323 323 322 321 321 321 322 322 322 322 322 323 323 323 322 322 321 320 321 322 321 322 322 322 323 323 323 321 320 320 320 319 318 317 317 317 317 317 317 317
320 321 321 321 320 320 321 321 321 321 321 321 321 322 323 323 323 323 323 322 320 321 321 320 320 322 317 308 310 320 320 319 319 319 319 318 318 319 319 318 318 318
319 320 320 320 320 320 319 320 320 321 321 321 321 322 321 320 322 321 321 321 320 320 320 321 322 321 306 301 299 301 316 321 320 320 319 319 319 319 319 320 320 318
317 318 319 319 319 319 320 320 321 321 321 321 321 321 321 321 320 320 320 321 321 321 321 322 322 309 301 299 298 295 301 319 321 321 320 319 320 319 319 319 319 319
315 317 317 318 318 318 319 319 319 320 321 320 320 321 320 318 320 320 320 320 320 320 320 321 322 301 294 295 296 295 294 304 321 322 321 321 320 320 320 319 319 318
313 314 315 316 316 317 317 317 317 317 319 320 319 317 315 315 314 316 317 318 318 319 319 319 320 297 295 294 294 292 292 296 321 323 323 322 321 320 320 320 319 319
307 308 310 311 311 312 314 314 314 314 313 314 314 314 315 314 314 316 315 315 314 314 316 315 313 292 293 292 292 292 291 295 317 318 319 320 319 318 317 317 318 318
308 307 307 308 309 310 311 312 312 312 312 312 312 313 313 313 313 315 314 313 311 312 314 313 309 291 291 292 292 291 292 310 313 314 317 316 314 312 312 313 314 315
307 308 308 309 308 307 307 310 311 310 310 311 312 312 312 312 312 311 310 309 307 308 313 313 310 296 290 291 292 291 299 316 316 315 313 311 310 309 310 311 312 312
307 307 308 307 307 308 307 307 307 307 307 307 308 308 310 311 309 307 307 309 311 313 313 315 311 297 291 292 291 291 304 317 315 313 311 309 307 307 308 308 305 302
307 307 306 307 306 307 308 307 307 308 308 308 311 311 310 309 308 309 308 307 307 307 300 310 311 301 291 291 291 292 305 316 313 312 309 308 306 304 305 305 303 299
307 307 309 309 308 309 307 306 307 308 308 309 310 311 309 308 308 308 308 305 303 304 304 306 308 307 299 291 292 293 297 313 313 311 308 306 306 304 303 303 302 300

ECMWFNIL_sfc_thetae_036.txt.gz
Theta_e
332 332 330 327 325 325 324 323 322 322 322 322 322 323 323 325 325 325 325 325 323 322 322 323 323 324 324 325 325 321 321 323 322 323 322 322 322 322 321 321 322 318
333 332 329 328 325 325 325 325 323 322 322 322 323 323 325 326 325 324 323 322 322 321 321 321 321 322 322 322 323 321 320 321 320 320 320 320 319 319 320 321 320 320
333 332 330 327 324 326 326 326 325 323 323 322 324 325 325 326 325 324 323 323 322 323 322 321 321 321 321 322 322 321 320 320 319 319 319 318 319 319 321 319 320 320
333 332 330 328 326 327 327 326 325 324 325 323 323 324 325 325 326 325 324 323 323 324 324 322 322 320 319 320 321 319 320 319 319 320 318 319 319 319 320 320 320 320
332 330 330 329 327 327 327 327 326 327 326 325 324 324 323 325 324 323 324 324 324 323 324 323 322 322 321 320 319 320 319 318 321 320 317 318 319 320 320 320 319 318
331 330 330 328 326 327 325 327 324 322 324 326 325 323 324 324 322 322 323 323 323 322 323 323 322 322 322 322 321 320 319 317 319 319 317 317 317 319 317 319 318 317
331 331 331 329 327 327 325 325 323 324 324 326 325 324 324 323 322 322 321 322 322 321 322 323 322 322 323 323 322 321 319 318 318 317 315 316 316 316 316 317 315 314
331 332 331 331 330 328 328 326 323 325 327 327 327 327 325 323 322 323 322 321 320 321 322 322 322 322 323 323 322 322 322 321 320 318 317 316 318 315 316 315 317 315
331 331 330 331 331 329 327 324 323 325 327 326 326 325 326 324 324 324 322 322 321 321 321 321 321 321 323 322 322 322 321 322 322 321 320 319 318 317 315 317 317 317
329 329 330 330 330 329 327 327 326 324 323 326 326 326 324 325 324 324 323 323 323 323 322 322 322 323 323 323 322 322 321 321 321 322 321 321 320 319 317 317 317 318
328 328 328 329 329 328 329 327 329 325 323 322 326 327 326 326 326 325 324 323 324 323 323 324 324 324 324 324 325 325 323 322 322 322 322 321 321 321 319 320 319 319
327 328 327 328 328 329 329 329 330 329 327 325 324 325 326 327 327 326 325 324 324 323 324 324 324 325 325 324 325 325 325 325 325 324 323 322 321 321 319 320 320 319
325 326 327 326 327 328 328 327 328 329 328 325 325 325 326 326 326 326 327 326 325 325 325 325 325 325 325 325 325 325 325 325 326 324 323 323 324 323 322 321 320 320
328 327 327 327 327 326 326 326 326 327 327 326 326 325 325 325 325 326 327 327 327 327 326 327 326 326 325 325 324 325 325 325 325 325 323 324 325 324 324 323 322 321
327 327 327 326 326 326 325 325 326 326 327 327 328 328 327 326 326 326 327 326 327 327 327 327 327 326 326 326 326 325 326 326 326 326 325 325 326 326 325 325 324 324
326 326 325 326 325 324 325 325 326 328 329 329 328 328 328 327 326 327 326 326 325 325 327 328 327 327 323 312 314 325 326 324 326 325 324 325 325 325 325 324 324 324
324 324 325 325 324 325 325 324 324 326 328 327 327 326 327 327 326 325 325 326 325 325 326 327 327 325 303 302 302 303 321 327 326 326 327 326 326 326 325 325 325 324
322 322 322 323 324 324 324 324 324 324 325 326 326 326 327 327 326 325 325 326 326 325 325 326 327 304 295 296 296 297 303 326 327 326 327 327 327 326 325 324 324 324
323 323 323 324 324 324 324 324 324 323 324 325 324 322 323 321 321 323 322 323 324 323 322 323 326 296 296 294 296 294 295 306 327 327 325 325 325 324 324 323 323 323
318 319 320 322 323 323 323 323 324 324 325 325 322 320 322 321 321 319 320 321 321 322 322 323 323 297 295 293 294 293 293 300 326 324 322 321 321 321 322 320 321 320
312 312 314 316 320 322 323 323 323 324 323 323 322 321 320 320 318 317 318 319 320 322 322 323 319 292 293 292 292 292 291 300 323 322 319 319 320 321 321 322 322 322
311 311 312 312 314 316 318 319 321 321 321 321 320 320 321 320 320 320 319 319 320 320 321 321 315 291 291 291 291 292 293 321 321 319 317 317 318 319 319 320 321 322
310 310 310 312 312 312 312 314 317 318 319 319 318 318 319 318 318 319 320 319 319 320 319 320 319 297 290 291 292 291 300 321 319 317 318 317 318 318 318 318 317 317
311 310 310 310 311 310 310 313 316 318 318 317 316 316 315 316 316 316 316 316 316 316 317 316 320 300 289 292 291 293 303 319 317 317 317 316 316 317 317 313 307 298
311 311 311 311 311 311 313 313 315 316 316 317 315 315 315 314 312 312 312 313 314 314 307 314 317 305 290 291 291 293 303 322 316 316 316 315 315 314 315 313 309 303
309 310 310 311 311 312 313 314 314 314 315 313 313 312 310 309 309 310 310 309 313 312 315 315 315 316 305 290 292 292 292 315 317 315 315 315 314 313 312 311 309 306

ECMWFNIL_sfc_thetae_039.txt.gz
Theta_e
331 330 327 325 325 325 326 324 325 325 325 325 324 324 322 323 323 323 323 323 322 322 322 324 324 324 324 324 323 320 321 322 321 321 320 319 320 321 320 321 321 319
330 330 327 326 324 325 325 326 326 325 325 325 325 324 324 322 322 321 320 321 320 320 321 322 323 323 322 322 323 321 320 321 319 319 321 320 319 320 321 321 320 319
331 330 327 326 324 325 325 326 326 325 324 325 326 325 323 323 322 322 322 321 320 320 321 321 321 321 321 321 321 320 319 318 318 319 319 318 320 320 320 321 321 321
331 331 328 325 325 326 326 325 325 324 325 325 324 324 323 323 323 322 322 322 321 321 321 321 321 321 320 321 321 319 319 318 318 320 319 320 320 319 320 321 321 320
332 331 328 325 325 326 326 325 323 323 323 324 325 324 323 323 322 321 322 323 323 321 322 321 321 321 321 320 319 318 319 319 320 320 319 318 320 320 320 321 320 319
332 329 329 325 324 325 325 324 324 324 323 324 324 323 323 323 321 321 322 322 322 322 322 322 321 321 321 320 321 320 319 318 319 319 317 318 318 319 317 319 318 317
331 330 330 327 323 324 324 326 326 327 326 325 323 322 323 322 321 321 321 322 321 321 321 323 322 322 323 322 321 320 319 319 319 317 315 315 315 316 316 317 316 315
331 331 331 328 325 323 324 324 321 323 326 326 324 322 322 321 320 321 322 322 320 320 321 320 322 322 323 323 320 320 320 320 319 318 318 317 318 316 315 316 318 317
331 329 330 329 326 322 323 322 322 322 324 326 326 323 322 321 320 321 321 320 320 321 320 321 321 321 324 323 322 321 320 321 322 320 319 318 318 316 316 317 318 317
330 330 330 329 328 325 326 323 323 325 324 326 325 325 322 322 322 320 320 320 320 320 320 321 321 322 322 322 322 322 321 321 322 323 321 321 319 317 317 317 318 318
328 329 328 330 330 328 326 325 322 324 324 321 324 322 323 323 323 321 320 320 321 319 320 320 321 322 322 323 324 324 323 323 322 322 322 321 322 322 322 321 320 319
329 329 328 327 329 328 327 326 324 322 322 323 323 322 322 323 322 321 320 320 320 320 320 320 321 322 323 323 324 325 324 324 324 324 323 322 323 323 321 322 322 321
328 329 329 329 329 329 329 327 326 324 321 319 322 323 322 322 322 321 322 321 320 320 320 322 322 322 323 324 326 325 325 324 325 325 324 324 323 323 322 322 322 322
329 329 329 331 329 329 329 328 327 326 325 323 321 322 322 321 321 320 321 320 323 323 323 323 322 323 324 325 326 326 326 326 326 325 324 323 324 323 325 323 323 323
328 328 328 329 327 327 327 326 327 328 328 327 325 324 323 322 321 322 323 323 323 325 324 325 325 326 326 326 325 323 325 324 325 325 324 324 325 325 325 325 325 325
327 327 327 327 327 326 326 326 326 326 325 325 326 326 325 326 322 322 321 324 322 323 325 327 327 328 326 313 314 327 326 325 326 326 326 326 325 324 325 324 324 325
326 326 326 326 326 326 327 325 325 326 326 326 326 325 324 322 324 324 322 326 326 323 325 326 327 322 304 307 307 306 322 327 326 326 324 325 325 323 322 324 324 323
324 324 324 325 325 325 325 324 324 325 325 325 324 323 321 322 321 320 321 320 322 323 324 323 321 306 299 303 303 301 304 322 326 326 322 321 321 320 321 322 321 322
323 323 323 323 324 324 324 325 325 325 323 322 323 323 322 321 321 323 324 324 325 324 324 323 323 301 295 297 297 297 296 304 324 316 319 317 317 321 321 323 322 323
320 321 322 323 324 324 324 324 325 325 326 325 326 324 323 324 325 325 325 325 325 324 325 324 326 298 296 295 298 294 295 300 324 322 320 318 319 321 321 322 322 322
313 313 315 317 319 322 323 324 325 326 326 326 326 325 323 323 324 324 324 324 324 324 323 322 321 293 295 294 295 293 294 296 321 323 320 319 319 321 320 320 319 319
313 313 313 313 314 315 316 317 320 323 324 326 324 323 324 324 324 324 323 323 324 323 322 323 314 292 293 292 293 293 292 310 322 322 319 318 318 318 317 318 319 319
313 312 313 313 313 313 313 314 316 318 319 320 320 320 320 320 321 320 320 321 321 323 321 322 320 297 293 292 292 293 296 318 320 316 315 316 317 315 318 320 318 317
313 312 312 312 313 312 312 313 314 316 317 319 318 317 318 319 320 318 320 321 319 320 321 322 322 303 292 293 293 292 300 319 317 315 316 316 316 317 317 313 309 300
311 311 312 312 312 313 314 314 314 314 315 318 316 317 317 318 318 317 318 318 319 318 316 318 321 305 291 292 292 294 298 317 318 315 316 316 315 315 315 314 311 304
309 310 311 311 312 313 314 314 314 315 316 316 315 315 315 315 314 313 313 314 316 317 318 317 319 315 302 291 293 293 294 316 317 314 315 316 316 314 313 312 310 307

ECMWFNIL_sfc_thetae_042.txt.gz
Theta_e
330 330 331 330 332 331 331 332 331 329 331 329 325 325 326 328 325 325 326 326 326 325 326 327 327 326 325 323 321 318 319 320 320 320 319 320 320 320 320 320 319 320
329 331 328 330 331 329 333 333 330 331 331 329 328 326 326 327 327 324 323 323 324 325 326 326 326 325 323 322 323 321 321 321 319 321 321 320 319 320 320 320 320 320
331 330 327 328 328 328 331 333 333 333 329 329 328 326 325 327 324 326 326 323 322 324 323 322 322 323 324 323 322 320 318 318 318 321 320 319 321 319 320 320 320 318
331 329 327 329 328 328 329 331 332 331 330 327 326 325 325 325 327 326 324 324 324 324 325 326 326 324 320 322 322 321 321 319 320 322 320 320 319 319 320 320 319 318
330 329 327 327 327 328 327 327 328 329 329 327 327 325 324 325 325 324 324 324 324 323 323 323 324 324 323 320 319 320 322 322 321 319 318 317 318 318 320 319 317 318
330 329 326 325 326 326 326 325 325 326 327 327 326 325 324 325 324 323 324 322 322 322 323 323 324 324 322 324 323 322 320 320 320 321 319 319 319 320 318 320 316 315
329 330 328 326 327 327 326 325 326 324 326 327 325 327 324 324 323 322 321 323 321 321 320 323 323 324 325 324 323 321 322 322 321 317 313 315 316 317 316 317 316 315
330 329 330 326 325 326 326 327 327 326 328 325 325 327 324 322 321 324 323 322 320 320 321 321 322 322 324 324 320 322 321 324 323 320 317 319 319 312 316 321 318 313
329 328 330 326 325 324 326 324 326 327 326 326 325 326 325 324 323 324 323 322 322 322 320 321 321 323 326 323 322 321 320 322 323 320 320 318 319 317 314 318 318 317
327 329 329 327 323 324 326 323 324 325 327 326 325 322 321 326 325 321 323 324 322 321 321 322 322 325 325 322 321 322 322 322 322 322 321 321 320 318 316 317 319 317
328 329 329 328 324 324 326 323 324 324 325 325 330 325 322 325 322 323 323 322 324 320 320 321 322 323 323 324 325 325 323 323 322 321 322 322 323 322 323 320 319 319
329 329 330 330 329 328 327 325 327 328 324 326 325 322 326 327 323 322 321 320 320 320 320 320 320 322 323 323 324 325 325 324 323 324 323 322 322 323 321 322 321 321
328 328 327 324 326 325 321 324 325 324 324 322 324 323 324 325 325 323 325 322 319 320 320 319 321 321 324 326 326 326 325 324 324 325 325 324 324 322 322 323 322 322
324 327 327 327 327 324 323 322 322 325 322 321 324 327 323 321 322 323 324 321 323 321 321 322 323 323 325 326 326 326 325 325 325 325 324 324 324 323 323 322 322 322
325 326 326 325 324 323 322 321 323 324 326 326 326 326 329 326 327 324 322 320 320 324 325 323 322 321 321 319 321 323 322 322 324 324 324 321 320 321 321 322 323 321
325 327 326 326 325 324 323 323 324 327 327 326 325 326 326 325 324 324 324 324 324 323 323 320 322 322 318 310 306 319 323 322 323 323 321 318 318 317 317 320 318 319
325 324 325 325 325 325 326 325 325 326 324 326 327 327 324 325 323 323 325 324 323 323 321 321 322 321 309 304 304 303 317 323 323 318 318 319 319 318 316 318 319 320
325 324 325 324 325 324 324 325 325 325 324 324 326 326 326 325 323 323 323 323 324 323 323 322 321 314 305 304 301 300 302 315 321 320 320 320 319 320 319 318 318 319
322 322 322 323 323 323 325 325 324 324 324 324 324 325 325 323 323 323 322 324 325 324 322 321 321 307 300 297 298 296 297 308 319 320 320 319 318 318 319 319 319 319
320 320 321 322 325 323 324 323 323 323 325 325 323 322 322 321 322 321 321 322 324 324 323 321 323 308 297 297 296 296 295 305 320 322 320 320 319 320 321 319 320 318
313 312 313 316 322 322 323 324 323 324 322 323 322 321 320 320 320 320 321 321 322 322 322 323 322 303 295 295 295 295 293 299 320 322 321 319 319 318 318 316 318 319
313 315 319 320 319 320 319 320 322 322 322 322 321 320 320 321 320 319 318 317 319 321 322 320 311 294 295 295 295 294 293 310 318 320 320 319 318 318 317 318 318 318
312 312 313 313 314 317 318 318 319 320 322 321 320 320 319 319 319 318 318 318 319 321 321 320 314 298 294 295 294 293 298 314 318 319 319 318 317 317 317 313 310 312
309 309 310 311 312 312 313 315 316 318 319 322 319 319 318 318 319 319 319 319 319 319 320 319 319 304 293 294 293 293 302 315 318 319 319 316 314 314 311 308 304 304
308 309 309 310 310 312 313 313 314 315 316 317 318 319 318 319 317 317 317 318 319 319 317 318 320 307 293 293 293 293 299 313 318 318 313 312 312 311 311 307 302 299
306 308 309 309 309 311 312 312 313 313 314 315 317 317 315 314 315 314 315 315 317 318 319 319 320 313 298 293 294 294 296 310 316 315 312 312 311 310 309 307 303 300

ECMWFNIL_sfc_thetae_045.txt.gz
Theta_e
322 322 321 321 320 321 321 319 321 321 320 318 316 317 317 317 317 316 317 317 317 316 316 317 316 316 316 314 313 314 314 313 313 313 314 314 314 314 315 312 311 311
322 323 322 322 321 321 321 320 319 321 319 317 317 316 317 317 317 315 314 315 315 315 316 317 316 314 314 313 313 313 312 311 312 319 313 313 313 313 313 312 312 312
323 321 321 321 320 320 320 319 321 321 319 318 317 316 317 315 313 313 314 314 314 313 314 313 313 313 313 312 311 311 312 311 312 313 314 312 312 313 312 311 311 311
322 321 321 321 320 320 320 320 321 320 318 316 315 317 317 316 316 315 316 319 313 312 312 314 314 313 313 312 311 311 311 312 313 312 312 311 313 313 313 313 312 313
321 319 321 320 320 320 320 320 319 318 317 316 316 316 316 316 315 314 314 313 313 314 313 314 314 313 313 313 312 312 312 313 313 312 311 311 312 312 311 311 310 310
321 319 321 320 319 319 318 319 320 319 318 316 316 317 316 316 315 314 314 313 314 313 313 313 313 312 312 312 313 312 312 312 311 312 312 310 312 312 314 311 310 310
322 320 319 320 319 318 318 318 319 319 318 317 317 316 316 315 315 315 315 315 314 314 313 313 313 312 313 314 313 311 311 311 311 308 308 308 310 310 312 311 309 308
322 320 319 319 318 317 318 318 318 319 318 317 317 317 316 316 315 316 316 316 314 314 314 315 314 314 314 313 313 312 312 315 311 309 310 309 308 309 310 312 308 308
322 321 320 319 318 318 319 319 318 318 317 316 317 316 316 316 316 316 316 315 314 315 314 314 314 314 314 312 311 311 312 312 312 310 309 308 307 309 310 310 310 309
322 322 320 318 318 318 318 318 318 318 317 317 318 316 316 316 316 316 315 315 315 314 314 314 315 316 314 313 313 312 312 313 312 310 310 310 310 309 311 311 309 308
321 322 320 318 318 318 317 318 318 318 318 316 317 315 315 317 316 315 315 315 315 314 314 314 315 316 315 314 313 314 313 314 312 312 313 313 314 314 317 312 311 309
319 319 318 318 319 318 316 317 317 317 317 318 319 314 314 316 314 315 315 315 315 314 314 315 315 314 315 315 316 315 315 314 314 313 313 314 314 314 314 314 314 313
319 319 318 319 319 319 318 318 317 317 317 318 318 317 316 316 314 314 315 314 315 314 314 315 315 315 315 315 316 316 316 315 316 314 315 315 314 315 314 314 314 315
317 318 318 319 319 319 318 318 318 319 317 316 317 316 316 316 315 314 315 314 313 313 314 313 314 314 317 317 316 317 317 315 317 316 313 314 315 316 317 315 315 314
319 319 318 317 317 318 317 317 317 318 317 318 319 318 320 319 318 318 317 315 313 317 316 316 317 316 316 315 315 316 316 317 316 315 314 313 314 314 314 315 313 313
319 319 319 319 318 316 317 317 317 318 317 317 319 318 317 318 319 319 318 318 317 314 314 315 316 316 314 308 311 315 316 318 316 314 314 314 313 312 312 314 313 313
319 320 320 319 319 318 318 319 318 318 317 317 317 316 315 315 316 316 317 317 316 314 313 314 315 317 303 297 299 307 317 316 315 314 314 314 313 312 312 312 313 314
318 318 319 319 320 320 318 318 319 318 317 318 317 317 316 315 314 314 314 314 315 314 313 314 314 312 301 299 297 300 308 316 315 315 314 314 314 314 313 313 313 312
318 318 318 318 318 319 318 318 317 318 317 317 317 317 316 315 313 313 312 313 314 314 313 313 313 307 299 299 296 294 299 311 316 315 314 314 314 314 314 313 312 312
316 316 316 316 317 317 317 317 317 316 316 315 314 314 314 313 313 312 312 313 314 314 314 314 315 309 300 296 295 294 296 303 316 314 314 314 314 314 314 313 313 313
307 308 310 312 315 316 317 315 314 313 314 312 311 312 312 310 310 310 310 311 312 313 314 315 316 308 299 296 294 293 293 298 313 315 314 313 314 314 314 314 314 315
303 304 305 306 306 306 307 312 313 315 314 312 312 311 310 310 309 309 309 309 310 310 310 311 314 301 294 294 294 293 293 306 311 314 313 313 312 312 311 311 311 312
301 303 304 304 305 305 305 305 306 311 312 313 312 311 311 311 312 312 310 308 308 309 308 308 312 302 292 293 293 292 298 308 309 312 313 312 311 310 309 307 307 311
300 302 303 303 303 304 304 304 304 304 307 311 311 311 311 312 313 313 312 311 309 310 312 311 311 305 294 294 294 293 301 309 310 311 311 312 308 307 303 300 302 307
300 301 301 302 302 302 303 303 303 303 304 305 305 306 310 313 313 313 313 312 311 311 313 313 312 308 296 295 294 293 300 308 310 311 311 307 305 302 300 299 298 299
301 301 301 301 301 301 301 301 302 302 303 304 304 305 305 304 306 312 313 313 312 312 312 312 311 308 299 294 294 294 296 307 310 309 309 305 304 302 300 297 296 296

ECMWFNIL_sfc_thetae_051.txt.gz
Theta_e
317 316 315 315 315 317 317 316 314 314 313 313 313 313 313 313 313 312 311 311 312 312 311 310 310 310 311 309 309 311 310 310 310 309 309 309 307 308 309 307 308 310
316 316 317 316 316 317 318 317 314 314 313 313 313 311 311 312 312 311 311 312 311 310 309 309 309 309 309 308 308 309 308 308 309 311 309 308 307 307 307 306 307 307
317 316 316 315 316 317 317 316 315 313 314 313 312 312 313 311 310 309 310 311 310 309 308 308 308 308 307 307 307 308 308 307 307 306 308 306 305 307 305 306 306 306
317 317 316 316 317 317 317 316 313 313 313 313 312 312 313 312 310 310 313 314 308 307 306 307 307 306 306 306 306 306 305 306 305 306 308 306 307 306 305 306 307 306
317 317 316 316 316 317 316 315 314 314 312 312 310 310 312 310 309 309 307 306 307 306 306 306 305 305 305 305 306 306 307 305 305 305 306 305 304 306 306 306 305 305
318 318 317 318 318 318 316 315 315 314 311 310 311 311 309 309 309 308 308 307 307 307 306 305 305 305 305 305 305 305 305 307 304 304 306 304 303 305 307 305 305 305
318 317 316 317 317 317 316 315 315 313 312 311 310 309 308 308 308 308 309 309 308 309 307 305 305 305 305 305 305 305 304 304 304 304 305 304 305 304 305 305 306 305
319 318 317 315 315 316 316 314 313 312 311 310 309 309 308 308 307 308 309 309 308 308 307 307 306 306 306 305 305 305 305 306 304 304 304 303 303 303 303 306 304 305
319 318 316 316 316 315 315 313 312 311 312 311 310 309 308 309 309 309 309 308 309 309 308 307 307 307 306 306 305 305 305 305 305 303 303 304 304 304 305 304 304 305
318 317 316 317 317 316 315 314 313 312 312 311 311 309 309 308 309 309 308 308 309 308 308 308 308 308 307 307 307 305 305 305 304 304 303 303 303 304 304 304 303 304
316 316 315 315 316 316 315 314 313 313 313 312 311 310 309 309 308 308 308 308 310 309 308 307 307 307 307 307 307 306 305 304 304 303 303 303 304 304 311 304 304 303
316 316 316 315 315 315 315 314 314 313 313 312 312 311 308 309 309 308 309 308 308 308 308 308 308 307 306 307 307 306 306 305 305 304 304 304 304 305 307 304 304 304
316 317 316 315 315 315 315 315 314 314 313 313 312 312 311 310 310 310 309 309 309 308 308 308 309 308 306 306 307 306 306 305 305 306 307 305 305 306 307 306 305 305
317 317 318 317 315 315 315 315 314 313 313 313 312 311 311 312 311 310 309 309 309 309 309 308 308 308 306 306 307 308 307 305 306 307 308 309 308 308 308 307 307 306
317 317 317 316 316 316 314 314 314 314 314 313 312 310 312 312 312 311 310 309 308 309 309 309 310 311 310 308 308 307 307 308 308 309 308 309 309 309 309 309 308 307
314 315 315 315 315 314 313 312 314 315 315 314 312 311 310 311 310 310 310 311 310 310 309 310 311 311 312 308 309 311 310 311 310 310 310 310 310 309 308 308 308 308
315 314 314 315 314 313 313 314 315 314 313 312 310 309 310 310 309 310 309 310 310 310 310 310 312 312 306 302 301 304 311 311 311 311 310 311 311 311 311 311 309 309
315 315 315 314 313 312 311 312 312 313 314 313 312 310 308 308 308 307 308 307 308 308 309 310 311 310 302 301 300 300 305 313 312 311 311 310 311 311 311 310 311 310
314 313 312 312 312 312 311 311 311 311 311 312 311 309 308 309 307 307 307 307 308 308 307 308 308 304 298 298 299 299 300 308 312 312 311 310 310 310 310 310 309 309
304 305 305 307 309 310 310 310 309 308 308 307 307 308 308 306 306 307 306 307 307 308 307 307 307 303 296 296 297 297 297 302 311 311 311 311 311 311 310 310 309 309
299 300 299 299 300 300 301 302 304 305 308 306 305 305 305 305 305 306 305 304 306 308 308 308 310 304 296 294 294 294 294 294 308 308 308 309 309 310 310 311 310 310
298 297 297 297 297 297 297 298 299 299 301 303 303 303 303 304 303 303 302 304 307 306 305 308 309 299 295 294 294 294 293 300 307 309 308 309 308 309 309 310 309 309
297 296 296 296 296 296 295 296 296 296 297 299 299 300 300 301 302 302 303 303 304 305 305 307 307 302 295 295 294 293 295 302 306 307 307 308 309 308 309 308 308 308
296 296 295 295 295 295 295 294 295 295 295 297 296 296 297 298 299 299 301 302 302 305 304 304 306 304 298 296 295 293 296 305 306 306 307 307 308 307 306 306 307 309
296 296 295 295 294 294 295 294 294 295 295 294 295 295 295 295 297 297 297 298 299 301 306 305 304 305 300 296 295 294 296 302 306 306 306 306 306 307 306 305 305 306
296 296 295 295 294 294 294 294 294 294 294 294 294 294 294 294 295 295 295 295 296 297 298 299 300 302 302 298 295 295 294 300 306 305 306 307 306 306 307 306 303 301

ECMWFNIL_sfc_thetae_054.txt.gz
Theta_e
319 318 317 317 317 316 315 314 313 314 313 313 314 313 312 313 314 313 313 313 314 313 313 313 313 313 312 311 312 312 312 312 311 310 311 312 310 311 312 312 314 317
317 318 318 317 316 316 316 315 314 314 313 313 314 313 312 312 312 313 313 314 313 311 310 310 311 311 311 310 310 311 310 310 311 313 310 309 309 309 309 310 312 314
316 317 317 316 316 316 316 315 315 314 314 313 312 313 313 312 311 311 312 312 311 310 309 309 310 310 309 309 309 310 309 309 309 308 310 307 308 309 308 308 310 313
317 318 317 317 317 317 315 314 312 313 313 312 312 313 313 313 310 311 313 315 310 309 308 308 309 308 308 308 309 308 308 308 307 309 309 309 309 308 308 310 309 309
316 317 317 317 317 317 315 314 313 313 313 312 311 312 313 311 310 310 309 308 308 308 308 307 307 308 308 308 309 309 309 308 307 307 308 308 308 309 309 309 308 308
316 317 317 317 317 316 314 314 314 313 312 311 311 312 310 310 310 309 308 308 307 308 307 306 307 306 307 308 308 307 307 307 306 307 307 307 307 307 307 307 308 307
316 316 316 316 316 315 314 314 314 314 313 312 311 310 310 309 309 308 308 309 308 309 307 307 307 307 307 308 308 307 307 306 306 307 307 306 308 308 307 308 308 308
316 316 316 316 315 314 314 314 314 313 312 311 311 310 310 309 308 309 309 309 309 308 307 307 307 307 307 307 308 307 307 307 306 306 306 305 306 307 307 307 307 308
316 316 316 315 315 314 314 314 314 313 313 311 310 310 309 309 309 309 309 309 309 308 307 307 308 308 307 307 307 307 307 306 306 306 307 307 307 307 307 306 308 308
316 315 316 315 315 315 314 313 313 312 313 311 311 310 309 309 308 309 309 309 309 308 308 307 308 309 308 308 308 308 308 306 306 306 306 306 307 307 307 307 308 308
315 315 315 315 314 314 313 313 312 312 312 311 311 311 309 308 310 309 308 308 309 309 308 307 308 309 308 307 308 308 308 307 307 306 306 306 306 306 312 307 308 309
315 315 315 314 314 313 313 313 312 312 312 311 312 311 309 309 309 308 309 308 308 309 309 308 308 308 308 308 308 307 307 306 307 306 306 306 306 306 310 306 308 307
315 315 315 314 314 313 313 313 313 312 312 311 312 311 310 309 308 309 310 309 309 309 309 309 309 308 308 307 308 308 308 307 307 307 307 307 307 307 308 307 307 307
315 315 315 315 315 314 315 314 313 312 312 311 311 311 311 310 310 309 309 309 308 309 309 310 309 309 307 307 308 308 308 307 308 309 310 310 310 309 309 309 309 308
315 315 315 315 315 314 314 314 314 314 313 313 311 310 311 311 310 310 309 309 309 309 310 310 309 310 309 308 309 309 308 308 308 310 310 311 311 311 311 311 311 310
314 314 315 315 315 314 314 313 313 313 312 313 313 312 310 311 310 310 309 310 310 310 309 310 310 310 312 307 307 310 309 309 310 310 310 311 312 311 311 311 312 311
313 313 314 313 313 313 314 315 314 313 312 312 310 310 310 311 311 310 309 309 310 310 309 309 311 311 305 301 300 303 310 310 311 311 311 311 311 311 312 312 312 311
314 314 313 312 312 312 313 313 314 314 313 312 311 311 310 308 308 308 308 309 309 309 309 309 310 308 302 301 299 298 304 312 311 311 311 311 312 312 312 312 312 312
312 312 311 311 311 311 311 312 312 311 310 310 310 310 310 309 308 309 308 306 308 310 309 308 309 303 299 300 299 298 297 304 312 312 312 312 312 312 312 312 312 312
301 301 301 302 303 305 306 307 308 307 307 306 308 308 308 308 309 308 307 307 308 308 308 307 308 301 295 293 294 295 295 298 311 312 312 312 312 312 312 312 312 312
299 298 298 298 298 299 300 299 300 301 303 303 304 305 305 305 305 304 305 305 305 306 307 308 308 296 295 294 292 292 292 295 307 309 311 311 312 312 312 312 312 312
297 297 297 297 297 297 297 297 297 298 298 300 300 300 300 301 301 301 302 304 305 305 305 307 308 297 296 295 294 293 293 301 305 308 309 310 310 311 311 312 312 311
297 297 297 296 296 296 296 296 296 296 296 298 297 297 297 298 298 299 300 300 301 302 303 303 304 299 294 295 294 294 297 303 305 306 308 309 310 311 311 311 311 311
296 296 295 295 295 295 295 296 296 296 296 297 296 295 295 296 297 297 297 298 298 299 301 300 300 299 294 294 294 294 297 303 306 307 307 307 308 309 309 309 309 308
296 296 295 295 294 294 295 294 295 295 295 295 295 295 294 295 297 295 295 295 296 297 299 298 298 298 295 293 293 294 298 303 304 306 306 308 308 308 308 306 307 307
296 295 295 294 293 293 294 294 294 294 294 294 294 294 294 294 294 294 293 293 294 295 295 296 297 298 296 292 293 294 294 301 304 305 306 307 308 307 307 308 307 307

ECMWFNIL_sfc_thetae_057.txt.gz
Theta_e
332 332 331 331 331 331 330 329 330 330 330 330 328 329 329 330 330 332 332 332 333 332 331 331 330 330 329 330 330 329 330 331 330 330 331 332 333 333 332 332 333 332
331 332 331 331 330 329 329 330 330 330 330 331 331 329 329 329 329 331 331 331 330 329 328 327 326 326 326 326 327 328 327 329 326 324 328 328 329 330 331 331 332 333
329 330 330 329 328 328 328 329 330 331 330 328 328 329 328 328 328 329 331 330 328 327 326 326 326 326 326 325 326 326 326 325 324 324 325 324 325 327 327 329 330 332
327 328 329 330 329 328 328 327 327 328 327 325 326 327 327 326 328 328 328 327 328 326 325 325 326 325 324 324 324 323 323 323 322 324 323 323 323 324 326 328 329 329
327 327 329 329 329 328 328 327 327 326 327 326 326 325 325 326 327 327 327 326 327 325 324 323 324 325 324 324 324 322 323 321 322 324 322 322 322 323 323 326 328 329
327 327 327 328 328 327 327 328 327 326 326 325 326 325 325 326 326 325 325 325 324 324 323 323 323 323 324 323 324 324 323 321 322 324 321 321 320 321 320 326 327 328
326 327 328 328 327 328 328 328 328 327 327 327 325 325 324 324 325 325 324 324 322 322 322 323 322 323 324 324 323 322 323 322 321 321 319 321 321 320 320 324 325 326
326 327 327 327 327 327 328 327 326 326 326 325 326 324 324 324 324 324 324 323 322 321 322 321 322 322 323 323 321 322 322 323 323 320 319 320 323 319 320 322 324 324
324 324 325 326 326 326 326 325 326 325 324 325 325 323 324 324 324 323 323 322 321 321 320 321 321 322 323 323 322 321 320 321 323 322 320 320 320 320 317 320 321 322
324 324 325 325 325 326 326 326 325 324 324 325 324 323 322 323 324 322 322 322 321 320 320 320 321 322 321 321 320 320 320 319 320 321 321 321 320 319 319 321 321 320
323 324 325 325 325 325 326 325 325 324 323 323 323 323 322 322 322 323 322 321 322 319 319 320 320 320 320 321 322 323 321 321 320 320 321 320 321 321 321 322 321 321
323 324 324 325 325 326 325 325 324 323 322 323 323 322 322 322 322 322 322 321 320 319 319 319 320 320 319 319 320 322 323 323 322 321 321 320 320 320 320 321 322 321
323 323 323 323 324 323 323 321 321 321 320 320 321 321 321 320 321 321 322 321 321 321 320 320 319 320 321 322 321 321 322 321 322 322 322 322 321 319 321 321 321 321
322 323 322 322 322 322 321 321 320 320 320 320 320 320 321 320 320 321 322 321 323 322 322 323 322 321 321 322 321 323 323 323 323 323 322 322 323 321 322 321 322 322
321 322 322 322 322 322 322 322 321 321 321 320 320 320 321 321 322 322 321 320 320 322 321 323 323 323 323 323 323 322 323 323 323 321 322 321 322 322 322 322 322 323
322 323 322 322 321 321 320 322 322 323 323 322 320 319 319 320 320 320 320 321 320 320 322 323 324 325 317 307 310 322 323 321 323 324 323 322 322 323 324 323 323 324
319 318 319 319 319 318 318 319 318 317 319 321 319 318 320 318 318 318 319 321 320 321 322 323 324 320 301 301 300 302 318 324 323 324 324 323 323 323 322 324 326 324
318 317 316 317 317 317 318 319 321 320 320 319 319 317 315 316 316 316 318 319 319 319 321 322 322 299 294 297 299 298 302 320 323 323 324 324 324 324 324 325 326 327
312 312 312 314 316 317 318 318 318 317 317 317 316 316 316 315 316 317 318 319 321 320 321 321 315 295 293 293 294 297 295 305 321 322 322 323 324 324 324 325 326 326
306 305 305 305 305 306 307 308 309 309 310 312 312 312 311 314 315 315 316 317 319 321 320 315 307 296 293 293 293 291 291 301 320 322 323 322 322 323 324 324 325 325
302 302 301 302 302 302 303 303 304 304 305 305 306 307 308 309 310 311 311 312 313 315 316 310 302 292 292 293 293 293 292 298 320 320 322 322 323 323 322 323 323 323
301 301 301 301 301 302 302 302 302 303 303 305 305 305 306 307 306 307 307 307 309 312 312 309 303 292 292 293 293 293 295 313 317 320 322 322 323 323 323 323 323 323
299 299 300 301 301 301 301 301 301 300 300 302 303 303 302 303 303 303 303 304 305 305 307 307 304 295 291 292 292 292 302 315 315 318 320 321 323 323 323 323 323 323
298 298 298 299 299 299 300 301 302 301 300 302 303 303 303 303 304 303 302 302 302 302 303 304 304 297 291 292 292 292 298 311 312 315 317 318 320 322 322 322 321 312
299 298 297 296 296 297 298 298 299 300 300 300 302 301 300 301 301 302 301 301 302 302 300 303 303 300 292 291 292 292 299 309 310 313 314 315 315 317 320 321 321 315
298 298 298 297 296 297 297 296 297 297 298 298 298 299 299 300 301 300 300 299 300 301 300 301 302 302 296 291 291 292 292 305 309 309 309 309 311 312 313 316 318 320

ECMWFNIL_sfc_thetae_060.txt.gz
Theta_e
334 335 333 333 332 333 333 333 332 332 332 330 329 330 330 333 334 334 334 334 334 333 333 334 334 335 335 336 336 331 332 337 337 338 337 337 335 336 335 334 335 334
325 329 334 333 332 333 333 334 333 331 331 331 332 331 333 334 334 334 334 333 332 331 331 333 333 333 333 332 334 332 331 335 334 334 337 337 336 337 337 336 337 337
325 327 333 333 332 334 334 334 334 332 331 331 333 333 332 334 334 334 334 333 331 329 330 331 333 332 331 331 332 330 330 331 330 332 331 331 334 335 336 336 336 337
329 330 334 335 334 334 334 334 332 332 332 332 332 331 332 334 334 333 333 332 330 329 329 330 331 330 329 329 331 329 329 328 328 330 329 330 331 332 334 336 336 335
331 333 335 336 334 334 334 332 332 332 332 331 333 332 330 332 333 332 332 331 330 328 327 327 329 331 330 329 329 328 327 325 328 328 327 328 330 332 333 334 335 335
332 333 335 335 334 333 332 331 331 331 332 333 332 331 331 331 330 330 330 330 328 327 326 325 327 329 328 328 328 326 325 324 325 325 323 324 326 329 329 334 334 333
330 332 334 333 333 333 332 332 331 332 332 333 331 331 331 330 330 330 329 329 327 326 325 324 326 328 328 327 326 325 324 324 324 323 322 322 324 327 328 330 328 328
333 335 335 333 334 332 331 331 331 331 333 332 331 331 330 329 329 329 329 328 327 324 323 322 324 327 326 326 324 324 324 323 323 322 322 322 323 324 326 328 328 325
334 335 334 335 334 332 331 330 331 331 332 330 329 328 329 329 328 328 327 327 325 324 321 321 323 325 327 325 324 322 321 323 323 321 322 323 322 322 323 325 326 327
334 334 334 334 333 331 330 330 330 330 330 330 327 326 327 328 327 326 326 326 324 322 321 320 321 325 325 324 322 322 321 320 320 321 322 322 322 321 321 323 324 325
334 333 333 333 332 331 330 330 330 330 330 329 328 326 326 326 325 325 325 324 324 321 320 320 320 321 323 324 324 324 322 321 320 321 322 322 323 323 324 323 323 323
328 330 334 333 332 331 331 330 330 330 330 329 327 325 325 324 324 324 323 322 321 321 320 320 320 321 321 322 322 324 323 323 323 322 321 321 321 321 322 323 323 322
324 325 330 332 332 331 331 330 329 330 329 328 328 326 324 324 323 323 323 321 321 321 320 320 321 321 321 322 322 322 322 322 323 323 322 323 322 321 322 322 322 322
325 327 327 330 332 331 330 329 329 329 329 329 327 325 323 322 321 322 323 323 323 321 321 321 322 322 322 322 322 322 323 323 323 323 322 323 323 322 323 323 323 322
326 327 325 325 327 329 328 328 328 328 328 327 327 326 325 322 322 322 321 322 322 324 322 322 322 322 323 323 323 321 323 323 323 321 322 321 321 322 322 323 323 325
325 325 324 324 325 326 326 326 326 327 326 325 324 324 324 324 324 323 320 321 321 322 323 324 325 328 310 302 306 322 323 321 323 323 322 322 321 321 322 322 323 324
324 324 323 323 322 322 323 323 324 326 326 326 324 324 324 323 324 323 323 321 320 321 322 326 321 309 293 294 298 301 323 325 323 322 322 322 322 322 322 323 323 323
323 322 321 321 322 320 318 319 320 322 324 325 324 324 324 325 324 323 323 322 322 323 325 319 310 297 292 293 293 295 301 326 326 324 324 323 323 323 323 324 323 324
321 321 322 322 321 321 321 321 321 320 322 323 322 322 323 322 321 321 321 323 322 317 314 311 307 294 293 293 293 293 293 305 324 325 324 324 323 324 323 323 324 327
318 318 316 317 317 317 318 319 319 315 316 318 319 319 319 317 316 317 319 321 318 312 308 306 303 295 292 292 293 292 292 297 325 326 326 325 325 325 326 326 327 327
312 312 312 312 312 312 313 314 314 313 313 313 313 313 313 313 314 314 316 318 315 310 308 304 300 292 292 292 292 293 292 296 329 329 327 327 327 328 328 328 328 328
310 311 310 309 309 309 309 310 310 310 309 309 310 310 311 311 310 311 312 315 314 312 308 305 301 291 291 292 292 293 292 322 329 328 328 328 328 329 328 328 329 329
306 307 307 307 307 306 305 306 308 310 310 310 309 308 308 308 309 309 309 309 310 311 309 306 303 294 291 291 292 291 304 325 325 326 326 327 328 329 329 329 329 329
301 301 302 304 305 304 304 305 306 307 308 311 309 309 308 308 308 307 307 307 308 309 309 305 302 295 291 291 291 290 298 319 319 322 323 324 326 327 326 326 325 318
301 301 299 299 300 303 304 303 304 305 306 307 308 308 306 306 306 305 305 306 306 306 305 307 305 299 291 291 291 291 300 317 315 316 317 319 318 319 322 323 325 318
303 302 301 300 300 301 302 302 303 303 303 304 304 303 303 304 304 303 303 304 305 305 304 306 306 302 295 291 291 292 291 308 313 313 312 313 315 315 315 318 319 321

ECMWFNIL_sfc_thetae_063.txt.gz
Theta_e
334 335 332 331 332 333 332 331 331 331 332 332 330 332 331 333 333 334 334 334 334 334 334 334 335 334 334 334 335 330 335 337 337 338 338 336 335 336 335 334 334 332
332 332 332 333 334 333 334 334 333 332 332 332 331 331 333 333 334 334 334 333 333 333 333 334 335 334 333 333 333 332 334 337 337 335 337 337 336 337 335 334 334 335
333 332 333 334 333 334 334 334 334 333 332 331 333 333 333 334 335 334 334 333 331 331 332 332 333 332 331 332 332 331 331 331 331 333 334 335 336 337 336 336 334 335
334 334 334 335 335 332 333 333 332 332 332 332 332 333 333 334 335 333 333 331 330 330 331 332 332 331 330 330 331 330 330 330 330 332 332 332 334 335 336 336 335 333
335 335 336 336 335 332 333 331 331 331 332 332 333 333 332 333 333 332 331 330 330 328 329 330 331 331 330 330 330 329 329 328 329 330 329 330 331 333 335 336 333 333
336 335 336 335 333 331 331 330 330 332 331 332 332 331 331 332 331 331 330 330 328 326 326 328 330 329 329 329 329 328 327 327 328 328 326 327 328 332 332 333 334 333
335 335 335 334 331 330 331 330 331 331 331 332 332 331 330 330 330 330 330 329 327 325 324 327 328 328 329 329 328 326 326 326 325 325 324 325 327 328 328 332 332 331
334 336 334 333 331 330 330 329 330 330 332 331 331 331 331 329 330 329 329 329 326 324 324 325 328 327 327 327 325 325 326 325 325 323 323 325 327 325 326 326 329 331
336 335 334 331 330 330 330 329 330 331 332 331 330 330 331 331 330 330 329 328 325 324 322 324 327 326 327 326 326 325 323 324 324 324 325 325 325 325 324 326 325 326
334 334 333 331 330 329 329 331 331 331 331 330 330 330 329 330 330 329 328 327 325 322 321 323 326 326 325 325 324 323 322 322 322 325 324 324 324 324 324 325 325 325
334 335 333 330 330 329 330 331 332 330 330 328 329 328 329 329 328 327 326 326 325 321 320 322 325 325 324 324 324 324 322 321 321 322 324 323 324 324 327 325 325 325
333 332 331 331 329 330 330 330 331 329 329 329 326 325 328 328 324 325 324 324 323 321 320 320 323 324 323 323 322 322 322 321 321 323 323 323 323 323 323 324 325 324
330 331 332 331 330 329 330 330 330 330 328 327 326 326 326 325 324 325 325 324 322 321 320 320 320 322 324 324 322 322 321 322 323 323 323 324 322 322 323 323 323 323
333 334 334 330 329 329 329 329 329 329 329 328 327 325 323 323 322 323 324 322 322 321 321 321 321 320 322 322 321 323 323 323 323 323 322 322 323 322 323 323 323 323
331 333 334 332 329 328 326 327 327 329 329 328 327 324 323 322 322 323 322 322 322 322 320 322 322 326 319 317 324 322 323 323 323 321 322 322 322 322 323 323 323 323
330 331 332 332 330 328 327 327 327 328 329 328 326 324 324 322 322 323 322 324 321 322 322 328 322 317 302 297 299 315 323 322 323 323 322 322 322 322 322 323 324 325
328 328 329 329 329 328 328 327 327 327 326 325 324 324 325 324 324 321 321 323 323 324 325 321 315 306 294 293 294 294 314 325 323 324 323 323 323 323 322 322 324 323
326 326 326 327 328 327 326 326 326 324 324 324 324 324 324 325 324 325 326 327 325 323 321 317 312 299 292 294 294 293 296 317 325 323 322 322 322 321 322 323 322 323
323 323 323 324 323 323 324 324 324 324 324 324 324 326 327 326 325 326 324 321 318 315 313 310 308 294 293 293 294 293 294 305 323 325 324 322 322 322 322 323 324 324
322 321 321 321 321 320 319 318 318 317 319 321 322 321 321 322 324 324 321 316 312 310 306 304 301 295 292 292 293 292 293 297 323 325 325 324 322 322 323 323 324 324
318 318 318 317 316 316 315 315 316 315 315 315 318 319 318 318 318 318 315 311 309 307 303 300 296 291 292 292 292 292 292 296 326 326 324 324 324 324 325 327 328 328
315 315 316 314 314 315 314 313 313 313 312 313 314 315 316 316 316 317 315 311 309 306 304 301 297 291 291 291 292 291 292 315 326 325 323 323 325 327 327 328 327 327
312 311 310 309 311 312 311 313 313 314 314 313 312 311 312 312 311 312 313 311 308 306 303 300 298 293 291 291 292 291 298 321 324 322 321 325 327 327 328 328 328 329
306 307 308 309 309 309 308 308 310 311 312 313 313 312 310 310 310 310 311 311 309 307 304 301 299 294 291 291 292 291 295 315 320 321 323 322 324 327 327 326 326 315
304 303 304 304 305 306 307 306 306 307 309 310 310 310 309 309 308 308 308 308 309 310 309 306 302 298 292 291 291 291 299 314 316 317 319 320 319 319 321 321 323 310
304 303 302 302 301 303 304 305 306 306 305 305 306 307 306 305 304 305 305 306 305 306 307 308 305 300 295 291 291 292 292 306 312 310 309 311 313 312 313 315 316 317

ECMWFNIL_sfc_thetae_066.txt.gz
Theta_e
335 334 332 332 331 331 332 332 332 332 333 335 334 331 334 335 335 337 336 338 338 336 336 336 337 337 337 336 334 332 333 335 337 339 336 335 334 334 333 333 333 332
334 333 333 333 332 332 333 334 332 332 335 335 334 335 334 335 335 337 335 335 335 336 336 336 336 336 336 334 336 334 333 334 335 335 336 335 335 335 333 334 332 333
334 333 333 332 332 332 334 335 335 333 335 335 336 334 335 335 335 335 336 335 335 334 336 336 335 336 335 334 336 333 333 332 331 335 334 332 334 332 334 335 333 333
334 333 332 333 333 333 334 334 335 335 335 335 333 334 334 334 334 335 335 335 332 334 335 335 335 335 331 332 334 333 332 333 333 334 334 334 334 334 333 334 333 332
333 333 334 333 334 333 333 333 332 333 332 335 333 335 332 333 334 331 334 333 330 332 333 334 335 335 332 331 332 331 331 331 332 332 331 331 333 334 333 334 331 331
333 332 334 334 333 332 332 331 330 332 333 333 335 332 333 333 333 330 333 329 329 330 330 332 333 331 332 332 331 331 331 328 328 330 328 328 329 332 331 334 331 331
332 333 334 333 332 332 331 331 330 331 332 333 332 332 333 332 333 329 329 328 327 327 326 330 331 331 333 330 330 330 331 329 327 327 325 327 328 328 328 329 331 331
333 334 333 331 331 331 330 330 331 332 333 331 331 332 331 329 330 330 329 328 325 323 326 327 330 329 331 331 328 328 328 331 330 328 324 325 327 325 327 330 330 328
333 333 332 331 330 330 329 329 331 331 331 331 331 331 330 330 331 330 329 328 325 326 323 327 329 328 330 330 330 327 325 327 329 328 325 326 326 324 324 326 328 329
332 332 332 330 330 330 329 330 331 330 330 331 330 331 328 332 331 327 329 330 325 324 323 325 329 327 330 329 325 326 325 325 325 325 326 325 326 325 323 324 325 326
331 332 330 330 329 330 330 330 330 330 330 330 331 330 329 331 329 330 328 328 327 323 321 323 327 325 327 328 327 328 326 326 325 325 327 326 325 325 328 325 325 325
330 331 329 329 329 330 329 329 330 330 330 330 329 328 329 333 328 331 327 325 323 322 320 322 324 326 325 324 322 326 326 323 324 326 325 325 325 323 324 326 324 324
326 328 330 329 328 329 330 329 329 330 329 328 329 329 328 328 327 330 330 326 322 323 321 325 324 324 326 325 322 324 323 322 326 325 327 324 324 324 324 324 324 324
326 326 328 330 330 329 329 328 328 328 328 326 327 327 326 324 322 325 329 325 325 324 321 325 322 316 313 316 322 324 324 326 325 326 324 324 325 325 325 325 325 324
325 327 327 329 330 328 328 328 327 328 327 327 327 326 326 326 326 324 326 326 323 324 322 318 315 312 306 305 309 321 329 326 325 324 324 323 324 323 324 325 323 324
327 326 326 327 326 326 327 327 327 327 327 325 323 323 326 324 324 324 324 327 321 321 320 316 311 307 300 296 299 306 319 321 326 326 324 324 323 322 323 325 323 321
327 326 325 324 325 326 326 325 326 326 325 324 322 322 324 324 324 324 324 323 321 319 315 313 307 302 295 294 295 297 310 321 326 324 325 322 324 321 322 324 324 323
326 326 324 324 326 323 324 325 325 325 325 325 324 324 324 325 323 322 321 320 318 316 315 311 305 296 292 294 295 295 299 315 321 325 327 326 323 324 323 323 323 323
323 322 321 321 320 321 323 323 323 323 323 323 323 324 324 322 318 317 317 317 315 311 308 306 304 294 292 293 294 294 293 309 320 322 326 324 324 323 323 323 325 326
320 319 318 317 317 317 318 319 319 320 321 321 321 321 320 317 314 312 311 309 308 305 302 300 297 293 292 292 293 293 293 304 323 326 323 322 321 323 322 322 324 323
316 316 314 314 314 314 314 314 315 316 317 318 318 317 317 314 311 309 307 306 305 303 301 298 296 291 291 292 292 293 297 307 325 327 323 321 322 322 322 321 324 325
313 313 313 313 312 312 312 311 311 311 312 314 314 314 314 314 312 310 307 305 304 302 300 299 297 291 291 292 292 292 303 321 323 322 320 320 320 318 319 321 322 322
309 310 310 310 311 311 311 310 309 310 311 313 311 311 311 311 311 310 308 305 303 301 300 298 297 293 291 292 292 291 303 319 319 317 319 321 317 319 320 321 316 319
304 305 306 307 307 306 306 307 309 311 312 313 311 310 309 310 311 310 309 307 305 302 301 299 297 295 291 292 292 293 299 315 314 315 315 315 318 321 321 318 310 309
303 303 303 304 304 305 305 305 305 306 308 309 309 308 308 308 308 307 307 308 308 306 306 301 299 297 292 291 292 293 303 311 310 309 308 309 310 310 314 315 307 301
304 303 302 302 302 303 305 305 305 305 305 306 306 306 306 306 306 304 303 303 303 303 305 305 301 297 294 291 292 293 296 305 306 304 303 303 305 306 308 310 310 305

ECMWFNIL_sfc_thetae_069.txt.gz
Theta_e
330 330 327 326 326 326 325 326 325 326 325 326 326 326 326 327 328 327 327 328 329 328 328 327 328 329 330 330 329 329 330 329 330 331 330 329 328 328 328 327 325 325
329 328 326 326 325 325 326 326 326 325 325 325 326 326 327 327 328 328 327 327 328 328 328 327 327 328 327 327 328 328 328 329 329 333 330 330 328 328 328 327 326 325
328 327 326 325 325 324 326 325 326 326 326 325 325 327 327 327 327 326 325 326 327 327 327 327 326 326 327 327 328 327 327 325 326 328 330 330 328 328 327 327 326 326
327 326 326 326 325 326 326 326 325 327 327 326 326 327 327 328 327 325 326 330 325 326 327 326 326 326 325 326 326 326 326 325 326 327 328 328 328 328 328 328 327 326
329 327 326 326 326 327 327 327 325 326 326 326 327 327 327 326 325 325 325 322 323 324 325 325 324 325 324 324 324 323 324 325 325 327 326 325 327 328 328 328 326 325
329 328 327 327 326 326 327 326 326 326 327 326 326 327 326 326 324 325 322 321 321 322 323 323 324 324 323 323 322 322 324 324 324 325 325 325 326 328 330 327 326 325
328 328 327 328 326 326 326 326 326 327 328 327 327 326 326 325 324 323 321 320 320 320 320 321 321 321 323 322 321 321 322 321 322 324 323 322 324 324 326 326 326 326
328 327 328 326 325 325 325 325 326 327 327 327 326 326 326 325 323 323 321 320 318 318 319 321 320 321 322 321 320 319 320 323 322 321 321 322 322 322 321 326 324 324
328 328 329 326 325 324 324 325 327 326 326 326 325 325 325 324 324 322 321 319 318 317 318 320 320 320 319 319 318 316 316 318 320 320 320 320 321 322 323 325 324 323
327 329 327 326 325 324 324 325 327 326 326 326 325 324 324 324 323 323 321 319 317 317 318 319 320 319 319 318 317 316 315 318 319 320 320 320 320 321 322 323 323 322
327 327 326 325 325 324 325 326 326 326 326 325 324 323 324 323 322 322 321 318 318 317 318 318 319 318 318 317 317 316 316 316 317 317 318 319 320 320 324 322 322 322
324 324 325 325 325 324 325 325 325 325 325 325 324 323 324 323 322 322 321 318 316 316 316 318 318 318 318 317 317 316 314 313 315 316 317 319 319 321 321 321 320 320
323 323 324 323 324 325 325 325 325 325 325 324 324 324 322 321 321 321 319 317 316 315 316 315 312 311 312 314 315 314 312 313 315 316 318 319 319 320 320 320 320 319
324 324 324 323 323 325 325 325 325 324 324 323 322 320 318 318 318 318 318 316 315 313 312 310 308 306 307 309 314 313 312 314 315 315 316 318 319 318 319 319 318 318
323 324 323 323 323 325 324 324 324 322 321 321 320 319 319 318 318 318 316 315 314 312 309 308 307 305 303 303 308 314 316 314 315 315 315 316 315 317 318 318 316 316
322 322 322 322 322 324 324 323 322 321 320 320 319 318 317 317 318 318 316 313 311 310 308 306 304 303 300 298 298 308 314 318 317 315 315 314 315 316 317 316 315 315
320 320 320 319 320 323 323 322 321 320 318 317 317 318 317 316 316 315 314 313 310 307 305 303 301 299 296 293 295 303 314 315 316 314 314 314 313 314 315 314 313 314
320 320 319 320 320 320 321 321 320 319 318 319 318 317 315 315 314 313 311 310 308 305 303 301 298 295 292 294 294 297 307 316 317 317 317 314 314 313 315 315 314 314
320 319 317 317 318 318 319 320 320 320 319 316 314 314 314 312 310 308 306 304 302 300 298 297 296 293 292 294 294 296 303 314 318 317 317 317 317 317 318 319 318 318
316 314 315 316 317 316 317 318 317 316 315 314 312 310 308 306 305 303 302 301 299 297 296 295 294 293 292 293 294 295 301 311 319 317 317 316 317 318 319 318 318 317
312 312 312 312 312 312 311 312 313 313 312 311 309 307 306 304 302 301 300 300 298 297 296 294 293 292 292 293 293 294 297 309 317 318 317 317 317 318 318 318 318 319
310 310 310 310 310 309 309 309 309 309 309 309 308 307 305 304 302 300 299 298 298 297 296 294 294 291 292 293 294 294 301 315 317 317 316 317 318 317 317 317 318 318
306 307 307 307 308 308 308 308 308 308 308 309 307 307 305 304 302 301 300 299 298 297 295 295 294 292 292 293 295 296 304 313 315 315 315 316 315 313 311 312 316 317
304 304 304 305 305 305 306 307 308 308 308 308 307 307 306 306 305 304 302 300 298 297 297 295 294 293 292 293 294 296 301 308 308 308 309 313 313 310 307 306 308 311
302 303 303 303 303 303 304 304 305 305 305 306 306 306 305 305 304 304 303 303 302 300 301 295 294 294 292 292 293 295 300 303 304 304 304 305 308 309 307 304 300 299
303 302 302 302 302 302 303 303 304 304 304 304 304 304 303 303 302 302 301 300 300 299 298 295 293 293 293 291 293 295 296 301 301 301 301 302 303 305 307 305 300 296

ECMWFNIL_sfc_thetae_072.txt.gz
Theta_e
327 327 326 326 325 326 325 324 324 325 325 324 323 323 325 325 325 326 326 326 325 326 327 327 327 327 329 329 329 330 329 327 327 326 326 325 323 323 324 323 321 322
327 326 326 325 324 324 323 324 324 325 325 324 324 323 325 325 324 326 326 325 326 326 327 326 326 327 327 327 327 328 326 326 326 329 326 325 324 324 324 322 322 320
327 326 325 325 324 323 324 323 324 324 325 326 325 325 326 325 325 325 326 326 326 326 326 326 325 325 326 325 326 327 326 325 326 326 327 326 324 325 324 323 321 322
327 326 325 325 324 324 324 323 323 323 324 325 325 326 327 327 325 324 326 329 325 324 324 324 324 324 325 325 325 324 325 324 325 326 325 323 324 325 324 323 322 321
326 325 325 325 324 324 324 324 324 324 324 325 326 326 326 325 324 325 325 325 325 324 323 323 323 322 324 324 324 322 322 322 322 325 324 323 322 324 323 324 322 321
326 327 326 326 324 324 324 324 325 324 324 325 325 326 325 325 324 324 324 324 324 324 322 321 322 321 323 323 322 322 322 323 322 323 324 323 322 322 327 324 322 321
326 326 326 325 324 325 325 324 324 325 325 326 326 325 325 324 324 322 322 323 324 323 322 321 321 320 321 322 320 320 321 322 322 323 324 322 323 322 324 323 323 322
326 326 327 325 324 323 325 324 324 325 326 326 325 325 325 324 322 321 321 322 321 320 321 321 321 320 320 320 320 319 319 321 321 321 322 322 323 323 322 325 322 321
327 326 326 325 323 323 323 324 324 326 326 325 325 325 324 323 322 320 320 320 319 319 320 319 320 320 318 318 318 319 318 318 320 320 320 320 321 322 323 322 321 321
326 326 326 324 324 323 323 324 325 325 326 325 325 324 323 322 321 320 319 318 318 317 319 318 318 318 317 317 317 316 317 317 318 319 320 320 320 321 322 322 322 320
324 325 324 324 323 323 323 324 324 325 325 325 324 323 323 322 321 320 318 317 317 317 318 318 317 317 316 313 314 314 316 317 318 319 319 319 320 321 324 322 321 321
322 322 323 324 323 323 324 324 324 324 324 324 324 323 323 322 321 319 318 316 316 317 318 317 315 315 315 314 313 313 314 315 317 317 318 318 319 320 321 321 321 319
322 322 323 323 322 323 324 324 324 324 324 323 323 323 322 321 320 319 317 316 316 316 315 313 312 311 311 312 313 311 311 313 314 315 316 317 318 319 320 320 320 319
321 322 321 321 321 322 323 323 324 323 323 321 322 322 321 321 318 315 314 314 313 311 310 310 309 308 307 309 312 310 311 313 314 316 316 316 316 316 317 318 318 317
321 321 321 319 320 321 321 321 321 321 322 321 321 320 319 316 314 314 312 310 310 309 308 308 307 305 304 304 309 313 312 313 313 315 316 315 314 314 315 315 314 313
321 321 321 320 320 320 320 321 321 321 320 318 318 317 316 315 314 313 311 310 308 307 307 306 304 303 301 299 299 308 312 314 313 315 316 315 314 313 313 313 313 313
320 320 321 320 320 320 320 320 320 319 318 317 316 316 314 313 312 310 309 308 307 305 303 302 301 299 296 293 298 306 312 312 312 313 314 315 314 313 311 311 311 312
320 319 320 319 319 319 319 319 318 317 315 315 314 313 312 311 310 308 307 306 304 302 301 301 299 296 294 297 300 303 308 314 314 313 313 313 313 312 312 314 316 316
318 318 318 318 317 316 317 318 318 316 314 313 312 311 310 308 306 305 303 303 302 301 299 299 298 294 294 297 300 302 303 310 314 314 314 314 314 315 315 315 314 313
315 316 316 316 316 316 316 316 314 312 311 310 309 307 305 303 302 301 300 299 299 299 297 297 296 295 294 297 300 302 303 308 315 315 315 315 315 315 315 314 313 312
311 312 313 313 314 313 312 311 310 308 307 306 305 304 303 301 300 299 298 298 297 297 297 296 295 293 294 296 300 302 303 307 315 316 315 315 314 315 315 315 314 312
307 309 309 310 311 310 309 308 307 306 304 304 302 301 300 299 298 298 297 297 297 297 297 295 294 292 293 296 300 302 305 314 315 314 313 312 312 313 315 316 314 310
304 305 306 307 308 308 307 306 305 304 304 303 301 300 299 298 298 297 297 296 296 295 295 294 294 293 293 295 298 302 306 314 314 313 311 309 309 309 311 311 310 308
303 303 303 304 305 305 305 305 305 305 305 304 302 301 300 300 299 298 298 297 295 294 294 294 294 294 293 294 295 297 304 312 312 311 309 307 306 305 304 304 305 307
302 303 303 303 302 303 304 303 304 304 304 304 304 303 302 301 300 298 296 296 295 295 298 294 293 294 293 292 294 295 302 306 308 308 307 306 304 301 299 298 296 297
302 302 302 302 302 302 303 303 303 303 303 303 302 301 300 299 298 297 295 294 295 294 295 294 294 293 293 292 293 293 296 303 304 305 305 305 304 302 298 297 296 295

ECMWFNIL_sfc_thetae_075.txt.gz
Theta_e
328 327 325 326 326 326 325 324 322 323 323 323 323 323 324 325 325 326 326 325 326 326 326 325 325 326 328 327 327 327 326 325 325 324 324 324 322 322 322 321 319 321
327 327 325 325 324 324 325 324 323 323 323 323 323 323 324 324 324 325 324 324 325 325 325 325 325 326 326 327 326 326 324 324 323 326 323 322 322 322 322 321 321 319
326 325 325 324 325 324 323 323 323 323 323 322 322 322 324 324 324 323 324 324 324 323 324 324 324 325 326 325 326 326 325 323 323 323 323 322 321 322 321 321 320 320
326 326 326 326 325 324 323 322 321 322 322 322 322 321 323 324 324 323 323 328 323 323 323 323 324 324 324 324 325 323 324 323 323 323 322 321 322 322 321 321 320 320
326 325 326 326 325 324 323 322 322 322 322 323 323 324 324 323 323 323 323 322 322 322 322 322 322 323 322 323 323 323 322 321 320 323 323 321 321 322 321 321 320 320
324 325 325 326 324 322 322 322 322 322 322 322 323 323 324 323 323 323 323 322 321 322 321 321 321 321 322 322 321 323 321 322 321 322 322 322 320 318 323 321 320 320
324 324 324 324 322 322 323 322 322 323 323 323 323 323 323 322 323 323 322 322 321 321 321 320 320 319 320 321 320 319 319 320 321 323 323 320 320 319 321 321 321 320
324 324 322 321 320 321 322 322 323 323 323 323 323 323 323 323 323 322 322 322 321 320 320 320 319 319 318 319 319 317 317 320 321 321 321 320 320 321 320 322 320 320
324 323 322 322 321 321 321 322 323 323 324 323 323 322 322 323 322 321 322 321 321 320 319 318 318 317 317 318 317 318 318 317 319 320 321 320 320 321 322 320 318 319
322 323 322 322 322 322 321 321 322 323 324 324 324 323 322 321 321 321 321 320 319 318 318 318 317 316 316 316 318 317 317 317 317 318 319 320 321 321 321 320 320 318
322 323 322 322 323 322 322 322 322 323 324 324 324 323 321 320 320 320 319 318 318 318 318 317 317 317 316 315 314 316 317 317 317 317 317 318 319 320 324 321 319 319
322 323 323 322 322 321 321 322 323 323 324 324 324 323 320 320 319 318 319 317 317 317 318 317 317 316 316 315 314 314 315 315 316 316 317 317 316 317 320 319 319 318
321 320 321 322 322 321 321 323 323 323 322 322 323 322 320 319 319 318 317 317 316 317 317 315 314 314 313 311 311 312 313 314 314 314 314 315 315 316 317 316 315 313
321 321 321 321 320 321 322 323 323 323 323 322 322 321 320 319 318 317 315 314 314 314 312 311 310 309 309 309 309 311 313 314 315 315 314 314 314 315 316 317 316 315
321 321 321 321 320 321 321 321 322 322 320 320 320 320 321 319 316 314 312 311 309 309 309 308 309 308 306 307 309 309 312 314 314 315 315 314 313 313 312 313 313 313
322 321 321 320 320 320 320 320 321 320 320 319 319 319 316 314 313 312 311 309 308 307 306 307 306 304 303 301 305 308 311 313 314 314 314 314 312 311 310 311 312 311
321 320 320 319 320 320 320 319 319 319 319 318 318 316 313 312 311 309 308 308 307 306 304 303 301 301 298 294 295 301 311 313 313 313 313 313 312 310 309 310 310 310
320 321 320 319 319 319 320 319 318 317 316 316 315 313 311 310 309 307 306 304 303 303 301 300 299 298 297 298 299 301 307 313 313 313 312 311 310 310 311 312 311 311
312 319 319 318 318 319 318 318 317 315 314 313 311 310 310 308 306 305 304 303 303 302 300 299 298 295 298 300 298 300 302 309 313 313 312 310 311 312 312 311 310 310
308 312 317 317 316 317 316 316 315 313 311 309 309 308 306 305 303 302 301 301 301 300 298 297 297 296 299 298 298 299 301 306 313 314 314 313 312 312 311 310 310 309
306 307 310 313 315 314 313 312 310 308 308 306 305 304 303 301 300 299 299 299 298 298 299 297 297 294 298 297 298 300 302 306 314 314 313 312 313 312 310 309 308 309
304 304 306 308 310 310 308 307 305 304 303 302 302 300 300 299 298 298 297 296 297 298 299 298 296 293 297 298 299 301 304 312 312 311 311 311 311 310 309 308 306 305
304 303 303 305 305 305 304 303 302 301 301 301 299 299 298 297 296 296 296 295 296 296 297 296 295 294 294 297 300 301 305 310 309 309 307 305 305 305 305 305 304 303
303 304 303 302 303 303 303 302 302 301 301 301 298 298 297 296 296 295 295 295 294 294 295 294 294 294 293 295 297 301 306 310 309 307 303 301 299 298 297 297 299 303
302 303 303 302 302 302 302 301 301 301 301 301 299 298 296 296 295 294 294 295 295 296 299 295 294 294 293 293 295 299 307 310 308 305 302 300 298 297 297 296 296 298
302 302 302 303 302 302 302 301 301 300 299 298 297 297 296 296 296 295 295 295 296 296 296 295 294 294 293 292 294 295 299 307 306 304 300 299 300 299 297 297 298 297

ECMWFNIL_sfc_thetae_078.txt.gz
Theta_e
326 325 325 325 325 325 325 325 325 325 324 324 324 325 325 326 326 326 327 327 328 328 328 328 328 327 328 328 328 328 327 327 327 326 326 325 325 324 323 323 322 323
325 325 326 325 325 324 325 325 325 325 324 324 324 325 324 325 325 327 326 326 327 328 328 327 327 327 327 327 327 327 326 325 325 326 325 324 324 324 324 323 323 322
325 324 325 324 324 324 324 325 324 324 324 324 324 323 323 324 324 325 326 326 326 326 326 326 326 327 327 327 327 327 326 325 324 325 325 324 323 324 324 324 323 322
325 324 325 324 324 324 325 324 323 323 322 322 322 323 324 325 325 325 325 329 326 325 325 325 326 326 327 327 326 326 326 325 326 325 325 323 323 324 323 323 323 322
324 325 325 324 324 324 323 323 323 322 322 323 323 323 324 323 323 324 324 325 324 324 324 325 325 325 326 326 326 325 324 324 324 325 324 323 322 323 322 323 322 322
325 325 325 324 324 321 320 322 323 323 323 322 323 324 323 323 324 324 324 323 323 323 323 323 323 324 325 325 325 325 324 324 324 324 324 323 321 322 323 323 322 322
325 323 324 324 323 323 322 322 323 323 323 324 323 323 323 323 323 324 324 323 323 323 323 322 323 322 323 324 324 323 323 324 323 324 324 323 323 321 323 323 323 323
325 324 323 322 322 322 322 322 322 323 323 323 323 323 324 323 323 324 324 323 323 323 322 322 322 323 322 323 323 322 322 323 324 324 324 323 323 323 322 323 323 323
324 324 324 322 321 321 321 322 322 323 323 323 323 323 323 323 323 323 323 323 323 322 322 321 322 322 321 322 322 322 321 321 323 324 324 322 322 323 323 322 321 322
321 322 323 322 320 320 321 321 322 322 323 323 323 323 323 323 323 323 323 322 322 321 321 321 320 320 320 321 321 321 321 321 321 323 323 323 323 323 323 322 322 320
321 320 320 321 320 321 321 322 322 322 322 323 323 323 323 322 322 322 322 322 322 321 320 320 319 319 319 319 319 320 321 321 321 322 322 323 323 323 325 323 322 322
322 321 321 321 320 321 322 322 322 322 323 323 323 323 322 322 322 321 322 322 322 321 321 320 320 319 319 319 318 318 319 320 320 321 321 321 321 322 323 322 321 320
321 321 322 322 320 320 321 322 322 323 323 323 323 323 322 321 321 321 321 321 321 321 320 320 319 318 318 317 317 317 318 318 318 318 318 319 319 320 320 319 318 318
318 322 321 321 321 321 321 322 322 322 323 323 323 323 322 321 320 320 319 319 319 319 319 319 318 317 316 316 316 316 317 317 317 317 317 317 318 319 318 318 318 319
314 320 322 321 321 321 321 321 322 322 322 322 321 321 320 319 318 318 316 315 315 316 315 315 316 316 314 313 313 313 315 316 316 316 317 316 316 316 317 317 317 319
311 316 321 321 321 321 321 322 322 321 321 320 320 320 319 319 317 314 315 315 313 312 311 312 312 312 311 308 309 313 314 315 316 316 316 316 315 314 314 314 314 315
309 311 315 320 320 321 321 321 321 321 320 319 319 319 318 317 315 313 312 312 312 311 309 309 308 307 299 298 300 305 313 315 315 315 316 315 314 314 313 311 311 311
307 309 311 316 320 320 321 321 321 319 318 319 318 316 316 314 313 312 310 309 309 309 308 307 305 301 296 294 295 300 307 315 315 315 314 313 312 312 312 311 311 310
306 307 309 312 318 320 320 320 320 318 317 316 316 315 313 312 310 308 307 306 307 306 305 305 303 297 298 298 297 299 302 309 315 314 313 311 311 312 312 311 311 311
305 305 306 308 312 317 318 317 317 316 313 312 312 311 310 308 307 305 304 304 304 304 302 301 300 296 297 296 296 298 300 306 313 312 312 312 312 312 311 311 311 311
303 304 305 306 307 309 313 313 311 308 308 306 306 306 305 304 304 302 301 301 301 301 301 300 298 295 295 295 297 299 301 305 314 313 312 311 310 310 310 310 311 311
302 303 303 304 304 303 303 303 303 303 302 302 301 300 300 300 300 300 300 300 301 302 302 300 299 294 295 296 298 300 303 312 313 312 310 309 308 307 306 307 308 308
302 302 302 302 302 302 301 300 300 300 300 300 298 297 296 296 296 297 298 299 299 300 300 299 299 296 295 296 298 300 305 311 310 308 307 305 304 303 304 304 304 303
301 302 301 301 301 300 300 300 299 298 298 298 296 295 295 295 296 297 297 298 297 298 298 298 298 296 295 296 298 300 305 309 307 303 301 299 298 299 300 301 303 303
300 301 301 301 299 299 299 298 297 297 297 297 297 297 296 297 297 295 296 296 297 297 299 297 296 296 294 295 297 300 305 306 304 301 299 298 298 298 299 298 298 298
299 300 300 301 300 300 299 299 299 298 297 297 297 297 296 296 296 296 295 295 296 296 296 296 295 295 294 293 295 297 300 306 304 302 300 299 300 299 299 299 299 298

ECMWFNIL_sfc_thetae_081.txt.gz
Theta_e
332 332 334 335 335 335 334 334 332 329 329 331 331 332 330 332 333 334 334 336 336 336 336 337 337 337 337 339 339 337 336 337 336 335 335 335 335 336 334 333 333 333
331 332 332 334 335 334 334 333 330 329 330 331 330 332 332 332 331 331 333 335 336 336 337 336 337 337 338 338 338 338 337 337 336 335 335 334 336 335 335 334 332 333
330 331 331 331 331 330 330 329 329 329 330 331 331 333 332 331 330 332 334 336 335 336 336 337 338 338 338 339 338 337 338 337 336 335 335 334 335 335 335 333 332 333
330 330 329 329 329 330 330 328 326 327 329 330 331 332 332 331 332 332 334 335 335 336 337 337 338 338 338 338 337 336 337 337 337 337 335 335 335 334 333 333 332 331
329 329 329 329 329 330 329 326 326 328 329 330 331 331 331 331 331 332 334 335 336 337 336 336 337 337 337 337 337 336 336 336 336 334 333 334 334 334 335 334 333 331
329 329 329 330 330 328 327 326 327 329 330 330 330 331 329 330 331 332 334 335 335 335 336 337 337 337 337 338 336 337 335 333 333 332 332 332 331 333 333 333 334 333
328 328 329 329 330 329 328 328 328 328 329 331 331 330 330 330 330 332 333 334 334 334 335 336 336 337 337 338 337 336 336 334 333 331 332 333 331 331 333 334 334 334
324 327 327 328 327 328 328 328 328 328 330 330 330 331 331 330 331 333 333 333 333 334 335 335 335 335 336 336 336 336 335 334 333 330 331 332 333 332 333 333 335 333
324 326 327 327 326 327 327 328 329 329 330 330 330 330 331 331 331 332 332 332 332 333 333 334 334 334 335 335 335 336 335 334 334 333 334 334 333 333 333 334 334 334
323 326 326 325 325 326 326 328 329 329 329 330 331 331 329 331 332 332 331 330 330 331 332 332 333 333 333 334 335 335 335 335 335 335 335 335 334 334 333 334 333 333
317 321 324 324 324 325 326 328 329 329 329 329 330 331 330 331 331 329 328 329 329 330 331 331 332 332 332 333 335 336 336 335 335 335 336 335 335 334 334 334 334 333
314 316 319 323 324 325 325 326 327 328 328 329 329 330 330 330 330 328 328 327 328 328 328 330 332 332 333 333 333 335 336 336 336 336 336 335 334 333 332 330 333 333
312 314 316 320 324 325 326 326 327 328 327 327 329 330 330 329 329 329 328 327 326 327 326 330 332 332 333 333 333 333 334 334 334 335 335 335 334 333 332 332 333 334
310 312 314 316 321 324 325 326 326 327 327 327 329 329 330 330 329 329 327 328 327 327 328 331 332 331 331 331 331 332 332 333 333 333 333 333 333 333 334 333 334 334
310 311 313 315 317 321 324 325 325 326 326 326 326 327 329 329 329 328 327 325 326 328 329 330 330 330 329 329 329 330 330 329 331 331 331 331 332 332 333 333 333 334
309 310 311 314 316 318 321 324 324 326 326 326 326 326 328 329 328 328 327 326 326 327 328 329 330 330 322 313 317 328 328 327 328 329 331 331 331 331 331 331 331 332
308 309 310 311 313 315 318 321 323 324 325 325 326 326 326 326 327 326 325 326 326 325 326 327 327 326 307 302 304 309 325 329 328 327 328 329 330 330 329 328 327 328
307 308 309 309 310 312 315 319 322 323 323 324 324 323 324 325 325 324 323 323 323 323 325 325 325 308 299 300 300 301 310 328 328 327 327 329 330 329 328 326 325 325
306 307 307 307 308 310 312 314 318 320 322 321 321 323 321 320 322 322 321 321 319 319 318 319 318 296 295 296 298 299 302 316 328 329 328 328 328 327 325 324 323 322
305 305 305 306 307 307 308 307 307 308 312 316 319 320 319 317 317 317 315 313 313 314 313 313 311 298 296 295 296 298 299 311 327 328 327 326 325 324 324 323 322 321
304 304 304 305 305 305 304 303 303 303 304 304 306 309 309 308 309 308 306 307 308 309 311 309 304 293 294 294 295 297 301 310 325 324 324 323 323 323 322 323 323 323
303 303 303 303 303 303 302 300 300 300 300 301 302 302 303 304 304 304 304 304 304 306 309 308 304 292 293 295 296 298 303 321 323 322 321 320 320 320 321 322 322 322
303 302 302 302 303 302 301 300 299 299 299 300 299 299 299 299 300 301 302 302 302 303 306 306 305 296 294 296 297 300 309 320 320 319 319 317 316 317 317 318 319 319
303 302 302 302 302 301 301 301 300 300 299 300 299 298 298 298 299 299 299 299 299 300 302 303 302 297 294 296 298 302 310 318 317 316 315 313 311 312 314 313 310 307
303 303 302 302 302 301 302 301 301 300 300 300 299 299 298 298 298 297 297 297 298 298 300 300 299 298 293 293 295 300 310 314 313 312 310 309 308 306 307 307 304 301
301 302 302 302 302 302 302 302 302 301 300 300 300 299 298 297 297 296 295 295 296 297 296 296 296 296 294 292 293 295 299 310 310 308 307 306 306 306 306 305 304 302

ECMWFNIL_sfc_thetae_084.txt.gz
Theta_e
336 336 335 337 337 337 336 335 337 337 336 334 333 333 334 336 337 337 337 337 337 337 338 338 337 337 337 341 342 339 337 339 336 338 338 338 338 336 335 335 337 334
334 335 333 335 335 337 338 340 339 337 337 337 335 335 336 335 336 334 336 337 339 338 336 336 337 337 340 339 340 339 338 337 334 338 339 339 338 337 335 334 337 338
333 333 334 335 336 337 338 339 337 336 336 336 336 334 335 336 335 334 336 337 333 334 337 339 335 339 339 339 340 337 336 338 335 339 339 338 337 336 335 337 337 338
331 333 334 334 335 335 337 336 337 337 337 336 334 335 335 335 335 334 334 334 335 336 336 338 339 340 339 339 337 338 336 338 338 339 338 338 337 336 334 335 335 338
328 330 333 334 334 335 334 332 332 334 334 333 335 337 335 335 334 334 335 335 337 336 336 338 337 338 341 339 335 333 335 337 337 337 336 336 336 335 337 338 338 337
327 328 331 332 334 333 333 331 332 334 333 334 335 336 336 335 334 334 335 336 336 337 337 337 338 340 335 335 335 336 336 333 335 336 335 334 335 337 336 337 336 335
326 329 330 332 333 333 331 333 333 333 334 335 335 335 336 335 335 335 335 336 336 336 338 337 338 336 334 336 336 337 336 336 336 337 335 334 336 337 336 335 334 333
325 327 329 329 329 331 330 331 332 333 333 335 335 335 336 335 336 336 335 336 335 333 333 335 335 334 339 338 336 335 335 335 337 337 335 334 336 335 335 334 336 329
323 324 324 326 329 330 329 329 330 332 333 333 334 335 337 337 336 336 335 335 334 333 333 335 332 333 334 335 335 334 334 337 338 338 337 337 334 334 333 333 332 330
321 322 323 323 325 328 329 330 330 331 332 332 333 335 334 337 337 337 336 335 333 334 335 334 332 331 333 333 333 335 336 336 336 338 339 337 336 335 331 332 332 333
320 319 319 319 320 324 327 329 330 330 331 331 331 332 335 336 336 337 336 335 335 334 334 333 333 331 331 331 331 334 335 335 336 336 338 336 335 333 332 332 333 334
318 318 317 316 317 320 322 325 327 329 330 331 331 331 333 334 331 335 335 335 334 333 334 334 334 332 331 329 332 333 336 335 336 336 334 335 332 333 332 333 333 334
317 317 316 316 317 318 321 323 326 328 329 330 331 331 332 332 332 332 334 333 334 334 334 334 334 333 332 330 330 332 336 335 336 336 332 330 331 332 333 335 335 335
316 317 316 316 317 318 320 323 325 326 328 328 330 330 330 330 331 331 333 333 333 334 334 334 333 332 332 331 330 331 335 336 336 336 335 333 333 333 334 335 337 336
315 316 316 316 316 316 317 319 322 324 326 327 328 329 330 331 331 330 330 330 333 334 335 334 333 333 332 331 330 331 333 336 335 334 335 334 334 334 335 335 336 336
314 314 314 315 315 314 315 317 319 323 326 327 328 328 329 330 332 332 330 330 330 332 334 333 333 334 328 316 318 331 333 334 336 336 335 335 336 335 334 335 334 334
313 312 313 313 314 314 314 315 316 319 322 325 327 327 328 329 329 328 329 328 329 329 331 333 334 333 313 308 309 312 329 335 335 335 336 335 334 334 332 333 334 333
312 312 312 311 312 312 312 313 314 315 314 315 319 325 328 328 328 327 327 327 328 329 331 331 332 313 303 305 305 307 314 333 334 334 333 333 332 331 331 332 333 334
311 310 310 310 310 311 311 311 311 311 311 312 312 314 321 324 326 326 326 327 329 326 326 328 327 301 300 301 301 302 304 317 332 331 330 330 331 332 330 328 329 329
311 310 309 309 310 310 310 309 309 309 309 309 309 309 309 312 314 316 317 319 321 324 325 326 318 297 293 295 298 299 300 308 332 331 330 329 329 329 328 329 330 329
310 310 309 308 309 309 309 308 307 307 307 308 307 305 305 305 306 308 310 312 313 315 317 314 307 293 293 293 294 296 297 301 328 330 330 330 331 331 331 330 331 330
309 309 309 308 308 308 307 306 306 306 305 306 307 306 304 304 305 305 305 306 309 312 313 310 304 292 293 294 293 296 296 322 329 332 331 332 332 333 332 333 332 331
308 308 308 308 307 307 306 305 305 305 305 305 304 304 303 303 302 301 302 303 303 305 306 305 302 294 292 294 295 295 303 325 329 328 329 330 331 331 330 331 332 330
307 307 307 307 306 306 305 305 305 305 305 305 303 302 302 302 301 301 301 300 300 300 301 301 301 296 292 292 292 292 299 325 325 326 327 327 327 327 327 323 313 305
306 306 306 306 306 306 305 304 304 304 305 304 303 302 301 301 301 300 300 301 300 298 299 299 299 297 292 292 293 293 303 322 322 323 323 322 321 318 318 316 313 306
307 305 304 304 306 306 306 305 305 304 304 303 303 302 302 302 301 301 300 299 299 297 297 297 297 297 293 291 293 295 296 314 317 319 318 318 317 315 313 311 310 308

ECMWFNIL_sfc_thetae_087.txt.gz
Theta_e
335 336 336 336 337 335 335 337 336 335 335 336 339 336 336 337 338 338 338 338 338 338 338 338 337 337 340 340 338 337 337 334 334 337 337 337 337 336 334 335 335 336
333 334 335 335 336 337 337 335 334 335 335 336 335 340 337 337 339 339 339 338 339 338 337 336 335 337 337 338 338 338 336 336 333 335 335 335 337 335 334 337 335 336
331 331 332 334 333 334 338 333 332 332 332 334 336 338 337 337 337 338 338 339 338 339 338 338 337 336 336 337 338 337 335 334 334 339 337 337 336 337 337 336 335 338
328 329 331 333 334 334 332 337 334 330 333 333 334 335 335 337 337 338 338 338 337 337 337 339 339 337 335 336 336 336 335 335 335 338 338 339 339 335 333 338 337 335
326 327 330 332 333 334 333 331 332 331 331 331 333 335 335 336 337 337 337 337 338 337 338 338 338 338 337 337 335 334 335 333 336 338 338 334 334 334 334 336 335 334
325 326 328 331 332 332 334 332 330 331 331 330 331 333 334 335 337 337 335 336 335 338 336 335 338 338 337 335 334 333 333 334 335 336 333 331 331 332 331 333 336 333
324 325 326 328 331 333 334 333 332 331 331 332 333 331 333 333 336 337 337 334 334 333 335 335 335 336 334 334 330 330 334 334 335 335 332 331 332 330 333 336 334 333
323 324 324 326 327 330 330 330 331 332 333 332 330 332 332 331 334 336 338 335 333 336 334 336 335 333 333 331 331 333 333 333 334 332 331 332 332 331 332 334 336 333
323 323 323 323 324 326 327 328 330 331 332 332 332 333 334 335 334 333 336 336 334 336 335 337 336 335 335 333 333 332 332 333 333 332 330 330 330 330 332 334 335 334
321 321 322 322 322 323 324 326 327 329 331 332 332 333 333 336 336 336 336 336 334 333 334 335 336 337 336 335 335 332 332 332 331 331 330 329 329 329 329 331 332 333
321 321 320 321 320 321 322 324 326 327 328 329 331 332 333 334 335 335 337 335 332 330 332 333 336 335 336 335 334 335 334 333 333 331 330 330 331 330 330 329 332 332
320 320 319 319 319 320 320 321 322 324 325 327 328 329 332 333 333 335 334 334 333 331 333 332 330 331 334 333 334 335 335 334 334 334 332 331 331 331 330 330 331 332
318 318 319 319 319 319 320 319 320 321 323 324 327 328 330 331 333 332 335 334 333 333 332 332 333 334 337 336 336 333 335 334 334 332 331 331 331 330 332 332 332 334
317 318 318 318 318 318 318 318 318 320 321 323 326 328 329 329 330 331 332 333 334 333 333 332 330 331 333 335 336 336 336 335 334 333 330 329 330 331 330 330 334 333
317 318 318 318 317 317 316 316 317 317 318 318 319 322 326 330 331 330 330 330 333 334 332 333 332 332 332 332 334 335 334 333 334 332 331 330 330 332 332 334 333 335
316 316 316 316 316 315 315 316 316 315 315 315 315 317 318 322 326 329 330 329 330 331 331 331 332 332 326 315 315 330 334 332 333 332 332 331 330 330 332 333 334 334
315 315 315 315 314 314 314 314 314 314 313 313 313 314 315 317 319 320 323 328 329 328 328 332 332 331 314 306 308 310 328 334 334 333 330 330 329 329 330 332 333 333
314 314 314 313 313 312 312 312 312 312 311 311 311 311 311 312 313 314 316 318 321 324 327 329 327 307 301 304 303 305 310 331 332 330 328 330 331 330 330 333 332 331
313 313 312 312 312 312 311 311 311 310 309 309 309 310 309 308 308 309 310 313 316 317 320 325 323 296 294 295 296 299 300 312 331 330 328 328 330 330 330 332 331 330
313 312 311 311 311 311 310 309 309 309 309 309 309 309 308 306 306 305 306 307 309 312 315 316 308 296 292 294 295 294 295 300 326 329 328 327 329 330 331 333 334 332
311 311 310 310 310 310 310 309 308 308 308 307 307 306 305 304 304 303 303 303 304 306 309 311 307 293 291 292 294 294 293 297 321 327 328 328 330 331 331 330 332 331
310 310 309 310 310 310 309 308 308 307 306 306 306 305 305 304 304 303 302 301 302 302 303 304 306 294 291 291 293 294 296 315 321 325 326 328 330 329 330 330 330 332
310 309 309 309 309 308 308 308 307 306 306 306 305 304 303 303 302 302 302 301 301 300 299 301 303 297 291 291 291 292 304 318 319 322 325 324 323 329 330 321 318 321
308 308 307 308 308 307 307 307 307 307 306 306 304 303 302 302 303 302 302 301 300 299 299 299 300 298 292 291 292 292 303 318 320 322 323 322 324 329 324 321 312 302
308 307 307 307 307 307 307 306 306 306 307 307 305 304 302 302 302 301 301 300 300 300 300 298 298 298 293 291 292 292 304 317 320 323 322 323 323 322 321 320 315 307
307 307 307 307 306 306 307 307 307 307 307 307 306 304 303 302 301 301 300 299 300 300 299 298 297 297 296 291 292 292 297 311 315 318 316 315 315 313 310 309 308 308

ECMWFNIL_sfc_thetae_090.txt.gz
Theta_e
329 329 329 329 331 334 334 335 335 334 333 333 332 333 333 334 336 337 337 337 337 336 337 337 337 335 336 337 337 335 334 334 334 335 332 331 330 332 332 333 334 332
326 327 328 329 330 333 333 334 334 333 332 332 332 333 333 333 333 334 335 336 336 336 336 337 335 336 335 334 334 334 333 333 333 335 333 333 331 332 332 334 334 334
325 326 326 327 329 332 333 333 333 334 332 331 332 334 334 334 333 333 333 334 334 336 336 335 333 334 335 334 333 332 332 332 332 333 333 333 334 334 333 334 332 333
325 325 326 326 328 330 333 333 332 332 333 332 332 333 333 335 334 332 333 334 334 334 334 331 333 335 334 332 332 331 332 333 333 333 332 332 333 334 332 332 331 331
324 324 325 325 327 328 330 331 331 331 331 332 333 333 333 333 334 334 332 332 332 333 332 331 332 332 332 332 332 332 332 332 334 333 332 331 332 331 331 330 329 329
324 323 323 323 324 325 326 329 329 330 330 331 331 332 333 332 331 332 332 331 334 332 332 332 331 331 331 331 332 331 332 332 334 333 331 330 331 331 332 330 329 328
322 323 323 323 323 323 324 324 325 327 329 330 332 330 332 333 331 330 330 331 330 330 331 331 330 328 328 330 331 331 333 332 333 333 332 331 331 330 332 331 328 328
322 322 322 322 322 322 322 321 322 324 326 328 330 331 331 330 331 331 332 332 329 332 332 331 331 330 330 331 330 330 331 331 331 330 328 329 330 328 328 329 328 327
321 321 321 321 320 320 320 320 320 321 323 324 325 328 330 332 331 330 330 331 329 329 328 328 330 331 332 331 330 329 330 331 329 328 329 329 329 328 328 328 327 327
319 320 320 321 318 318 319 319 319 320 321 322 323 325 326 329 331 330 330 329 328 329 330 329 329 330 332 332 332 331 330 328 328 328 329 330 330 330 330 330 328 328
318 318 318 318 317 318 317 318 318 318 319 320 321 320 322 324 328 331 331 330 326 327 329 328 329 331 331 330 331 332 330 328 328 328 330 330 331 331 331 329 328 327
317 316 316 316 316 316 316 316 317 317 317 317 318 318 319 320 322 324 328 329 330 328 327 328 330 328 328 328 329 329 330 331 330 329 330 329 330 331 329 330 329 328
315 315 316 315 315 315 315 314 314 315 315 314 315 315 315 316 318 320 322 324 327 330 328 328 329 330 329 329 329 329 329 329 329 329 329 331 330 331 330 330 329 329
315 315 315 314 314 314 313 313 313 313 313 313 313 313 313 313 313 314 317 320 320 324 328 328 328 328 327 328 328 329 329 329 329 328 330 331 331 331 330 330 329 328
314 314 314 313 313 312 312 311 311 311 311 311 311 311 311 311 311 310 312 313 316 319 322 326 327 321 311 311 320 328 330 328 328 330 331 330 329 330 330 330 329 329
313 313 312 312 312 311 311 311 310 310 310 310 309 310 309 309 308 308 308 308 310 312 316 320 314 304 303 299 298 305 321 327 328 329 329 329 329 329 330 330 328 326
312 311 311 311 311 311 311 310 309 310 309 308 308 308 307 307 306 305 305 305 306 307 309 314 309 301 296 294 294 296 306 321 325 326 328 328 329 329 329 329 329 328
310 310 310 310 310 309 309 309 309 308 308 307 307 306 306 306 305 304 304 303 304 304 305 308 308 299 293 293 293 293 296 306 320 325 324 327 328 329 329 328 325 326
309 309 309 309 309 309 309 309 308 307 306 306 305 306 305 304 304 303 303 303 302 301 302 303 306 297 293 293 292 292 293 297 312 322 327 327 328 329 329 328 325 323
308 308 308 308 308 308 308 307 306 306 306 306 306 305 304 303 303 302 302 302 301 301 300 301 303 297 293 292 292 291 292 293 308 316 323 326 327 328 329 329 327 325
307 307 307 307 307 307 307 306 306 306 305 305 305 304 303 302 302 301 301 301 301 300 300 299 300 295 293 292 291 291 291 294 309 317 321 324 326 327 328 328 327 327
306 306 306 306 306 306 306 305 306 305 305 305 304 304 303 303 302 302 300 300 300 300 299 298 298 294 293 292 292 291 292 303 313 317 321 325 326 324 322 321 322 326
305 304 305 305 305 305 304 305 305 305 305 305 304 303 302 302 302 301 301 300 299 299 299 298 298 296 293 292 292 291 294 303 312 317 321 323 322 319 314 310 308 311
304 304 303 303 304 304 304 304 304 305 304 306 304 302 302 302 302 301 301 300 299 299 299 298 298 297 294 293 292 292 294 301 309 317 321 321 320 316 313 309 305 302
304 303 303 302 301 301 302 302 303 303 304 305 304 303 302 302 302 301 301 301 300 299 300 298 298 297 295 293 293 292 294 300 311 316 314 312 310 308 307 306 306 302
303 303 303 302 301 301 301 302 302 303 303 303 303 302 302 302 301 301 300 300 300 299 299 299 297 297 296 293 293 293 293 297 305 307 308 306 305 305 304 303 302 301

ECMWFNIL_sfc_thetae_093.txt.gz
Theta_e
322 322 322 322 323 325 329 329 328 327 327 327 327 327 327 328 328 329 330 330 328 328 330 330 332 332 332 332 332 329 330 331 331 330 330 331 330 330 329 330 330 329
323 323 322 322 323 325 326 327 328 328 327 326 327 327 328 328 327 329 329 329 329 329 330 329 330 331 331 331 330 329 330 331 330 331 329 328 329 329 329 329 330 331
322 321 321 321 322 323 323 325 328 329 328 328 328 328 328 329 328 326 328 327 327 327 329 329 330 330 331 331 330 328 328 329 329 330 330 329 329 328 329 330 330 331
319 320 322 321 321 321 322 322 323 323 326 327 327 328 328 329 329 329 327 330 327 327 328 328 328 329 330 331 331 329 329 329 330 330 329 330 331 330 328 329 330 330
318 319 320 320 321 320 320 319 319 320 321 324 326 327 327 327 327 327 327 327 326 326 326 327 327 328 328 328 329 327 327 327 328 329 329 329 330 330 330 329 330 329
317 317 317 318 319 319 319 318 318 318 319 320 322 325 325 326 327 327 326 326 326 326 326 327 327 326 327 328 328 329 328 327 329 328 329 328 329 329 330 328 328 328
315 315 316 316 316 316 317 317 316 317 318 319 321 321 322 322 324 326 327 326 326 326 326 326 326 325 324 325 326 326 327 327 328 328 328 328 328 328 330 329 328 327
314 314 316 315 314 314 315 316 316 316 317 318 317 318 319 320 321 322 325 327 326 325 325 325 325 325 326 326 326 326 326 327 327 327 327 327 328 327 328 329 328 326
313 313 313 312 312 312 313 314 314 315 316 315 315 315 316 317 318 319 321 323 324 325 325 325 325 325 325 327 327 327 326 327 328 328 326 326 325 326 328 328 327 326
311 312 311 311 310 310 311 312 313 313 314 313 314 313 313 314 314 314 318 319 320 322 325 325 325 324 325 327 328 328 325 326 326 325 325 325 325 326 327 327 326 325
310 310 310 310 309 310 310 311 311 311 312 312 312 311 311 310 310 311 313 313 316 318 321 322 317 315 317 320 323 326 326 326 326 325 324 324 325 326 329 328 326 325
309 309 309 309 310 309 310 310 310 310 310 310 310 309 309 309 308 308 309 309 311 312 317 310 307 307 305 305 306 310 318 326 326 326 325 325 325 326 327 328 327 327
309 308 309 309 310 309 310 309 309 309 309 308 309 308 307 306 306 306 306 306 306 308 311 308 305 303 302 300 301 304 307 315 324 324 324 325 327 327 327 327 327 327
309 309 309 310 310 309 309 309 309 308 308 308 308 306 306 305 305 305 305 305 304 305 306 308 303 301 300 298 298 300 303 307 315 324 324 325 325 326 326 326 327 327
309 309 309 309 309 308 308 307 308 307 307 307 306 306 306 305 304 304 304 303 303 303 304 307 303 300 299 297 296 297 299 303 308 315 324 325 325 326 326 326 326 326
308 308 308 307 307 306 306 307 307 307 306 305 305 305 304 304 303 302 302 302 302 301 302 303 302 300 300 297 296 296 296 300 304 310 316 322 323 324 324 326 326 326
307 307 307 306 306 306 306 306 306 305 305 304 303 303 303 302 301 301 300 301 301 300 300 301 301 299 295 293 293 294 296 297 300 306 313 319 323 324 324 323 325 325
306 306 305 305 306 305 305 305 305 304 303 302 301 301 302 301 300 299 300 300 300 300 300 300 300 299 293 293 293 293 295 296 297 303 311 317 321 323 323 324 324 324
305 305 305 304 304 304 304 304 304 303 302 301 300 301 301 300 299 299 298 299 299 298 299 299 299 296 293 293 293 293 293 295 297 303 309 314 319 323 324 324 323 321
303 303 303 303 304 304 303 302 302 302 302 301 301 300 300 299 298 298 298 297 298 298 298 298 298 296 293 293 293 292 292 293 299 303 309 313 317 322 323 322 322 320
300 300 300 300 301 301 301 301 300 301 301 301 300 300 299 298 298 297 297 297 297 297 297 297 297 294 292 292 292 292 292 295 304 309 313 316 318 321 323 322 322 322
299 298 298 298 298 298 299 299 300 300 300 300 299 299 299 299 299 298 297 296 297 296 296 296 296 293 292 292 292 292 293 301 307 311 313 315 319 311 310 309 311 316
299 298 297 297 297 297 297 297 298 298 299 299 298 298 298 298 298 297 297 296 296 296 295 295 295 294 292 292 292 292 295 299 304 308 310 311 308 308 307 306 306 306
299 298 296 296 295 295 295 296 297 298 298 299 298 298 298 298 297 297 297 296 296 295 296 294 294 295 292 292 292 292 295 298 300 303 305 304 305 305 305 303 304 303
299 298 296 295 294 294 295 295 295 296 297 297 296 296 297 297 297 296 296 296 296 296 298 295 295 295 293 292 292 292 294 297 297 299 301 300 300 300 301 301 300 300
298 298 296 295 294 294 294 294 295 295 295 295 295 295 295 295 296 295 295 295 295 295 295 295 295 294 294 292 292 292 292 296 297 296 297 298 298 298 298 297 298 297

ECMWFNIL_sfc_thetae_096.txt.gz
Theta_e
320 320 320 321 321 322 322 322 323 323 324 326 325 326 327 328 328 327 327 327 327 327 327 327 327 327 328 329 329 329 330 330 330 330 329 328 327 328 328 328 328 328
320 321 319 319 319 320 321 321 321 321 321 322 324 325 326 327 328 328 327 326 327 327 326 327 327 327 327 328 328 329 329 329 328 330 329 329 328 327 327 329 329 329
317 316 315 316 317 316 317 318 319 319 319 320 322 323 323 324 325 327 328 328 327 326 326 326 326 327 327 327 328 328 329 328 328 328 328 327 328 327 328 328 328 328
317 317 315 315 316 316 315 315 315 316 318 318 319 321 321 321 323 324 325 327 326 327 327 326 326 326 326 327 327 328 329 329 329 329 327 327 328 327 327 327 327 327
315 315 314 313 313 314 313 313 314 314 315 316 317 318 317 318 319 320 322 323 325 326 327 326 325 325 326 326 328 328 327 326 327 327 327 326 327 328 328 327 327 327
312 312 312 312 311 311 312 312 313 313 314 313 314 314 314 315 315 315 318 320 322 323 325 326 326 326 326 327 328 327 327 327 327 327 326 326 326 327 328 328 327 326
309 309 309 310 310 311 311 311 311 312 312 313 313 311 312 312 311 311 315 316 318 320 314 312 314 315 318 322 325 326 326 327 327 327 326 326 326 326 328 328 328 327
308 308 308 308 309 310 310 310 310 310 311 311 310 310 310 309 308 310 311 311 314 315 309 309 309 309 308 309 311 314 320 326 326 326 325 324 325 325 326 328 328 326
308 308 308 308 308 308 308 309 309 309 310 308 308 308 308 308 307 307 308 307 309 311 308 307 306 306 305 305 306 307 309 313 322 326 326 325 324 324 326 327 326 326
308 308 308 308 307 308 307 308 308 308 308 307 307 307 306 307 307 306 306 305 305 306 307 304 303 302 302 302 302 302 304 306 310 316 324 325 324 324 325 326 325 325
308 308 307 307 307 307 306 306 306 306 306 306 306 305 305 305 305 305 305 304 304 304 307 302 302 301 300 299 299 300 301 303 305 309 315 322 325 325 325 325 325 325
307 306 306 306 306 306 306 306 305 305 305 305 304 302 302 302 302 303 304 302 302 303 304 303 301 300 299 298 298 298 299 300 302 306 310 316 323 325 324 324 325 326
305 305 305 305 305 305 305 304 304 304 304 303 303 301 300 300 301 301 302 302 302 302 302 302 300 300 299 298 297 297 297 298 299 303 307 311 318 324 325 325 325 325
305 305 304 304 304 304 304 303 303 302 302 302 302 301 300 299 299 300 300 301 301 301 301 302 300 299 298 297 296 296 296 297 298 300 304 308 312 320 324 324 325 326
305 305 304 304 304 303 303 302 302 301 301 301 301 300 301 299 299 299 299 299 300 300 300 301 299 298 297 296 295 295 296 296 297 299 301 305 310 316 322 324 324 324
303 303 302 302 302 302 302 302 301 301 301 300 300 300 299 299 298 298 298 298 298 299 299 299 299 298 299 296 296 295 295 296 297 298 300 303 307 313 319 323 323 324
302 302 301 301 301 301 301 301 301 300 300 299 299 299 298 298 298 297 297 298 297 298 298 298 298 298 295 292 293 294 296 296 297 297 299 301 306 312 316 319 321 323
299 299 300 300 300 300 300 300 300 299 299 298 298 298 298 298 297 296 296 296 297 297 297 297 297 297 292 293 293 293 295 297 298 299 300 303 306 310 314 318 320 322
297 297 297 297 298 298 299 299 299 299 298 297 297 298 297 296 296 296 295 296 296 296 296 297 297 295 292 293 293 292 293 297 303 305 306 306 308 311 314 317 319 320
296 296 296 296 297 297 297 297 297 297 297 297 297 297 296 296 295 295 295 294 295 296 296 296 296 295 292 292 292 292 292 296 301 306 308 310 309 308 308 308 309 313
295 294 295 295 295 295 295 295 295 295 295 296 295 295 295 294 294 294 294 294 294 294 295 295 296 293 292 292 292 292 292 296 300 304 304 304 305 305 305 304 305 305
293 293 293 293 294 294 294 293 293 293 293 294 295 294 294 294 294 294 294 293 294 294 294 294 295 293 292 292 292 291 293 299 299 301 301 301 301 302 302 302 303 302
293 293 293 292 292 292 292 292 292 292 292 293 292 292 293 293 293 293 293 293 293 293 293 293 294 294 292 292 292 291 294 298 299 300 299 299 299 299 300 300 301 301
293 293 292 292 292 291 291 291 291 292 291 292 290 290 291 292 293 292 292 293 293 292 294 292 293 294 292 292 292 292 294 296 297 298 298 298 298 298 298 298 299 301
293 293 292 291 291 291 291 291 291 291 291 290 290 290 290 291 293 291 291 291 292 292 296 293 292 293 293 291 292 292 293 295 296 297 297 296 296 296 297 297 297 298
293 293 292 292 291 291 291 291 291 291 290 290 289 289 289 290 290 290 289 290 291 291 291 292 292 292 293 291 292 292 292 294 295 295 295 295 295 295 294 295 296 296

ECMWFNIL_sfc_thetae_099.txt.gz
Theta_e
317 317 317 317 317 318 317 317 318 318 319 320 320 320 320 321 323 324 324 325 326 326 326 326 326 325 326 326 327 328 328 329 330 330 330 330 329 329 328 328 328 327
314 314 316 315 315 315 315 316 316 317 317 318 318 318 318 319 320 321 322 323 323 324 326 326 327 327 327 327 327 327 328 329 328 330 329 329 329 329 328 328 328 328
312 311 311 311 312 311 312 313 313 314 314 315 315 315 315 317 316 317 319 320 321 319 317 319 322 323 324 325 327 327 328 328 328 329 328 328 328 328 328 328 327 327
309 310 309 309 309 309 310 310 310 310 311 312 312 312 313 313 313 313 315 316 318 313 313 313 314 313 314 317 320 324 326 328 328 329 328 328 328 328 327 327 327 327
307 308 308 308 309 309 308 309 310 310 309 310 310 310 309 309 310 310 311 312 315 310 310 310 310 310 309 310 312 315 318 322 326 327 326 326 327 327 327 327 326 326
306 307 308 308 308 308 308 309 309 309 308 308 308 309 308 308 308 308 308 308 312 310 307 307 306 306 306 307 307 308 310 312 314 317 322 325 326 327 327 327 326 326
306 307 307 309 308 308 308 307 308 307 307 307 307 306 307 306 306 306 306 306 307 309 305 304 304 303 303 304 304 304 304 307 310 311 313 318 324 326 327 327 326 326
308 308 308 308 307 306 306 306 305 305 305 305 304 305 305 305 305 305 305 305 305 307 305 303 302 302 302 301 301 300 301 302 304 305 307 311 316 321 325 326 326 325
307 307 307 306 305 305 304 304 303 303 303 301 301 302 303 304 304 304 304 303 303 304 304 302 301 301 301 300 299 299 299 300 301 302 303 306 310 315 320 324 325 325
306 306 304 304 303 303 302 302 302 302 302 300 300 300 300 301 303 303 303 302 302 302 302 302 301 300 299 299 298 298 298 298 299 300 301 303 306 311 316 321 324 324
304 303 302 302 302 302 301 301 301 301 301 301 299 299 299 299 300 302 301 301 301 301 301 300 300 299 298 298 297 297 297 297 298 299 300 301 303 307 313 317 322 323
301 301 301 302 302 301 301 301 301 300 300 300 300 298 298 298 298 299 300 300 300 300 300 300 299 298 298 297 296 296 296 297 297 298 299 300 301 304 308 312 318 323
301 301 301 301 301 301 301 300 300 300 300 299 300 298 297 297 297 297 299 299 299 300 299 299 299 298 297 297 296 295 296 296 296 297 299 300 302 303 305 308 313 321
301 301 301 302 301 300 300 300 300 299 299 299 299 298 297 297 296 297 298 298 299 299 299 299 298 297 297 296 295 295 295 296 296 297 299 300 301 303 304 307 311 317
300 301 300 300 301 300 299 299 299 299 299 298 298 297 298 297 297 297 297 297 298 298 298 298 298 297 297 295 294 294 295 295 297 298 299 300 302 303 305 307 311 315
299 300 299 299 299 299 299 298 298 298 298 297 297 297 296 297 296 296 296 297 297 297 297 298 298 297 298 296 295 295 295 296 298 300 303 304 304 304 306 309 312 314
297 297 297 297 297 298 298 298 298 297 296 296 296 296 296 296 295 294 294 296 296 296 296 297 297 297 294 292 292 294 296 297 299 302 305 306 306 305 305 307 307 308
295 295 295 295 295 295 296 296 296 296 296 295 295 295 295 295 294 294 294 294 295 295 296 296 296 296 292 292 292 292 295 297 300 302 303 303 302 303 303 303 303 304
294 294 294 293 294 294 294 294 294 294 294 294 294 295 294 294 293 293 293 293 293 293 294 295 295 294 292 292 292 292 292 296 300 301 301 301 301 301 301 301 301 301
293 292 292 292 292 292 292 292 292 291 292 293 293 293 292 292 292 292 292 292 293 292 293 293 294 294 292 292 292 292 292 294 299 300 300 300 300 300 300 299 299 300
292 291 291 291 291 291 291 290 290 290 290 291 291 291 291 291 290 291 292 292 292 292 292 292 293 293 291 291 292 291 292 295 297 299 299 299 299 299 299 298 299 299
291 290 290 290 290 290 290 289 289 289 289 290 290 289 290 290 290 290 290 290 291 291 291 291 292 292 291 291 292 291 293 296 296 297 297 297 297 297 297 298 298 298
290 290 290 290 289 289 289 288 288 288 288 290 288 288 289 289 289 289 289 289 290 291 291 290 291 293 291 291 291 291 293 295 296 296 296 296 296 297 297 297 297 298
290 290 289 289 289 288 288 288 288 288 288 289 287 287 288 288 289 288 289 289 289 289 292 290 291 293 292 291 291 291 293 294 295 294 295 295 295 296 296 296 297 299
290 290 289 288 288 288 288 288 288 288 288 288 287 287 288 287 291 288 288 289 289 290 294 291 290 292 292 291 291 292 293 293 294 293 294 294 294 294 295 295 295 296
290 291 289 288 288 288 288 288 288 288 287 287 287 287 288 288 288 288 287 288 289 289 290 290 291 291 292 291 292 292 292 293 293 292 292 293 293 293 293 293 294 294

ECMWFNIL_sfc_thetae_102.txt.gz
Theta_e
311 312 312 311 311 312 312 312 313 313 313 314 313 313 314 315 315 316 318 319 317 314 315 316 316 314 316 319 320 324 327 328 329 330 329 329 329 329 328 328 328 327
309 310 311 309 309 309 310 311 310 310 310 311 311 311 312 312 312 314 314 317 314 312 312 312 313 311 311 312 314 318 320 323 325 328 328 328 328 329 328 328 328 329
308 307 307 307 307 307 308 309 309 308 309 309 309 309 309 311 310 310 311 314 313 310 309 309 309 308 308 309 310 312 313 315 317 317 320 324 327 327 328 328 328 328
306 307 307 307 307 307 307 307 307 307 307 307 307 308 308 308 308 308 308 310 311 309 307 307 306 305 305 306 307 308 308 310 311 312 313 316 321 325 326 327 327 327
306 306 307 307 307 307 306 306 305 305 305 305 306 306 306 306 307 306 306 306 308 309 305 304 304 304 304 304 304 304 304 305 306 307 309 310 314 317 321 325 326 326
306 307 307 306 306 305 304 303 302 302 302 302 303 304 304 305 305 305 304 304 305 307 305 303 303 303 302 302 302 302 301 302 303 304 304 306 308 311 315 319 323 325
305 306 305 305 304 304 303 302 301 301 301 301 301 301 302 303 304 303 303 303 303 304 303 302 301 301 301 300 300 299 300 300 301 301 301 302 304 306 310 313 317 321
304 304 304 304 303 302 302 301 301 300 300 300 299 300 301 301 302 302 302 302 302 302 301 301 300 299 299 299 298 298 298 299 299 299 300 300 302 303 305 307 310 313
303 302 302 301 301 301 300 300 300 301 301 299 299 299 300 300 301 301 301 301 301 301 301 300 299 299 299 299 298 297 297 297 298 298 299 300 300 301 302 304 306 309
302 302 301 301 300 300 300 300 300 300 301 299 299 299 298 299 300 300 301 300 300 300 299 299 299 299 298 298 297 297 296 296 297 298 298 299 300 301 302 304 305 306
301 301 301 301 300 300 300 300 299 299 300 299 298 298 298 298 298 300 299 299 299 298 298 298 298 298 298 297 296 296 296 296 297 297 298 299 300 301 304 304 305 305
301 301 300 300 300 299 299 299 299 299 298 299 298 297 297 297 298 298 299 298 298 298 298 298 298 298 297 296 295 296 296 297 297 298 298 299 301 302 303 304 305 306
300 300 300 299 299 298 299 299 299 298 298 297 298 297 296 296 297 297 298 298 298 298 298 298 298 297 297 295 295 295 296 296 297 298 299 301 302 304 306 307 307 307
299 300 300 300 300 299 298 298 298 298 297 298 298 296 296 295 295 296 297 298 298 298 298 298 297 297 296 295 295 295 296 297 298 299 301 303 305 305 305 306 307 307
298 299 298 298 298 298 298 297 297 297 297 297 296 296 297 296 295 295 295 296 296 297 297 298 297 296 296 295 294 295 296 297 298 300 302 302 302 302 303 303 303 304
296 297 296 296 296 296 296 296 296 296 296 296 296 295 295 296 295 295 295 295 294 295 296 296 296 296 297 295 295 295 296 297 299 301 301 301 301 300 300 301 301 301
294 294 294 294 294 294 294 294 294 295 294 294 294 294 294 295 294 293 293 294 294 294 294 295 295 295 293 292 292 294 297 298 299 300 300 300 299 299 298 299 299 300
293 293 293 292 293 292 292 292 293 293 293 293 293 293 293 293 293 293 293 293 293 293 294 294 295 295 292 292 292 292 295 298 298 299 299 298 298 298 298 297 298 298
292 291 291 291 291 291 291 291 291 291 291 291 291 293 292 291 291 292 292 292 293 292 293 294 294 294 292 292 292 292 292 296 298 298 298 297 297 297 297 297 297 298
291 291 290 290 290 290 290 290 290 289 290 291 291 291 291 291 291 291 291 291 292 292 292 293 294 294 291 292 292 291 292 294 297 297 297 297 297 297 297 296 296 297
290 290 290 289 289 289 289 289 289 289 289 290 289 289 289 289 289 290 291 291 291 291 292 292 293 292 291 291 291 291 292 294 296 296 297 296 296 296 296 296 296 297
289 289 289 289 289 289 288 288 288 288 288 290 290 289 289 290 290 290 290 290 291 291 291 291 292 292 291 291 291 291 292 294 295 295 295 295 295 295 295 296 296 296
289 289 289 288 288 288 288 287 288 288 288 290 288 288 288 289 289 289 290 289 291 291 291 291 292 292 291 291 291 291 293 293 293 293 294 294 294 295 295 295 295 296
289 288 288 288 288 287 287 287 288 288 288 289 287 288 288 288 290 289 290 290 290 290 293 291 291 293 292 291 291 291 293 292 292 292 293 293 293 294 295 294 295 297
289 288 288 287 287 287 288 287 288 288 289 288 288 288 289 288 291 289 289 290 290 291 294 291 292 293 292 291 291 291 292 293 292 292 292 292 292 293 293 293 293 295
289 290 289 288 287 287 288 288 289 288 287 288 288 288 288 288 289 289 288 289 290 290 291 291 292 292 293 291 292 292 292 292 292 291 291 291 292 292 291 292 293 293

ECMWFNIL_sfc_thetae_105.txt.gz
Theta_e
317 317 316 315 315 316 315 315 315 315 315 315 315 315 315 316 317 317 318 318 316 314 314 314 314 313 314 315 316 318 319 320 321 322 322 324 325 328 328 329 329 331
315 315 315 315 314 314 314 314 314 314 314 314 314 315 316 316 315 315 315 316 316 312 311 311 311 311 311 312 312 313 314 315 316 318 316 318 321 323 324 326 329 330
313 313 313 312 312 313 313 313 313 313 312 312 313 313 313 314 314 313 314 314 314 312 310 310 310 309 309 310 310 311 311 311 312 313 313 315 317 318 319 321 322 325
312 312 311 311 310 309 310 309 309 310 311 310 310 311 312 312 312 312 312 312 311 310 309 309 308 308 308 308 308 308 309 309 310 310 310 312 314 314 314 316 318 319
310 310 309 309 308 308 308 307 307 307 308 308 309 309 310 310 309 309 309 308 308 307 306 306 306 306 306 306 306 306 306 306 307 307 307 308 310 311 312 313 313 314
309 308 308 307 307 307 307 306 306 306 306 306 307 308 308 308 307 306 306 306 306 305 304 304 304 305 305 305 305 305 305 304 305 305 305 306 307 309 310 310 310 311
307 307 307 307 307 307 306 306 306 306 306 306 306 306 307 306 306 305 305 305 304 304 303 304 304 304 304 304 304 303 303 304 304 304 303 304 305 306 308 309 309 310
307 307 307 307 306 306 306 305 306 305 305 305 305 305 306 305 305 305 304 304 303 303 303 304 304 304 304 303 302 301 302 303 302 302 302 303 304 304 306 307 308 308
307 307 306 306 305 305 305 304 305 305 305 304 304 304 305 304 304 304 303 303 303 303 303 303 303 303 303 302 301 300 301 301 302 302 302 303 303 304 305 306 307 308
306 306 305 305 305 304 304 304 304 304 305 304 303 304 304 304 304 303 303 303 303 303 303 303 303 303 303 302 301 300 300 300 301 302 303 304 305 305 306 307 307 307
305 305 304 304 304 304 304 304 304 304 304 303 303 303 303 304 304 304 303 303 302 302 302 302 302 302 302 302 301 301 300 301 302 303 304 305 306 306 307 306 306 307
304 304 304 304 304 304 304 304 304 303 303 303 303 302 302 303 303 303 303 302 302 303 302 302 302 301 301 300 300 301 301 302 303 304 305 305 305 306 306 306 305 305
304 304 303 303 303 303 303 303 303 303 302 302 302 302 301 302 302 302 303 302 302 302 302 301 301 301 300 299 300 301 302 302 303 304 305 305 305 305 305 305 304 304
303 303 303 303 303 303 302 302 302 302 302 302 302 302 301 301 301 301 302 302 301 301 301 301 300 299 298 298 299 300 301 302 303 303 303 304 304 304 305 304 304 303
303 302 302 302 302 302 301 301 301 301 301 301 301 301 302 301 301 301 300 300 301 301 300 301 300 299 298 296 297 299 301 302 302 303 303 302 303 303 303 303 303 303
301 301 301 301 301 300 300 301 301 301 301 300 300 300 301 301 300 300 300 300 300 300 300 300 299 298 296 294 295 297 299 301 302 303 302 302 302 301 302 302 302 302
300 299 300 299 300 300 300 300 300 300 300 300 300 300 300 300 300 300 300 300 299 299 299 299 298 297 293 292 292 293 298 301 301 301 302 301 301 300 299 300 300 301
299 299 298 299 299 299 299 299 299 299 299 299 299 299 300 300 299 299 299 300 300 299 299 299 298 295 291 292 292 292 294 299 301 300 300 300 300 299 299 299 299 299
298 298 298 298 298 298 299 299 299 298 298 298 299 299 300 299 299 299 299 299 299 298 298 298 298 293 292 292 292 291 291 296 300 300 300 300 299 299 299 298 298 298
297 297 297 297 298 298 298 298 298 298 298 299 299 299 299 299 299 299 299 298 299 299 298 298 298 294 292 292 292 291 291 294 300 300 300 300 299 299 298 298 297 297
297 297 297 297 298 298 298 298 298 298 298 298 299 298 298 298 298 298 298 298 299 298 298 298 297 292 291 291 291 291 291 295 300 299 299 299 299 299 298 298 297 297
297 296 297 297 297 297 297 297 297 298 298 298 299 299 299 299 298 299 298 298 298 298 298 298 298 292 291 291 291 291 293 299 299 298 298 298 298 298 298 298 298 297
297 296 296 297 297 297 296 297 297 297 298 299 298 298 298 298 298 298 298 297 298 298 297 297 298 294 291 291 291 290 295 299 298 298 297 297 297 298 298 298 297 297
297 297 296 296 296 296 296 297 297 298 297 298 298 297 297 298 298 298 298 298 297 297 297 297 298 296 291 291 291 291 294 298 298 297 297 296 296 297 297 297 297 297
297 297 296 296 296 296 297 296 297 297 298 299 298 298 298 298 298 297 297 298 298 298 297 298 298 297 292 291 291 291 294 298 297 296 295 295 296 296 297 297 297 296
297 297 297 296 296 296 297 296 297 297 298 298 298 298 297 297 297 297 297 297 298 298 298 298 297 298 296 291 291 291 291 296 297 295 295 295 295 295 295 296 296 296

ECMWFNIL_sfc_thetae_108.txt.gz
Theta_e
322 322 321 320 319 319 319 319 320 319 319 319 319 319 318 319 319 320 320 320 319 318 319 319 319 320 319 320 320 320 321 321 321 322 322 322 323 324 324 325 325 324
319 319 319 319 318 318 318 318 318 318 317 318 318 318 319 318 318 318 318 318 318 317 317 316 317 316 316 316 316 317 317 317 317 318 317 318 320 322 322 323 323 323
317 317 317 316 315 316 317 318 318 317 316 316 317 317 316 317 317 317 316 316 315 315 314 315 314 314 314 314 314 315 314 314 314 314 314 315 316 317 318 319 320 321
315 315 316 316 316 315 316 317 317 317 316 315 315 315 315 315 315 315 315 314 314 313 314 314 314 313 313 313 314 313 313 313 312 312 312 314 315 314 315 316 317 317
315 315 315 315 315 315 316 314 314 314 314 314 315 315 314 314 314 313 313 312 313 312 313 313 313 312 312 312 313 312 312 311 312 312 311 312 313 314 314 314 315 315
315 315 315 314 315 315 314 313 313 313 312 313 313 314 313 313 311 311 311 311 311 311 311 312 311 311 312 312 312 311 311 311 311 311 311 311 312 313 313 314 314 314
314 314 314 314 314 314 314 313 313 313 312 313 313 312 312 311 310 310 310 311 310 310 310 311 310 311 311 311 311 310 310 310 310 310 310 311 312 312 313 313 313 313
313 314 313 313 313 313 313 312 312 312 313 313 312 311 311 310 310 310 310 310 310 310 310 310 310 310 310 310 309 309 309 309 309 310 310 310 311 311 312 313 314 313
313 313 312 313 312 312 312 311 311 312 312 312 311 311 311 310 310 310 310 310 309 309 309 308 308 308 309 309 309 308 307 308 309 309 309 309 310 310 311 312 312 313
312 312 312 312 312 311 311 311 311 311 311 311 310 311 310 310 310 310 309 309 308 308 307 307 306 307 307 308 307 307 307 308 308 308 309 309 310 310 310 310 311 310
311 311 311 311 311 311 311 311 311 310 310 309 310 309 310 310 310 309 308 307 307 306 306 305 305 305 305 305 307 308 308 308 308 308 309 309 310 309 310 309 309 308
310 310 310 310 310 310 310 310 310 310 310 309 309 309 309 309 308 308 307 306 306 305 305 305 305 304 304 304 305 307 308 308 308 309 309 308 309 309 309 309 308 308
309 309 309 309 309 309 309 309 309 309 309 308 308 308 308 307 307 307 307 306 305 305 304 304 304 303 302 303 303 305 306 307 307 308 308 308 308 308 308 308 308 307
308 308 308 308 308 308 308 308 308 308 308 308 308 307 307 306 306 306 306 306 306 305 305 304 304 302 301 300 301 303 306 306 306 307 306 307 308 307 308 307 307 306
308 308 308 308 307 307 307 307 307 307 307 307 307 307 307 306 306 306 306 305 305 305 304 304 303 301 299 298 299 301 305 305 305 305 306 305 305 305 306 305 305 305
306 307 306 307 306 306 306 307 307 307 306 306 306 306 306 306 306 306 306 305 304 304 305 304 302 300 296 294 295 298 303 304 305 305 305 305 304 303 303 304 304 304
306 306 306 305 306 306 306 305 305 306 305 305 305 306 306 306 306 306 306 305 304 304 304 303 302 298 293 292 292 293 299 304 304 304 304 304 303 302 301 302 302 302
305 305 304 304 304 304 305 305 305 305 304 305 305 305 306 307 306 305 305 306 305 304 303 303 301 294 291 292 292 291 294 302 305 304 303 303 302 302 301 301 301 301
304 304 303 303 303 304 305 304 304 304 304 304 304 305 306 305 305 305 305 305 305 304 303 302 300 293 291 292 292 291 292 297 304 303 302 302 302 301 302 301 300 300
303 303 303 303 303 304 304 303 303 303 305 305 305 305 305 305 305 305 304 304 304 304 303 302 299 293 291 291 292 291 291 294 305 303 303 302 301 301 301 301 300 299
302 303 302 302 303 303 304 303 304 304 304 304 304 304 304 303 303 304 304 304 304 304 304 302 299 291 291 291 291 291 290 295 305 303 303 303 302 302 301 301 300 299
301 301 302 302 302 302 303 303 303 304 303 304 304 304 304 304 304 303 303 303 303 304 303 302 299 291 291 291 291 291 291 304 303 303 302 301 301 301 301 301 300 299
300 300 301 301 302 302 302 303 303 303 304 304 303 304 303 303 303 303 303 303 302 303 303 301 300 294 290 291 291 290 296 304 303 302 301 301 301 301 301 301 300 299
300 300 300 301 302 302 302 302 303 303 303 304 303 303 302 303 303 303 303 303 302 301 302 301 300 296 291 291 291 290 294 303 302 301 302 301 301 301 301 301 300 299
300 301 301 301 301 302 302 302 302 302 303 304 303 303 303 303 303 303 303 303 303 301 299 301 301 298 292 291 291 291 295 303 301 301 300 300 300 300 301 300 300 300
301 301 301 301 301 302 302 302 303 303 303 303 303 303 302 302 302 303 302 302 303 302 301 301 301 300 297 290 291 291 291 299 301 299 299 299 300 299 299 300 300 301

ECMWFNIL_sfc_thetae_111.txt.gz
Theta_e
324 325 324 322 321 322 322 322 321 321 321 321 320 320 319 320 320 320 320 321 320 319 319 319 319 319 319 319 319 319 319 320 319 319 318 318 318 319 318 319 320 320
322 322 322 322 321 320 320 321 321 320 319 320 320 319 319 320 320 320 319 319 319 318 318 319 318 318 318 318 318 318 317 317 317 317 316 317 317 317 317 317 318 318
320 320 320 320 319 319 319 320 320 319 319 319 319 318 318 319 318 318 318 318 318 318 317 317 317 317 317 317 317 317 316 316 315 316 316 316 316 316 317 317 317 317
319 320 319 319 319 319 320 320 319 319 319 318 317 318 318 318 318 317 317 317 317 316 317 317 316 316 316 317 317 315 315 315 315 315 315 316 316 315 316 316 316 316
318 318 319 318 318 318 318 317 317 317 317 317 318 318 318 317 316 316 316 316 316 316 316 316 316 316 316 316 315 314 314 313 314 313 313 313 315 315 315 315 315 315
318 318 317 317 317 318 317 316 316 316 316 317 317 317 316 316 315 315 314 314 314 314 314 314 314 314 315 314 314 313 312 311 312 313 312 312 313 314 314 314 314 314
316 317 317 317 317 317 317 317 316 317 317 316 315 315 315 314 314 314 313 313 312 312 311 311 312 312 313 314 312 312 312 312 311 311 311 311 312 313 314 314 313 312
316 316 316 316 316 316 316 316 316 316 316 315 314 314 314 313 313 313 313 312 311 310 310 309 309 310 311 312 311 311 311 311 311 310 310 311 312 311 312 312 312 310
315 315 315 315 315 315 315 314 315 316 315 315 313 313 314 313 312 312 311 310 309 309 308 308 308 308 309 310 310 310 310 310 311 310 310 310 310 310 310 311 310 310
314 314 314 314 315 314 314 314 314 314 314 314 313 313 312 312 312 310 309 309 308 308 307 306 306 306 307 308 309 309 310 309 310 310 309 309 309 309 309 309 308 308
313 313 313 314 314 313 313 313 314 313 313 312 312 312 311 311 311 310 308 308 307 306 306 305 305 305 305 306 308 309 310 309 309 309 309 308 309 309 309 308 308 307
312 313 313 313 313 313 313 312 312 313 312 312 311 310 310 310 310 309 308 306 306 306 305 305 305 304 304 304 306 308 309 309 309 308 308 308 307 308 307 307 306 306
312 312 312 312 312 312 312 311 311 312 311 310 310 310 309 309 308 308 308 307 306 305 305 304 304 303 303 303 305 307 308 308 308 307 308 307 307 307 307 307 306 305
311 312 311 311 311 311 310 310 310 310 310 310 310 309 309 308 308 307 307 307 306 305 305 304 303 302 301 301 303 305 307 308 307 307 306 306 307 305 306 306 305 305
310 311 311 310 310 310 310 309 309 309 309 309 309 309 309 308 308 307 307 306 306 305 304 303 302 301 300 299 300 302 303 306 306 306 305 305 304 304 305 305 305 304
309 310 309 309 309 308 308 308 308 308 308 308 308 308 309 309 308 308 306 306 304 304 304 303 301 300 296 294 294 298 302 306 306 305 305 304 304 304 304 304 304 303
308 308 308 308 308 308 308 307 307 307 307 308 308 308 308 308 308 307 307 305 304 303 303 303 301 297 292 292 292 293 299 304 305 305 304 304 303 303 302 302 303 302
307 307 307 307 307 306 306 306 307 307 307 307 308 308 308 308 308 307 307 306 305 304 303 302 300 294 291 292 292 292 294 300 306 305 304 304 303 303 302 302 301 301
306 306 306 306 306 306 306 306 306 306 306 306 306 307 308 307 307 307 307 307 305 303 302 301 299 293 291 292 292 291 292 296 305 304 304 303 303 303 302 301 301 300
305 306 305 305 306 306 306 305 305 305 306 306 307 307 306 306 307 307 307 306 305 304 302 301 298 293 291 291 292 291 292 293 305 304 304 303 303 303 302 301 301 300
305 305 305 305 305 305 306 305 304 305 304 305 305 305 305 305 305 306 306 306 305 304 302 300 298 291 291 291 291 291 291 296 306 305 304 304 304 303 303 302 302 301
305 305 305 305 305 305 305 304 304 304 304 305 305 305 305 305 305 305 305 305 306 304 302 300 299 291 291 291 291 291 291 305 305 305 304 304 303 303 303 303 302 300
304 305 304 304 304 304 304 304 304 303 304 305 304 304 304 304 304 304 304 304 304 304 303 300 299 294 291 291 291 291 295 305 305 304 303 303 303 303 303 303 302 300
303 303 303 303 303 303 303 304 304 304 304 305 304 304 303 304 305 304 303 303 303 303 303 301 299 295 291 292 291 291 294 303 304 304 303 303 303 303 303 303 303 300
303 303 303 302 302 303 304 304 304 304 304 305 305 305 304 305 305 304 304 303 302 302 301 302 300 297 293 291 292 292 295 303 303 303 303 302 302 302 303 302 302 302
303 303 303 303 303 303 304 304 305 305 305 305 305 304 304 304 304 304 304 304 303 302 301 301 301 300 297 291 292 292 292 299 303 302 301 302 302 301 300 301 301 301

ECMWFNIL_sfc_thetae_114.txt.gz
Theta_e
326 324 323 322 322 323 322 321 322 320 321 320 319 318 318 320 319 319 319 319 318 318 318 318 317 317 318 317 318 317 316 316 315 314 315 316 316 316 315 315 316 315
323 323 322 321 321 321 321 322 321 320 319 320 319 320 320 319 318 318 318 318 317 316 317 316 316 316 316 315 316 315 315 314 312 315 314 314 314 314 315 315 315 315
322 322 321 320 319 320 320 320 320 319 319 318 319 319 318 320 319 319 318 318 317 317 317 316 316 316 315 315 315 314 313 312 311 312 313 313 314 314 315 315 314 314
320 320 319 319 320 319 320 319 319 319 319 318 317 318 318 318 319 318 317 317 316 315 315 315 314 314 314 314 313 312 312 311 311 312 312 313 313 313 313 313 313 312
319 319 319 319 319 319 319 317 317 317 317 317 317 317 317 318 316 315 315 314 313 312 312 312 313 313 314 313 313 312 312 311 311 312 311 311 312 312 312 311 310 309
318 317 317 317 317 317 316 316 316 316 316 315 316 316 316 315 314 312 312 311 310 310 309 310 309 311 312 312 312 311 311 310 310 310 309 310 310 311 311 310 309 308
316 316 316 316 316 317 316 316 316 315 315 315 315 315 315 313 312 310 309 309 308 308 307 307 307 308 309 310 310 310 310 310 310 309 308 308 309 308 309 308 307 307
316 316 315 316 316 316 316 315 315 315 315 314 314 314 313 310 310 310 309 308 307 305 305 305 306 306 307 309 309 309 309 310 309 308 307 307 307 306 306 307 306 305
315 314 315 315 315 315 315 314 314 314 314 313 312 311 311 310 309 308 307 306 305 305 304 304 304 305 306 307 308 308 307 308 308 307 306 305 305 304 304 305 304 303
314 314 315 315 314 314 313 313 314 313 313 312 311 310 309 309 308 306 306 305 304 304 303 303 303 304 305 306 307 308 306 306 306 306 306 305 304 304 304 303 303 302
313 313 313 313 313 313 313 313 313 312 312 310 311 310 309 308 308 306 305 304 304 302 302 302 302 302 303 304 305 307 306 306 305 305 305 304 304 304 305 303 302 302
312 312 312 312 312 312 312 312 312 311 310 310 309 308 308 307 307 306 304 303 302 302 302 301 301 301 300 301 302 305 306 306 305 305 305 304 303 303 303 303 302 302
311 312 312 312 312 312 312 311 311 311 310 309 309 308 307 306 305 305 305 303 302 302 301 301 300 300 299 299 301 302 304 306 305 304 304 304 303 303 303 302 302 302
311 311 311 311 310 310 310 310 310 309 309 309 309 308 307 305 305 304 304 303 303 301 301 301 300 299 297 297 299 300 302 305 304 303 303 303 303 302 302 301 301 301
310 310 310 310 309 309 308 308 308 308 308 308 308 308 308 306 305 304 303 302 302 301 300 300 299 298 296 295 296 297 300 303 304 303 302 302 301 301 301 301 301 301
309 309 308 308 307 307 307 307 307 308 308 307 307 307 307 307 305 304 302 301 301 300 300 299 298 297 296 294 294 295 298 301 305 303 302 301 301 301 300 301 300 300
308 307 307 307 307 307 307 307 307 308 307 307 307 307 307 307 305 303 302 301 300 299 298 299 297 295 293 292 292 293 297 299 304 303 303 302 301 300 299 299 299 300
307 307 306 306 306 306 306 306 307 307 306 307 307 306 307 307 306 304 303 302 300 299 298 297 296 294 291 292 292 292 294 297 304 304 304 302 301 300 300 299 298 299
306 305 305 305 305 305 306 306 305 305 305 305 306 307 307 306 305 305 303 302 300 298 297 296 295 293 291 292 292 292 292 295 303 305 304 303 302 301 300 299 298 299
305 305 304 305 305 305 305 305 304 304 305 305 305 306 306 306 306 305 303 302 300 299 297 296 295 293 291 292 292 291 292 294 305 306 305 302 302 302 300 299 298 298
304 304 304 304 304 305 305 304 304 305 305 305 305 305 305 304 304 304 303 302 301 300 298 297 296 292 291 291 292 292 293 297 306 306 305 303 302 302 301 299 298 298
304 304 304 304 304 304 304 304 304 304 304 304 304 304 304 305 305 305 304 302 301 300 298 296 295 292 291 292 292 291 294 303 306 303 302 303 302 302 301 300 299 297
304 303 303 304 304 303 303 303 304 304 304 305 303 303 303 302 303 302 303 303 302 300 298 296 295 293 291 292 292 291 295 302 304 302 301 301 301 302 301 300 300 298
303 303 303 303 303 303 303 304 304 305 305 305 304 303 302 301 301 300 301 301 301 300 299 297 296 295 292 292 292 292 295 300 302 301 302 301 300 301 301 302 301 302
303 303 302 302 302 302 303 303 304 304 305 306 306 305 304 303 302 300 300 300 300 301 303 299 298 297 293 292 292 292 295 299 300 299 298 299 300 299 300 299 299 301
303 303 302 302 302 303 303 303 304 304 305 305 305 303 303 303 303 302 300 299 300 300 301 301 300 299 296 292 292 292 292 298 298 296 296 296 299 298 298 297 297 297

ECMWFNIL_sfc_thetae_117.txt.gz
Theta_e
320 319 318 318 319 319 318 317 318 317 316 314 313 313 312 312 314 312 313 313 313 311 312 311 312 312 312 311 311 311 310 309 310 310 310 310 309 310 311 310 309 309
319 319 319 318 318 318 317 317 316 316 315 314 313 313 313 311 312 312 312 312 312 312 311 311 312 311 310 310 309 309 307 307 307 312 309 308 308 309 308 308 308 308
317 316 316 316 316 316 316 316 315 314 313 313 313 312 314 313 311 311 312 311 310 310 309 310 310 310 309 309 308 307 307 306 306 308 309 308 308 307 307 306 307 306
316 316 316 315 315 315 315 315 314 314 313 313 312 313 313 314 311 310 309 311 307 307 308 308 308 309 309 308 308 307 307 306 307 307 307 307 308 307 305 306 306 304
315 315 315 315 315 316 315 314 312 311 311 310 310 312 312 309 308 307 306 306 305 305 305 306 306 307 308 307 307 306 307 305 306 305 305 304 305 305 305 304 303 302
314 314 314 314 314 313 313 312 312 311 311 310 310 311 308 307 305 305 304 303 303 303 303 304 304 305 306 306 306 306 305 305 304 304 303 303 302 303 304 303 302 301
312 313 312 313 312 312 311 311 311 311 310 310 309 307 307 306 305 304 303 303 302 303 302 302 303 303 304 305 305 304 305 304 304 303 302 302 302 301 302 301 301 300
311 312 312 312 311 311 311 310 310 309 309 308 306 306 305 304 303 303 302 302 301 301 301 301 302 302 303 303 304 303 303 305 303 302 301 301 301 300 300 301 300 299
311 311 312 311 311 310 309 309 309 308 309 306 305 304 304 303 302 302 301 301 301 300 300 300 300 300 301 301 302 302 302 302 302 301 300 300 300 299 299 300 299 299
310 311 310 310 310 309 309 309 308 307 307 305 304 303 302 302 301 301 300 300 299 299 299 298 298 299 299 300 301 302 301 301 301 300 300 299 299 299 298 298 298 298
309 309 309 308 308 308 308 308 307 307 307 305 304 303 303 302 302 301 299 299 299 298 298 297 297 297 297 298 299 301 301 301 300 300 299 299 299 299 302 298 298 298
308 308 308 307 307 307 306 306 306 305 305 305 303 302 302 301 300 300 300 298 298 298 297 297 296 296 296 296 297 299 300 300 300 300 300 299 298 298 298 298 298 298
307 307 307 307 307 307 307 306 305 304 304 303 304 302 301 300 300 299 300 298 298 298 297 297 296 295 294 295 296 297 299 299 299 299 299 299 298 298 298 298 298 299
306 306 306 306 306 306 305 305 305 304 304 304 303 301 301 300 300 299 299 298 298 297 297 297 295 294 293 293 294 295 298 299 299 298 298 298 298 298 298 297 298 298
306 305 305 305 305 304 304 304 304 303 304 303 303 302 301 300 300 299 298 297 297 296 296 296 295 294 294 293 293 294 296 297 298 298 298 298 297 297 297 297 297 298
305 305 304 304 303 303 303 303 303 303 303 302 302 301 300 300 299 298 297 296 296 295 295 295 294 294 295 294 295 294 294 297 299 298 298 297 297 296 296 296 297 296
303 303 303 303 302 302 302 303 303 303 303 302 302 300 299 299 298 297 296 295 294 294 293 294 293 294 293 292 292 295 296 294 297 297 297 297 296 295 295 296 296 296
303 303 303 302 302 302 303 303 303 302 302 302 302 301 300 299 297 296 296 295 294 293 292 293 292 294 292 293 292 293 295 295 297 298 298 296 296 295 295 295 295 295
302 302 302 301 302 302 302 302 302 301 301 301 301 301 300 299 297 297 295 295 293 292 292 292 291 293 292 293 293 293 293 297 298 298 298 297 296 295 294 294 293 295
302 301 301 301 301 301 301 301 301 300 300 301 301 301 299 298 297 296 295 295 294 292 291 291 291 293 292 292 293 293 293 296 300 299 298 297 296 295 294 293 293 293
301 301 301 301 301 301 301 300 300 299 300 300 300 299 299 297 296 295 295 295 293 292 291 291 292 292 292 292 292 294 295 297 298 299 298 297 296 295 294 294 293 293
301 300 300 300 300 300 300 299 298 298 298 299 299 298 298 298 298 297 294 293 292 291 291 290 291 292 292 292 293 294 296 299 298 297 297 296 296 295 295 294 294 292
300 300 300 299 299 299 298 298 298 298 298 298 297 297 297 297 297 297 297 295 293 292 290 290 291 292 292 292 292 293 295 296 296 296 295 295 295 295 294 295 296 295
300 300 299 299 298 298 298 298 298 298 298 299 297 297 296 296 296 295 295 294 292 291 292 291 290 293 292 292 292 293 295 294 293 293 293 293 293 294 295 294 295 301
300 299 299 298 298 298 298 298 298 298 299 299 297 296 296 296 296 294 293 293 293 293 301 293 291 293 292 291 292 292 294 293 293 291 291 291 293 292 292 293 293 296
300 299 299 299 298 298 298 298 299 299 298 298 297 296 295 295 295 294 292 292 293 293 295 292 292 291 292 292 292 292 293 294 293 291 291 291 292 295 294 292 292 293

ECMWFNIL_sfc_thetae_120.txt.gz
Theta_e
319 319 318 317 316 316 315 314 313 312 312 311 310 309 310 311 312 310 311 311 310 309 309 308 308 307 309 307 307 307 307 307 308 307 306 306 305 304 304 302 301 301
317 318 318 317 316 315 314 314 313 312 311 311 310 310 311 310 310 309 308 308 308 308 308 308 308 307 307 307 307 306 305 305 305 308 304 303 303 303 301 301 300 300
316 315 315 314 314 313 313 313 313 312 311 311 311 311 311 310 308 308 307 306 306 306 306 306 307 307 307 306 305 304 304 303 302 303 304 302 302 301 301 301 300 300
315 314 314 314 313 312 313 312 312 311 311 311 310 312 310 308 305 305 305 308 304 304 305 305 305 306 306 305 304 303 303 302 302 302 301 302 302 301 300 301 300 299
313 313 313 313 313 313 312 311 310 310 309 308 307 307 306 303 303 303 303 303 303 303 303 303 304 304 305 304 303 302 302 301 301 301 300 300 301 301 300 300 298 298
313 314 314 313 312 311 310 310 309 309 307 306 304 304 302 302 302 302 302 301 302 302 302 302 302 302 303 303 302 301 301 301 300 300 300 299 299 300 300 299 298 297
311 311 311 311 310 310 310 309 309 308 306 305 304 302 302 301 301 300 301 301 301 302 300 300 300 301 301 301 302 301 301 300 300 299 298 298 299 298 299 298 298 297
310 310 310 310 309 309 309 308 306 304 303 302 301 301 301 300 300 300 300 300 299 299 299 299 300 300 300 301 300 300 299 300 299 298 297 297 297 297 297 298 297 296
310 309 309 309 308 308 307 306 305 303 303 301 300 300 301 300 299 299 299 299 298 298 298 298 298 299 299 300 299 299 298 298 298 297 297 297 296 296 297 297 296 296
309 309 308 308 306 306 305 304 303 302 302 300 300 300 299 299 299 298 298 297 297 296 296 296 297 298 298 299 299 298 298 297 297 297 297 297 297 296 296 296 295 295
308 308 307 307 306 305 303 303 303 302 302 300 299 299 299 298 299 298 297 297 296 295 295 295 295 296 297 298 298 298 298 297 297 296 296 296 296 297 300 296 296 295
307 306 306 305 305 304 303 302 302 301 300 300 299 298 298 298 297 297 298 296 296 295 295 294 294 295 295 296 297 298 297 297 297 297 296 296 296 296 296 296 296 295
306 305 305 305 304 303 303 302 301 301 300 299 299 298 297 297 297 296 297 296 295 295 294 294 294 294 294 294 295 296 296 296 296 295 296 296 295 296 296 295 295 295
305 305 304 304 303 303 302 302 301 300 300 300 299 297 297 296 296 296 296 296 295 295 295 295 294 293 293 293 293 294 296 296 296 296 295 295 295 295 295 295 295 295
304 304 304 304 303 302 302 301 300 300 299 299 298 298 298 296 296 295 295 294 294 294 293 294 294 294 294 292 292 293 294 295 295 295 295 294 294 294 294 294 294 294
303 303 302 302 302 301 301 300 299 299 298 297 296 296 296 296 295 295 294 293 293 293 293 293 293 294 296 295 295 295 293 296 296 295 294 294 294 293 293 294 294 293
302 302 302 301 301 301 300 300 299 298 297 296 295 295 295 295 293 292 292 292 292 292 292 292 292 294 294 292 292 296 295 295 295 294 293 293 293 292 292 293 293 293
302 301 301 301 301 300 300 300 299 298 296 295 295 294 294 293 292 292 292 291 291 291 291 292 292 295 292 293 292 293 298 297 295 295 294 293 292 292 293 292 291 292
301 301 301 301 300 300 301 300 299 298 296 295 294 295 293 292 292 291 291 291 291 291 291 291 291 293 292 293 293 293 295 297 295 294 294 293 292 292 292 290 290 292
301 301 300 300 300 300 300 300 299 297 297 296 296 295 293 293 292 291 291 292 292 291 291 292 292 293 293 294 294 294 295 296 294 294 294 293 293 292 292 291 290 290
300 300 300 300 300 300 299 299 298 298 297 296 294 293 292 291 291 291 291 292 291 292 292 292 292 292 292 293 294 294 294 295 294 295 294 293 292 292 291 292 290 291
300 300 300 299 299 299 298 298 298 297 296 296 295 293 293 292 291 291 291 291 292 292 291 290 290 291 292 292 293 293 294 296 294 293 292 293 292 292 291 290 291 292
300 300 299 299 298 298 297 297 297 296 296 296 295 294 293 291 291 291 292 292 291 290 289 289 289 291 291 292 292 292 293 292 292 293 291 290 290 291 292 292 292 294
300 300 299 299 298 297 297 296 296 296 296 297 295 294 293 293 292 291 290 291 290 289 290 290 288 291 291 292 292 292 293 291 290 291 289 289 290 290 290 290 292 299
300 300 299 298 297 296 297 296 296 296 296 295 294 294 293 293 294 291 290 289 290 292 298 291 289 292 292 291 291 292 293 290 290 290 290 288 289 291 290 290 290 294
300 299 298 297 297 296 297 296 296 295 294 294 293 293 293 292 293 292 291 290 290 290 292 289 290 289 290 291 291 292 293 292 290 289 289 288 288 291 290 289 289 289